Wetterdaten: Freitag, 10.05.2019
Datum Zeit Temp. A. Feuchte A. Luftdruck Regen Wind Richtung Richtung Sonnenschein ET UV Solar Taupunkt Windchill Windböen
10.05.2019 00:00 7,3 °C 87 % 1006,9 hPa 0,0 mm 1,5 km/h (1 Bft) S-SW 207 ° 0 min 0,000 mm 0,0 UV-I 0 W/m² 5,3 °C 7,3 °C 3,2 km/h (1 Bft)
10.05.2019 00:01 7,2 °C 87 % 1006,9 hPa 0,0 mm 1,8 km/h (1 Bft) S-SW 207 ° 0 min 0,000 mm 0,0 UV-I 0 W/m² 5,2 °C 7,2 °C 4,8 km/h (1 Bft)
10.05.2019 00:02 7,1 °C 87 % 1006,9 hPa 0,0 mm 2,5 km/h (1 Bft) S 186 ° 0 min 0,000 mm 0,0 UV-I 0 W/m² 5,1 °C 7,1 °C 4,8 km/h (1 Bft)
10.05.2019 00:03 7,2 °C 88 % 1007,0 hPa 0,0 mm 3,8 km/h (1 Bft) W-SW 238 ° 0 min 0,000 mm 0,0 UV-I 0 W/m² 5,3 °C 7,2 °C 6,4 km/h (2 Bft)
10.05.2019 00:04 7,2 °C 88 % 1007,0 hPa 0,0 mm 2,4 km/h (1 Bft) W-SW 238 ° 0 min 0,000 mm 0,0 UV-I 0 W/m² 5,3 °C 7,2 °C 4,8 km/h (1 Bft)
10.05.2019 00:05 7,2 °C 88 % 1007,0 hPa 0,0 mm 0,9 km/h (0 Bft) W-SW 238 ° 0 min 0,000 mm 0,0 UV-I 0 W/m² 5,3 °C 7,2 °C 3,2 km/h (1 Bft)
10.05.2019 00:06 7,3 °C 87 % 1007,1 hPa 0,0 mm 0,0 km/h (0 Bft) W-SW 238 ° 0 min 0,000 mm 0,0 UV-I 0 W/m² 5,3 °C 7,3 °C 0,0 km/h (0 Bft)
10.05.2019 00:07 7,3 °C 87 % 1007,1 hPa 0,0 mm 0,0 km/h (0 Bft) W-SW 238 ° 0 min 0,000 mm 0,0 UV-I 0 W/m² 5,3 °C 7,3 °C 0,0 km/h (0 Bft)
10.05.2019 00:08 7,3 °C 88 % 1007,1 hPa 0,0 mm 0,1 km/h (0 Bft) W-SW 238 ° 0 min 0,000 mm 0,0 UV-I 0 W/m² 5,4 °C 7,3 °C 1,6 km/h (1 Bft)
10.05.2019 00:09 7,4 °C 88 % 1007,2 hPa 0,0 mm 3,6 km/h (1 Bft) W-SW 257 ° 0 min 0,000 mm 0,0 UV-I 0 W/m² 5,5 °C 7,4 °C 9,7 km/h (2 Bft)
10.05.2019 00:10 7,4 °C 88 % 1007,2 hPa 0,0 mm 4,2 km/h (1 Bft) W-SW 246 ° 0 min 0,000 mm 0,0 UV-I 0 W/m² 5,5 °C 7,4 °C 9,7 km/h (2 Bft)
10.05.2019 00:11 7,4 °C 87 % 1007,3 hPa 0,0 mm 2,5 km/h (1 Bft) W-SW 244 ° 0 min 0,000 mm 0,0 UV-I 0 W/m² 5,4 °C 7,4 °C 4,8 km/h (1 Bft)
10.05.2019 00:12 7,5 °C 87 % 1007,3 hPa 0,0 mm 6,4 km/h (2 Bft) W 265 ° 0 min 0,000 mm 0,0 UV-I 0 W/m² 5,5 °C 6,5 °C 11,3 km/h (2 Bft)
10.05.2019 00:13 7,4 °C 87 % 1007,3 hPa 0,0 mm 5,0 km/h (1 Bft) W 263 ° 0 min 0,000 mm 0,0 UV-I 0 W/m² 5,4 °C 6,8 °C 8,0 km/h (2 Bft)
10.05.2019 00:14 7,5 °C 87 % 1007,3 hPa 0,0 mm 1,7 km/h (1 Bft) W 263 ° 0 min 0,000 mm 0,0 UV-I 0 W/m² 5,5 °C 7,5 °C 3,2 km/h (1 Bft)
10.05.2019 00:15 7,5 °C 88 % 1007,3 hPa 0,0 mm 7,3 km/h (2 Bft) W 273 ° 0 min 0,000 mm 0,0 UV-I 0 W/m² 5,6 °C 6,2 °C 12,9 km/h (3 Bft)
10.05.2019 00:16 7,5 °C 88 % 1007,2 hPa 0,0 mm 4,3 km/h (1 Bft) SW 223 ° 0 min 0,000 mm 0,0 UV-I 0 W/m² 5,6 °C 7,5 °C 6,4 km/h (2 Bft)
10.05.2019 00:17 7,5 °C 88 % 1007,2 hPa 0,0 mm 3,8 km/h (1 Bft) W 275 ° 0 min 0,000 mm 0,0 UV-I 0 W/m² 5,6 °C 7,5 °C 4,8 km/h (1 Bft)
10.05.2019 00:18 7,5 °C 88 % 1007,5 hPa 0,2 mm 3,5 km/h (1 Bft) W-SW 243 ° 0 min 0,000 mm 0,0 UV-I 0 W/m² 5,6 °C 7,5 °C 6,4 km/h (2 Bft)
10.05.2019 00:19 7,4 °C 88 % 1007,5 hPa 0,0 mm 11,0 km/h (2 Bft) SW 233 ° 0 min 0,000 mm 0,0 UV-I 0 W/m² 5,5 °C 5,3 °C 17,7 km/h (3 Bft)
10.05.2019 00:20 7,5 °C 88 % 1007,5 hPa 0,0 mm 4,8 km/h (1 Bft) W 278 ° 0 min 0,000 mm 0,0 UV-I 0 W/m² 5,6 °C 7,0 °C 9,7 km/h (2 Bft)
10.05.2019 00:21 7,4 °C 88 % 1007,5 hPa 0,2 mm 8,5 km/h (2 Bft) W 272 ° 0 min 0,000 mm 0,0 UV-I 0 W/m² 5,5 °C 5,8 °C 14,5 km/h (3 Bft)
10.05.2019 00:22 7,4 °C 88 % 1007,3 hPa 0,0 mm 5,8 km/h (2 Bft) S-SW 194 ° 0 min 0,000 mm 0,0 UV-I 0 W/m² 5,5 °C 6,5 °C 9,7 km/h (2 Bft)
10.05.2019 00:23 7,4 °C 89 % 1007,3 hPa 0,0 mm 6,2 km/h (2 Bft) SW 234 ° 0 min 0,000 mm 0,0 UV-I 0 W/m² 5,7 °C 6,4 °C 8,0 km/h (2 Bft)
10.05.2019 00:24 7,4 °C 89 % 1007,4 hPa 0,0 mm 2,1 km/h (1 Bft) SW 218 ° 0 min 0,000 mm 0,0 UV-I 0 W/m² 5,7 °C 7,4 °C 6,4 km/h (2 Bft)
10.05.2019 00:25 7,4 °C 89 % 1007,5 hPa 0,0 mm 3,1 km/h (1 Bft) W-SW 240 ° 0 min 0,000 mm 0,0 UV-I 0 W/m² 5,7 °C 7,4 °C 4,8 km/h (1 Bft)
10.05.2019 00:26 7,4 °C 89 % 1007,5 hPa 0,0 mm 5,5 km/h (1 Bft) SW 227 ° 0 min 0,000 mm 0,0 UV-I 0 W/m² 5,7 °C 6,6 °C 9,7 km/h (2 Bft)
10.05.2019 00:27 7,4 °C 89 % 1007,5 hPa 0,0 mm 6,6 km/h (2 Bft) W 261 ° 0 min 0,000 mm 0,0 UV-I 0 W/m² 5,7 °C 6,3 °C 9,7 km/h (2 Bft)
10.05.2019 00:28 7,3 °C 89 % 1007,5 hPa 0,0 mm 4,2 km/h (1 Bft) W-SW 242 ° 0 min 0,000 mm 0,0 UV-I 0 W/m² 5,6 °C 7,3 °C 9,7 km/h (2 Bft)
10.05.2019 00:29 7,3 °C 89 % 1007,4 hPa 0,0 mm 3,7 km/h (1 Bft) SW 227 ° 0 min 0,000 mm 0,0 UV-I 0 W/m² 5,6 °C 7,3 °C 9,7 km/h (2 Bft)
10.05.2019 00:30 7,3 °C 89 % 1007,5 hPa 0,0 mm 6,0 km/h (2 Bft) SW 217 ° 0 min 0,000 mm 0,0 UV-I 0 W/m² 5,6 °C 6,4 °C 12,9 km/h (3 Bft)
10.05.2019 00:31 7,3 °C 89 % 1007,5 hPa 0,0 mm 3,4 km/h (1 Bft) S-SW 196 ° 0 min 0,000 mm 0,0 UV-I 0 W/m² 5,6 °C 7,3 °C 6,4 km/h (2 Bft)
10.05.2019 00:32 7,3 °C 90 % 1007,5 hPa 0,0 mm 2,8 km/h (1 Bft) W-SW 241 ° 0 min 0,000 mm 0,0 UV-I 0 W/m² 5,8 °C 7,3 °C 6,4 km/h (2 Bft)
10.05.2019 00:33 7,3 °C 90 % 1007,5 hPa 0,0 mm 5,2 km/h (1 Bft) SW 228 ° 0 min 0,000 mm 0,0 UV-I 0 W/m² 5,8 °C 6,6 °C 6,4 km/h (2 Bft)
10.05.2019 00:34 7,3 °C 90 % 1007,5 hPa 0,0 mm 3,0 km/h (1 Bft) S-SW 195 ° 0 min 0,000 mm 0,0 UV-I 0 W/m² 5,8 °C 7,3 °C 8,0 km/h (2 Bft)
10.05.2019 00:35 7,3 °C 90 % 1007,5 hPa 0,0 mm 3,2 km/h (1 Bft) S-SW 198 ° 0 min 0,000 mm 0,0 UV-I 0 W/m² 5,8 °C 7,3 °C 8,0 km/h (2 Bft)
10.05.2019 00:36 7,3 °C 90 % 1007,6 hPa 0,0 mm 2,7 km/h (1 Bft) S-SW 212 ° 0 min 0,000 mm 0,0 UV-I 0 W/m² 5,8 °C 7,3 °C 4,8 km/h (1 Bft)
10.05.2019 00:37 7,3 °C 90 % 1007,6 hPa 0,0 mm 3,3 km/h (1 Bft) SW 231 ° 0 min 0,000 mm 0,0 UV-I 0 W/m² 5,8 °C 7,3 °C 6,4 km/h (2 Bft)
10.05.2019 00:38 7,3 °C 90 % 1007,6 hPa 0,0 mm 5,0 km/h (1 Bft) S 175 ° 0 min 0,000 mm 0,0 UV-I 0 W/m² 5,8 °C 6,7 °C 9,7 km/h (2 Bft)
10.05.2019 00:39 7,3 °C 90 % 1007,6 hPa 0,0 mm 8,9 km/h (2 Bft) W-SW 248 ° 0 min 0,000 mm 0,0 UV-I 0 W/m² 5,8 °C 5,6 °C 19,3 km/h (3 Bft)
10.05.2019 00:40 7,3 °C 90 % 1007,6 hPa 0,0 mm 4,2 km/h (1 Bft) S-SW 205 ° 0 min 0,000 mm 0,0 UV-I 0 W/m² 5,8 °C 7,3 °C 8,0 km/h (2 Bft)
10.05.2019 00:41 7,3 °C 90 % 1007,6 hPa 0,0 mm 8,4 km/h (2 Bft) W 276 ° 0 min 0,000 mm 0,0 UV-I 0 W/m² 5,8 °C 5,7 °C 14,5 km/h (3 Bft)
10.05.2019 00:42 7,3 °C 90 % 1007,5 hPa 0,0 mm 6,6 km/h (2 Bft) W-SW 246 ° 0 min 0,000 mm 0,0 UV-I 0 W/m² 5,8 °C 6,2 °C 11,3 km/h (2 Bft)
10.05.2019 00:43 7,3 °C 90 % 1007,5 hPa 0,0 mm 5,2 km/h (1 Bft) W 265 ° 0 min 0,000 mm 0,0 UV-I 0 W/m² 5,8 °C 6,6 °C 11,3 km/h (2 Bft)
10.05.2019 00:44 7,3 °C 90 % 1007,5 hPa 0,0 mm 2,5 km/h (1 Bft) W-SW 250 ° 0 min 0,000 mm 0,0 UV-I 0 W/m² 5,8 °C 7,3 °C 4,8 km/h (1 Bft)
10.05.2019 00:45 7,3 °C 90 % 1007,5 hPa 0,2 mm 5,8 km/h (2 Bft) W 266 ° 0 min 0,000 mm 0,0 UV-I 0 W/m² 5,8 °C 6,4 °C 8,0 km/h (2 Bft)
10.05.2019 00:46 7,3 °C 90 % 1007,5 hPa 0,0 mm 5,5 km/h (1 Bft) W 277 ° 0 min 0,000 mm 0,0 UV-I 0 W/m² 5,8 °C 6,5 °C 11,3 km/h (2 Bft)
10.05.2019 00:47 7,3 °C 90 % 1007,5 hPa 0,0 mm 4,6 km/h (1 Bft) W 280 ° 0 min 0,000 mm 0,0 UV-I 0 W/m² 5,8 °C 6,8 °C 12,9 km/h (3 Bft)
10.05.2019 00:48 7,3 °C 90 % 1007,6 hPa 0,0 mm 9,6 km/h (2 Bft) W-SW 241 ° 0 min 0,000 mm 0,0 UV-I 0 W/m² 5,8 °C 5,5 °C 16,1 km/h (3 Bft)
10.05.2019 00:49 7,3 °C 90 % 1007,5 hPa 0,0 mm 8,8 km/h (2 Bft) W 263 ° 0 min 0,000 mm 0,0 UV-I 0 W/m² 5,8 °C 5,7 °C 17,7 km/h (3 Bft)
10.05.2019 00:50 7,3 °C 90 % 1007,5 hPa 0,0 mm 9,5 km/h (2 Bft) W 261 ° 0 min 0,000 mm 0,0 UV-I 0 W/m² 5,8 °C 5,5 °C 12,9 km/h (3 Bft)
10.05.2019 00:51 7,3 °C 90 % 1007,6 hPa 0,0 mm 5,6 km/h (1 Bft) SW 236 ° 0 min 0,000 mm 0,0 UV-I 0 W/m² 5,8 °C 6,5 °C 11,3 km/h (2 Bft)
10.05.2019 00:52 7,3 °C 89 % 1007,5 hPa 0,0 mm 10,1 km/h (2 Bft) S 191 ° 0 min 0,000 mm 0,0 UV-I 0 W/m² 5,6 °C 5,4 °C 17,7 km/h (3 Bft)
10.05.2019 00:53 7,4 °C 89 % 1007,5 hPa 0,0 mm 7,8 km/h (2 Bft) SW 229 ° 0 min 0,000 mm 0,0 UV-I 0 W/m² 5,7 °C 6,0 °C 17,7 km/h (3 Bft)
10.05.2019 00:54 7,4 °C 89 % 1007,6 hPa 0,0 mm 1,6 km/h (1 Bft) S-SW 210 ° 0 min 0,000 mm 0,0 UV-I 0 W/m² 5,7 °C 7,4 °C 6,4 km/h (2 Bft)
10.05.2019 00:55 7,4 °C 89 % 1007,5 hPa 0,0 mm 1,5 km/h (1 Bft) S-SW 211 ° 0 min 0,000 mm 0,0 UV-I 0 W/m² 5,7 °C 7,4 °C 4,8 km/h (1 Bft)
10.05.2019 00:56 7,4 °C 89 % 1007,5 hPa 0,0 mm 4,7 km/h (1 Bft) W-SW 248 ° 0 min 0,000 mm 0,0 UV-I 0 W/m² 5,7 °C 6,9 °C 8,0 km/h (2 Bft)
10.05.2019 00:57 7,4 °C 89 % 1007,5 hPa 0,0 mm 4,4 km/h (1 Bft) W 273 ° 0 min 0,000 mm 0,0 UV-I 0 W/m² 5,7 °C 7,4 °C 8,0 km/h (2 Bft)
10.05.2019 00:58 7,4 °C 89 % 1007,5 hPa 0,0 mm 4,3 km/h (1 Bft) SW 232 ° 0 min 0,000 mm 0,0 UV-I 0 W/m² 5,7 °C 7,4 °C 6,4 km/h (2 Bft)
10.05.2019 00:59 7,4 °C 89 % 1007,5 hPa 0,0 mm 2,0 km/h (1 Bft) SW 229 ° 0 min 0,000 mm 0,0 UV-I 0 W/m² 5,7 °C 7,4 °C 3,2 km/h (1 Bft)
10.05.2019 01:00 7,4 °C 89 % 1007,6 hPa 0,0 mm 2,1 km/h (1 Bft) W-SW 246 ° 0 min 0,000 mm 0,0 UV-I 0 W/m² 5,7 °C 7,4 °C 6,4 km/h (2 Bft)
10.05.2019 01:01 7,4 °C 89 % 1007,6 hPa 0,0 mm 4,2 km/h (1 Bft) SW 225 ° 0 min 0,000 mm 0,0 UV-I 0 W/m² 5,7 °C 7,4 °C 11,3 km/h (2 Bft)
10.05.2019 01:02 7,4 °C 89 % 1007,6 hPa 0,0 mm 6,7 km/h (2 Bft) W 259 ° 0 min 0,000 mm 0,0 UV-I 0 W/m² 5,7 °C 6,3 °C 11,3 km/h (2 Bft)
10.05.2019 01:03 7,4 °C 88 % 1007,6 hPa 0,0 mm 3,2 km/h (1 Bft) SW 225 ° 0 min 0,000 mm 0,0 UV-I 0 W/m² 5,5 °C 7,4 °C 4,8 km/h (1 Bft)
10.05.2019 01:04 7,4 °C 88 % 1007,6 hPa 0,0 mm 6,0 km/h (2 Bft) SW 233 ° 0 min 0,000 mm 0,0 UV-I 0 W/m² 5,5 °C 6,5 °C 14,5 km/h (3 Bft)
10.05.2019 01:05 7,4 °C 88 % 1007,6 hPa 0,0 mm 7,6 km/h (2 Bft) W-SW 244 ° 0 min 0,000 mm 0,0 UV-I 0 W/m² 5,5 °C 6,0 °C 14,5 km/h (3 Bft)
10.05.2019 01:06 7,4 °C 88 % 1007,6 hPa 0,0 mm 9,9 km/h (2 Bft) W-SW 240 ° 0 min 0,000 mm 0,0 UV-I 0 W/m² 5,5 °C 5,5 °C 16,1 km/h (3 Bft)
10.05.2019 01:07 7,4 °C 88 % 1007,6 hPa 0,0 mm 8,1 km/h (2 Bft) SW 236 ° 0 min 0,000 mm 0,0 UV-I 0 W/m² 5,5 °C 5,9 °C 12,9 km/h (3 Bft)
10.05.2019 01:08 7,5 °C 88 % 1007,6 hPa 0,0 mm 6,6 km/h (2 Bft) S 188 ° 0 min 0,000 mm 0,0 UV-I 0 W/m² 5,6 °C 6,4 °C 11,3 km/h (2 Bft)
10.05.2019 01:09 7,5 °C 88 % 1007,7 hPa 0,0 mm 5,3 km/h (1 Bft) W 260 ° 0 min 0,000 mm 0,0 UV-I 0 W/m² 5,6 °C 6,8 °C 6,4 km/h (2 Bft)
10.05.2019 01:10 7,5 °C 88 % 1007,6 hPa 0,0 mm 1,9 km/h (1 Bft) W-SW 247 ° 0 min 0,000 mm 0,0 UV-I 0 W/m² 5,6 °C 7,5 °C 6,4 km/h (2 Bft)
10.05.2019 01:11 7,4 °C 88 % 1007,6 hPa 0,0 mm 3,0 km/h (1 Bft) W 264 ° 0 min 0,000 mm 0,0 UV-I 0 W/m² 5,5 °C 7,4 °C 4,8 km/h (1 Bft)
10.05.2019 01:12 7,4 °C 88 % 1007,6 hPa 0,0 mm 1,1 km/h (1 Bft) W 263 ° 0 min 0,000 mm 0,0 UV-I 0 W/m² 5,5 °C 7,4 °C 1,6 km/h (1 Bft)
10.05.2019 01:13 7,4 °C 88 % 1007,6 hPa 0,0 mm 2,1 km/h (1 Bft) S 184 ° 0 min 0,000 mm 0,0 UV-I 0 W/m² 5,5 °C 7,4 °C 3,2 km/h (1 Bft)
10.05.2019 01:14 7,3 °C 88 % 1007,6 hPa 0,0 mm 0,4 km/h (0 Bft) S 184 ° 0 min 0,000 mm 0,0 UV-I 0 W/m² 5,4 °C 7,3 °C 3,2 km/h (1 Bft)
10.05.2019 01:15 7,2 °C 88 % 1007,7 hPa 0,0 mm 0,5 km/h (0 Bft) S 184 ° 0 min 0,000 mm 0,0 UV-I 0 W/m² 5,3 °C 7,2 °C 1,6 km/h (1 Bft)
10.05.2019 01:16 7,2 °C 88 % 1007,7 hPa 0,0 mm 0,5 km/h (0 Bft) W 265 ° 0 min 0,000 mm 0,0 UV-I 0 W/m² 5,3 °C 7,2 °C 3,2 km/h (1 Bft)
10.05.2019 01:17 7,1 °C 88 % 1007,6 hPa 0,0 mm 0,9 km/h (0 Bft) W 264 ° 0 min 0,000 mm 0,0 UV-I 0 W/m² 5,2 °C 7,1 °C 3,2 km/h (1 Bft)
10.05.2019 01:18 7,0 °C 89 % 1007,6 hPa 0,0 mm 0,5 km/h (0 Bft) W-SW 251 ° 0 min 0,000 mm 0,0 UV-I 0 W/m² 5,3 °C 7,0 °C 1,6 km/h (1 Bft)
10.05.2019 01:19 6,9 °C 89 % 1007,6 hPa 0,0 mm 1,0 km/h (0 Bft) S-SO 167 ° 0 min 0,000 mm 0,0 UV-I 0 W/m² 5,2 °C 6,9 °C 6,4 km/h (2 Bft)
10.05.2019 01:20 6,9 °C 89 % 1007,7 hPa 0,0 mm 2,7 km/h (1 Bft) S-SO 167 ° 0 min 0,000 mm 0,0 UV-I 0 W/m² 5,2 °C 6,9 °C 4,8 km/h (1 Bft)
10.05.2019 01:21 6,9 °C 90 % 1007,7 hPa 0,0 mm 0,0 km/h (0 Bft) S-SO 167 ° 0 min 0,000 mm 0,0 UV-I 0 W/m² 5,4 °C 6,9 °C 0,0 km/h (0 Bft)
10.05.2019 01:22 6,8 °C 90 % 1007,7 hPa 0,0 mm 0,0 km/h (0 Bft) S-SO 167 ° 0 min 0,000 mm 0,0 UV-I 0 W/m² 5,3 °C 6,8 °C 0,0 km/h (0 Bft)
10.05.2019 01:23 6,8 °C 90 % 1007,6 hPa 0,0 mm 0,0 km/h (0 Bft) S-SO 167 ° 0 min 0,000 mm 0,0 UV-I 0 W/m² 5,3 °C 6,8 °C 0,0 km/h (0 Bft)
10.05.2019 01:24 6,8 °C 90 % 1007,6 hPa 0,0 mm 2,5 km/h (1 Bft) S-SW 212 ° 0 min 0,000 mm 0,0 UV-I 0 W/m² 5,3 °C 6,8 °C 4,8 km/h (1 Bft)
10.05.2019 01:25 6,7 °C 90 % 1007,6 hPa 0,0 mm 0,5 km/h (0 Bft) S-SW 212 ° 0 min 0,000 mm 0,0 UV-I 0 W/m² 5,2 °C 6,7 °C 3,2 km/h (1 Bft)
10.05.2019 01:26 6,7 °C 90 % 1007,6 hPa 0,0 mm 0,0 km/h (0 Bft) S-SW 212 ° 0 min 0,000 mm 0,0 UV-I 0 W/m² 5,2 °C 6,7 °C 0,0 km/h (0 Bft)
10.05.2019 01:27 6,7 °C 90 % 1007,6 hPa 0,0 mm 0,0 km/h (0 Bft) S-SW 212 ° 0 min 0,000 mm 0,0 UV-I 0 W/m² 5,2 °C 6,7 °C 0,0 km/h (0 Bft)
10.05.2019 01:28 6,7 °C 90 % 1007,6 hPa 0,0 mm 0,5 km/h (0 Bft) S-SW 212 ° 0 min 0,000 mm 0,0 UV-I 0 W/m² 5,2 °C 6,7 °C 1,6 km/h (1 Bft)
10.05.2019 01:29 6,7 °C 90 % 1007,5 hPa 0,0 mm 0,7 km/h (0 Bft) W 275 ° 0 min 0,000 mm 0,0 UV-I 0 W/m² 5,2 °C 6,7 °C 4,8 km/h (1 Bft)
10.05.2019 01:30 6,7 °C 91 % 1007,5 hPa 0,0 mm 0,5 km/h (0 Bft) W 263 ° 0 min 0,000 mm 0,0 UV-I 0 W/m² 5,3 °C 6,7 °C 3,2 km/h (1 Bft)
10.05.2019 01:31 6,7 °C 91 % 1007,5 hPa 0,0 mm 4,8 km/h (1 Bft) S 184 ° 0 min 0,000 mm 0,0 UV-I 0 W/m² 5,3 °C 6,1 °C 8,0 km/h (2 Bft)
10.05.2019 01:32 6,7 °C 91 % 1007,5 hPa 0,0 mm 2,8 km/h (1 Bft) SW 231 ° 0 min 0,000 mm 0,0 UV-I 0 W/m² 5,3 °C 6,7 °C 6,4 km/h (2 Bft)
10.05.2019 01:33 6,7 °C 91 % 1007,6 hPa 0,0 mm 0,7 km/h (0 Bft) S-SW 202 ° 0 min 0,000 mm 0,0 UV-I 0 W/m² 5,3 °C 6,7 °C 3,2 km/h (1 Bft)
10.05.2019 01:34 6,7 °C 91 % 1007,5 hPa 0,0 mm 1,2 km/h (1 Bft) O 100 ° 0 min 0,000 mm 0,0 UV-I 0 W/m² 5,3 °C 6,7 °C 3,2 km/h (1 Bft)
10.05.2019 01:35 6,6 °C 91 % 1007,5 hPa 0,0 mm 0,7 km/h (0 Bft) O 97 ° 0 min 0,000 mm 0,0 UV-I 0 W/m² 5,2 °C 6,6 °C 4,8 km/h (1 Bft)
10.05.2019 01:36 6,6 °C 91 % 1007,5 hPa 0,0 mm 0,9 km/h (0 Bft) W-SW 257 ° 0 min 0,000 mm 0,0 UV-I 0 W/m² 5,2 °C 6,6 °C 4,8 km/h (1 Bft)
10.05.2019 01:37 6,6 °C 91 % 1007,5 hPa 0,0 mm 1,5 km/h (1 Bft) W-SW 255 ° 0 min 0,000 mm 0,0 UV-I 0 W/m² 5,2 °C 6,6 °C 3,2 km/h (1 Bft)
10.05.2019 01:38 6,6 °C 91 % 1007,5 hPa 0,0 mm 4,6 km/h (1 Bft) W 272 ° 0 min 0,000 mm 0,0 UV-I 0 W/m² 5,2 °C 6,0 °C 11,3 km/h (2 Bft)
10.05.2019 01:39 6,6 °C 91 % 1007,5 hPa 0,0 mm 2,6 km/h (1 Bft) W 277 ° 0 min 0,000 mm 0,0 UV-I 0 W/m² 5,2 °C 6,6 °C 9,7 km/h (2 Bft)
10.05.2019 01:40 6,7 °C 91 % 1007,5 hPa 0,0 mm 2,0 km/h (1 Bft) W-SW 239 ° 0 min 0,000 mm 0,0 UV-I 0 W/m² 5,3 °C 6,7 °C 4,8 km/h (1 Bft)
10.05.2019 01:41 6,8 °C 90 % 1007,6 hPa 0,0 mm 7,2 km/h (2 Bft) W 259 ° 0 min 0,000 mm 0,0 UV-I 0 W/m² 5,3 °C 5,5 °C 11,3 km/h (2 Bft)
10.05.2019 01:42 6,9 °C 90 % 1007,6 hPa 0,0 mm 3,8 km/h (1 Bft) W 269 ° 0 min 0,000 mm 0,0 UV-I 0 W/m² 5,4 °C 6,9 °C 6,4 km/h (2 Bft)
10.05.2019 01:43 7,1 °C 90 % 1007,6 hPa 0,0 mm 2,5 km/h (1 Bft) W 267 ° 0 min 0,000 mm 0,0 UV-I 0 W/m² 5,6 °C 7,1 °C 3,2 km/h (1 Bft)
10.05.2019 01:44 7,2 °C 89 % 1007,5 hPa 0,0 mm 3,4 km/h (1 Bft) W 269 ° 0 min 0,000 mm 0,0 UV-I 0 W/m² 5,5 °C 7,2 °C 6,4 km/h (2 Bft)
10.05.2019 01:45 7,2 °C 89 % 1007,6 hPa 0,0 mm 3,7 km/h (1 Bft) S-SW 196 ° 0 min 0,000 mm 0,0 UV-I 0 W/m² 5,5 °C 7,2 °C 6,4 km/h (2 Bft)
10.05.2019 01:46 7,2 °C 89 % 1007,6 hPa 0,0 mm 0,9 km/h (0 Bft) S-SW 196 ° 0 min 0,000 mm 0,0 UV-I 0 W/m² 5,5 °C 7,2 °C 3,2 km/h (1 Bft)
10.05.2019 01:47 7,1 °C 89 % 1007,6 hPa 0,0 mm 1,2 km/h (1 Bft) S-SW 196 ° 0 min 0,000 mm 0,0 UV-I 0 W/m² 5,4 °C 7,1 °C 3,2 km/h (1 Bft)
10.05.2019 01:48 7,1 °C 89 % 1007,6 hPa 0,0 mm 2,3 km/h (1 Bft) S-SW 194 ° 0 min 0,000 mm 0,0 UV-I 0 W/m² 5,4 °C 7,1 °C 8,0 km/h (2 Bft)
10.05.2019 01:49 7,1 °C 89 % 1007,6 hPa 0,0 mm 6,6 km/h (2 Bft) S 182 ° 0 min 0,000 mm 0,0 UV-I 0 W/m² 5,4 °C 6,0 °C 11,3 km/h (2 Bft)
10.05.2019 01:50 7,1 °C 89 % 1007,6 hPa 0,0 mm 2,1 km/h (1 Bft) S-SW 194 ° 0 min 0,000 mm 0,0 UV-I 0 W/m² 5,4 °C 7,1 °C 4,8 km/h (1 Bft)
10.05.2019 01:51 7,1 °C 88 % 1007,6 hPa 0,0 mm 0,0 km/h (0 Bft) S-SW 194 ° 0 min 0,000 mm 0,0 UV-I 0 W/m² 5,2 °C 7,1 °C 0,0 km/h (0 Bft)
10.05.2019 01:52 7,1 °C 89 % 1007,6 hPa 0,0 mm 0,3 km/h (0 Bft) S-SW 195 ° 0 min 0,000 mm 0,0 UV-I 0 W/m² 5,4 °C 7,1 °C 1,6 km/h (1 Bft)
10.05.2019 01:53 7,0 °C 89 % 1007,6 hPa 0,0 mm 0,3 km/h (0 Bft) S-SW 195 ° 0 min 0,000 mm 0,0 UV-I 0 W/m² 5,3 °C 7,0 °C 1,6 km/h (1 Bft)
10.05.2019 01:54 6,9 °C 89 % 1007,7 hPa 0,0 mm 2,1 km/h (1 Bft) S-SW 193 ° 0 min 0,000 mm 0,0 UV-I 0 W/m² 5,2 °C 6,9 °C 4,8 km/h (1 Bft)
10.05.2019 01:55 6,9 °C 89 % 1007,6 hPa 0,0 mm 2,2 km/h (1 Bft) S-SW 193 ° 0 min 0,000 mm 0,0 UV-I 0 W/m² 5,2 °C 6,9 °C 3,2 km/h (1 Bft)
10.05.2019 01:56 6,9 °C 89 % 1007,6 hPa 0,0 mm 2,3 km/h (1 Bft) S 188 ° 0 min 0,000 mm 0,0 UV-I 0 W/m² 5,2 °C 6,9 °C 4,8 km/h (1 Bft)
10.05.2019 01:57 6,9 °C 89 % 1007,6 hPa 0,0 mm 1,0 km/h (0 Bft) S 188 ° 0 min 0,000 mm 0,0 UV-I 0 W/m² 5,2 °C 6,9 °C 3,2 km/h (1 Bft)
10.05.2019 01:58 6,9 °C 89 % 1007,6 hPa 0,0 mm 1,7 km/h (1 Bft) W-SW 257 ° 0 min 0,000 mm 0,0 UV-I 0 W/m² 5,2 °C 6,9 °C 4,8 km/h (1 Bft)
10.05.2019 01:59 7,0 °C 88 % 1007,6 hPa 0,0 mm 2,8 km/h (1 Bft) S 190 ° 0 min 0,000 mm 0,0 UV-I 0 W/m² 5,2 °C 7,0 °C 4,8 km/h (1 Bft)
10.05.2019 02:00 6,9 °C 88 % 1007,6 hPa 0,0 mm 0,0 km/h (0 Bft) S 190 ° 0 min 0,000 mm 0,0 UV-I 0 W/m² 5,1 °C 6,9 °C 0,0 km/h (0 Bft)
10.05.2019 02:01 6,9 °C 89 % 1007,5 hPa 0,0 mm 2,1 km/h (1 Bft) S-SW 212 ° 0 min 0,000 mm 0,0 UV-I 0 W/m² 5,2 °C 6,9 °C 4,8 km/h (1 Bft)
10.05.2019 02:02 6,9 °C 89 % 1007,5 hPa 0,0 mm 1,4 km/h (1 Bft) S-SW 205 ° 0 min 0,000 mm 0,0 UV-I 0 W/m² 5,2 °C 6,9 °C 4,8 km/h (1 Bft)
10.05.2019 02:03 6,9 °C 89 % 1007,5 hPa 0,0 mm 1,1 km/h (1 Bft) S 190 ° 0 min 0,000 mm 0,0 UV-I 0 W/m² 5,2 °C 6,9 °C 3,2 km/h (1 Bft)
10.05.2019 02:04 6,9 °C 89 % 1007,6 hPa 0,0 mm 2,5 km/h (1 Bft) S 173 ° 0 min 0,000 mm 0,0 UV-I 0 W/m² 5,2 °C 6,9 °C 8,0 km/h (2 Bft)
10.05.2019 02:05 6,9 °C 89 % 1007,6 hPa 0,0 mm 0,5 km/h (0 Bft) S 173 ° 0 min 0,000 mm 0,0 UV-I 0 W/m² 5,2 °C 6,9 °C 1,6 km/h (1 Bft)
10.05.2019 02:06 6,9 °C 89 % 1007,5 hPa 0,0 mm 2,0 km/h (1 Bft) S-SO 150 ° 0 min 0,000 mm 0,0 UV-I 0 W/m² 5,2 °C 6,9 °C 6,4 km/h (2 Bft)
10.05.2019 02:07 6,9 °C 89 % 1007,5 hPa 0,0 mm 0,5 km/h (0 Bft) S 180 ° 0 min 0,000 mm 0,0 UV-I 0 W/m² 5,2 °C 6,9 °C 3,2 km/h (1 Bft)
10.05.2019 02:08 7,0 °C 88 % 1007,6 hPa 0,0 mm 1,1 km/h (1 Bft) S 180 ° 0 min 0,000 mm 0,0 UV-I 0 W/m² 5,2 °C 7,0 °C 3,2 km/h (1 Bft)
10.05.2019 02:09 7,1 °C 88 % 1007,6 hPa 0,0 mm 3,0 km/h (1 Bft) S 182 ° 0 min 0,000 mm 0,0 UV-I 0 W/m² 5,2 °C 7,1 °C 4,8 km/h (1 Bft)
10.05.2019 02:10 7,1 °C 88 % 1007,6 hPa 0,0 mm 0,0 km/h (0 Bft) S 182 ° 0 min 0,000 mm 0,0 UV-I 0 W/m² 5,2 °C 7,1 °C 0,0 km/h (0 Bft)
10.05.2019 02:11 7,2 °C 88 % 1007,7 hPa 0,0 mm 0,3 km/h (0 Bft) W 261 ° 0 min 0,000 mm 0,0 UV-I 0 W/m² 5,3 °C 7,2 °C 4,8 km/h (1 Bft)
10.05.2019 02:12 7,1 °C 88 % 1007,6 hPa 0,0 mm 2,7 km/h (1 Bft) W 273 ° 0 min 0,000 mm 0,0 UV-I 0 W/m² 5,2 °C 7,1 °C 4,8 km/h (1 Bft)
10.05.2019 02:13 7,1 °C 88 % 1007,7 hPa 0,0 mm 0,0 km/h (0 Bft) W 273 ° 0 min 0,000 mm 0,0 UV-I 0 W/m² 5,2 °C 7,1 °C 0,0 km/h (0 Bft)
10.05.2019 02:14 7,0 °C 88 % 1007,8 hPa 0,0 mm 0,0 km/h (0 Bft) W 273 ° 0 min 0,000 mm 0,0 UV-I 0 W/m² 5,2 °C 7,0 °C 0,0 km/h (0 Bft)
10.05.2019 02:15 7,0 °C 88 % 1007,7 hPa 0,0 mm 0,0 km/h (0 Bft) W 273 ° 0 min 0,000 mm 0,0 UV-I 0 W/m² 5,2 °C 7,0 °C 0,0 km/h (0 Bft)
10.05.2019 02:16 7,0 °C 88 % 1007,7 hPa 0,0 mm 0,0 km/h (0 Bft) W 273 ° 0 min 0,000 mm 0,0 UV-I 0 W/m² 5,2 °C 7,0 °C 0,0 km/h (0 Bft)
10.05.2019 02:17 7,0 °C 88 % 1007,7 hPa 0,0 mm 0,0 km/h (0 Bft) W 273 ° 0 min 0,000 mm 0,0 UV-I 0 W/m² 5,2 °C 7,0 °C 0,0 km/h (0 Bft)
10.05.2019 02:18 6,9 °C 88 % 1007,7 hPa 0,0 mm 0,0 km/h (0 Bft) W 273 ° 0 min 0,000 mm 0,0 UV-I 0 W/m² 5,1 °C 6,9 °C 0,0 km/h (0 Bft)
10.05.2019 02:19 6,9 °C 88 % 1007,7 hPa 0,0 mm 0,0 km/h (0 Bft) W 273 ° 0 min 0,000 mm 0,0 UV-I 0 W/m² 5,1 °C 6,9 °C 0,0 km/h (0 Bft)
10.05.2019 02:20 7,1 °C 88 % 1007,8 hPa 0,0 mm 0,0 km/h (0 Bft) W 273 ° 0 min 0,000 mm 0,0 UV-I 0 W/m² 5,2 °C 7,1 °C 0,0 km/h (0 Bft)
10.05.2019 02:21 7,1 °C 88 % 1007,8 hPa 0,0 mm 0,0 km/h (0 Bft) W 273 ° 0 min 0,000 mm 0,0 UV-I 0 W/m² 5,2 °C 7,1 °C 0,0 km/h (0 Bft)
10.05.2019 02:22 7,1 °C 88 % 1007,8 hPa 0,0 mm 0,1 km/h (0 Bft) W 271 ° 0 min 0,000 mm 0,0 UV-I 0 W/m² 5,2 °C 7,1 °C 3,2 km/h (1 Bft)
10.05.2019 02:23 7,1 °C 88 % 1007,8 hPa 0,0 mm 2,6 km/h (1 Bft) W 269 ° 0 min 0,000 mm 0,0 UV-I 0 W/m² 5,2 °C 7,1 °C 4,8 km/h (1 Bft)
10.05.2019 02:24 7,2 °C 88 % 1007,9 hPa 0,0 mm 0,7 km/h (0 Bft) W 269 ° 0 min 0,000 mm 0,0 UV-I 0 W/m² 5,3 °C 7,2 °C 3,2 km/h (1 Bft)
10.05.2019 02:25 7,2 °C 87 % 1007,9 hPa 0,0 mm 0,3 km/h (0 Bft) W 269 ° 0 min 0,000 mm 0,0 UV-I 0 W/m² 5,2 °C 7,2 °C 3,2 km/h (1 Bft)
10.05.2019 02:26 7,3 °C 86 % 1007,9 hPa 0,0 mm 0,0 km/h (0 Bft) W 269 ° 0 min 0,000 mm 0,0 UV-I 0 W/m² 5,1 °C 7,3 °C 0,0 km/h (0 Bft)
10.05.2019 02:27 7,4 °C 85 % 1007,9 hPa 0,0 mm 0,0 km/h (0 Bft) W 269 ° 0 min 0,000 mm 0,0 UV-I 0 W/m² 5,0 °C 7,4 °C 0,0 km/h (0 Bft)
10.05.2019 02:28 7,5 °C 85 % 1007,9 hPa 0,0 mm 0,0 km/h (0 Bft) W 269 ° 0 min 0,000 mm 0,0 UV-I 0 W/m² 5,1 °C 7,5 °C 0,0 km/h (0 Bft)
10.05.2019 02:29 7,6 °C 85 % 1007,9 hPa 0,0 mm 0,2 km/h (0 Bft) W 269 ° 0 min 0,000 mm 0,0 UV-I 0 W/m² 5,2 °C 7,6 °C 1,6 km/h (1 Bft)
10.05.2019 02:30 7,6 °C 85 % 1007,9 hPa 0,0 mm 3,2 km/h (1 Bft) W 265 ° 0 min 0,000 mm 0,0 UV-I 0 W/m² 5,2 °C 7,6 °C 4,8 km/h (1 Bft)
10.05.2019 02:31 7,5 °C 85 % 1007,9 hPa 0,0 mm 1,4 km/h (1 Bft) SW 224 ° 0 min 0,000 mm 0,0 UV-I 0 W/m² 5,1 °C 7,5 °C 4,8 km/h (1 Bft)
10.05.2019 02:32 7,5 °C 85 % 1007,9 hPa 0,0 mm 3,6 km/h (1 Bft) W-SW 251 ° 0 min 0,000 mm 0,0 UV-I 0 W/m² 5,1 °C 7,5 °C 6,4 km/h (2 Bft)
10.05.2019 02:33 7,5 °C 85 % 1007,8 hPa 0,0 mm 1,6 km/h (1 Bft) W-SW 251 ° 0 min 0,000 mm 0,0 UV-I 0 W/m² 5,1 °C 7,5 °C 3,2 km/h (1 Bft)
10.05.2019 02:34 7,6 °C 85 % 1007,9 hPa 0,0 mm 1,0 km/h (0 Bft) W-SW 250 ° 0 min 0,000 mm 0,0 UV-I 0 W/m² 5,2 °C 7,6 °C 3,2 km/h (1 Bft)
10.05.2019 02:35 7,6 °C 85 % 1007,9 hPa 0,0 mm 4,3 km/h (1 Bft) S 185 ° 0 min 0,000 mm 0,0 UV-I 0 W/m² 5,2 °C 7,6 °C 9,7 km/h (2 Bft)
10.05.2019 02:36 7,6 °C 84 % 1007,9 hPa 0,0 mm 2,8 km/h (1 Bft) S 179 ° 0 min 0,000 mm 0,0 UV-I 0 W/m² 5,1 °C 7,6 °C 8,0 km/h (2 Bft)
10.05.2019 02:37 7,7 °C 84 % 1007,9 hPa 0,0 mm 4,8 km/h (1 Bft) W 264 ° 0 min 0,000 mm 0,0 UV-I 0 W/m² 5,2 °C 7,2 °C 8,0 km/h (2 Bft)
10.05.2019 02:38 7,7 °C 83 % 1008,0 hPa 0,0 mm 5,2 km/h (1 Bft) S 182 ° 0 min 0,000 mm 0,0 UV-I 0 W/m² 5,0 °C 7,1 °C 9,7 km/h (2 Bft)
10.05.2019 02:39 7,8 °C 83 % 1008,0 hPa 0,0 mm 5,3 km/h (1 Bft) S-SW 192 ° 0 min 0,000 mm 0,0 UV-I 0 W/m² 5,1 °C 7,2 °C 14,5 km/h (3 Bft)
10.05.2019 02:40 7,8 °C 83 % 1008,0 hPa 0,0 mm 4,1 km/h (1 Bft) W 260 ° 0 min 0,000 mm 0,0 UV-I 0 W/m² 5,1 °C 7,8 °C 6,4 km/h (2 Bft)
10.05.2019 02:41 7,8 °C 83 % 1008,0 hPa 0,0 mm 4,4 km/h (1 Bft) SW 223 ° 0 min 0,000 mm 0,0 UV-I 0 W/m² 5,1 °C 7,8 °C 8,0 km/h (2 Bft)
10.05.2019 02:42 7,8 °C 82 % 1008,0 hPa 0,0 mm 3,7 km/h (1 Bft) S 184 ° 0 min 0,000 mm 0,0 UV-I 0 W/m² 4,9 °C 7,8 °C 8,0 km/h (2 Bft)
10.05.2019 02:43 7,8 °C 82 % 1008,0 hPa 0,0 mm 5,5 km/h (1 Bft) SW 219 ° 0 min 0,000 mm 0,0 UV-I 0 W/m² 4,9 °C 7,1 °C 9,7 km/h (2 Bft)
10.05.2019 02:44 7,9 °C 82 % 1008,0 hPa 0,0 mm 3,0 km/h (1 Bft) W 269 ° 0 min 0,000 mm 0,0 UV-I 0 W/m² 5,0 °C 7,9 °C 4,8 km/h (1 Bft)
10.05.2019 02:45 8,0 °C 81 % 1008,0 hPa 0,0 mm 4,6 km/h (1 Bft) SW 236 ° 0 min 0,000 mm 0,0 UV-I 0 W/m² 4,9 °C 7,6 °C 11,3 km/h (2 Bft)
10.05.2019 02:46 7,9 °C 82 % 1008,0 hPa 0,0 mm 9,7 km/h (2 Bft) S-SW 198 ° 0 min 0,000 mm 0,0 UV-I 0 W/m² 5,0 °C 6,2 °C 17,7 km/h (3 Bft)
10.05.2019 02:47 7,9 °C 81 % 1007,9 hPa 0,0 mm 4,8 km/h (1 Bft) S-SW 193 ° 0 min 0,000 mm 0,0 UV-I 0 W/m² 4,8 °C 7,4 °C 14,5 km/h (3 Bft)
10.05.2019 02:48 8,0 °C 81 % 1007,9 hPa 0,0 mm 4,0 km/h (1 Bft) S-SW 193 ° 0 min 0,000 mm 0,0 UV-I 0 W/m² 4,9 °C 8,0 °C 11,3 km/h (2 Bft)
10.05.2019 02:49 7,9 °C 81 % 1007,9 hPa 0,0 mm 4,1 km/h (1 Bft) SW 232 ° 0 min 0,000 mm 0,0 UV-I 0 W/m² 4,8 °C 7,9 °C 8,0 km/h (2 Bft)
10.05.2019 02:50 7,9 °C 81 % 1007,9 hPa 0,0 mm 2,1 km/h (1 Bft) W 259 ° 0 min 0,000 mm 0,0 UV-I 0 W/m² 4,8 °C 7,9 °C 6,4 km/h (2 Bft)
10.05.2019 02:51 8,0 °C 81 % 1007,9 hPa 0,0 mm 4,8 km/h (1 Bft) S 186 ° 0 min 0,000 mm 0,0 UV-I 0 W/m² 4,9 °C 7,6 °C 8,0 km/h (2 Bft)
10.05.2019 02:52 7,9 °C 81 % 1007,9 hPa 0,0 mm 4,2 km/h (1 Bft) W-SW 248 ° 0 min 0,000 mm 0,0 UV-I 0 W/m² 4,8 °C 7,9 °C 8,0 km/h (2 Bft)
10.05.2019 02:53 7,9 °C 81 % 1007,9 hPa 0,0 mm 5,0 km/h (1 Bft) W-SW 246 ° 0 min 0,000 mm 0,0 UV-I 0 W/m² 4,8 °C 7,4 °C 14,5 km/h (3 Bft)
10.05.2019 02:54 7,9 °C 81 % 1008,0 hPa 0,0 mm 3,4 km/h (1 Bft) W-NW 288 ° 0 min 0,000 mm 0,0 UV-I 0 W/m² 4,8 °C 7,9 °C 4,8 km/h (1 Bft)
10.05.2019 02:55 7,9 °C 81 % 1007,9 hPa 0,0 mm 4,9 km/h (1 Bft) W 259 ° 0 min 0,000 mm 0,0 UV-I 0 W/m² 4,8 °C 7,4 °C 6,4 km/h (2 Bft)
10.05.2019 02:56 7,9 °C 81 % 1007,9 hPa 0,0 mm 2,1 km/h (1 Bft) S-SW 205 ° 0 min 0,000 mm 0,0 UV-I 0 W/m² 4,8 °C 7,9 °C 4,8 km/h (1 Bft)
10.05.2019 02:57 7,9 °C 81 % 1007,9 hPa 0,0 mm 5,9 km/h (2 Bft) SW 216 ° 0 min 0,000 mm 0,0 UV-I 0 W/m² 4,8 °C 7,1 °C 11,3 km/h (2 Bft)
10.05.2019 02:58 7,9 °C 80 % 1007,9 hPa 0,0 mm 5,4 km/h (1 Bft) SW 234 ° 0 min 0,000 mm 0,0 UV-I 0 W/m² 4,7 °C 7,2 °C 8,0 km/h (2 Bft)
10.05.2019 02:59 7,9 °C 80 % 1007,9 hPa 0,0 mm 4,2 km/h (1 Bft) SW 235 ° 0 min 0,000 mm 0,0 UV-I 0 W/m² 4,7 °C 7,9 °C 11,3 km/h (2 Bft)
10.05.2019 03:00 7,9 °C 80 % 1007,9 hPa 0,0 mm 3,6 km/h (1 Bft) W-SW 248 ° 0 min 0,000 mm 0,0 UV-I 0 W/m² 4,7 °C 7,9 °C 4,8 km/h (1 Bft)
10.05.2019 03:01 7,9 °C 80 % 1007,9 hPa 0,0 mm 7,4 km/h (2 Bft) SW 236 ° 0 min 0,000 mm 0,0 UV-I 0 W/m² 4,7 °C 6,7 °C 11,3 km/h (2 Bft)
10.05.2019 03:02 7,9 °C 80 % 1007,9 hPa 0,0 mm 4,4 km/h (1 Bft) W 272 ° 0 min 0,000 mm 0,0 UV-I 0 W/m² 4,7 °C 7,9 °C 9,7 km/h (2 Bft)
10.05.2019 03:03 8,0 °C 80 % 1007,9 hPa 0,0 mm 6,0 km/h (2 Bft) W 271 ° 0 min 0,000 mm 0,0 UV-I 0 W/m² 4,8 °C 7,2 °C 9,7 km/h (2 Bft)
10.05.2019 03:04 7,9 °C 80 % 1007,9 hPa 0,0 mm 3,8 km/h (1 Bft) W-SW 257 ° 0 min 0,000 mm 0,0 UV-I 0 W/m² 4,7 °C 7,9 °C 11,3 km/h (2 Bft)
10.05.2019 03:05 8,0 °C 80 % 1007,9 hPa 0,0 mm 6,0 km/h (2 Bft) W-SW 254 ° 0 min 0,000 mm 0,0 UV-I 0 W/m² 4,8 °C 7,2 °C 8,0 km/h (2 Bft)
10.05.2019 03:06 7,9 °C 80 % 1007,9 hPa 0,0 mm 2,2 km/h (1 Bft) W-SW 252 ° 0 min 0,000 mm 0,0 UV-I 0 W/m² 4,7 °C 7,9 °C 6,4 km/h (2 Bft)
10.05.2019 03:07 7,9 °C 80 % 1007,9 hPa 0,0 mm 2,7 km/h (1 Bft) W-SW 251 ° 0 min 0,000 mm 0,0 UV-I 0 W/m² 4,7 °C 7,9 °C 6,4 km/h (2 Bft)
10.05.2019 03:08 7,9 °C 80 % 1008,0 hPa 0,0 mm 5,2 km/h (1 Bft) W-SW 254 ° 0 min 0,000 mm 0,0 UV-I 0 W/m² 4,7 °C 7,3 °C 9,7 km/h (2 Bft)
10.05.2019 03:09 7,9 °C 80 % 1008,0 hPa 0,0 mm 5,5 km/h (1 Bft) W 265 ° 0 min 0,000 mm 0,0 UV-I 0 W/m² 4,7 °C 7,2 °C 9,7 km/h (2 Bft)
10.05.2019 03:10 7,9 °C 81 % 1008,0 hPa 0,0 mm 4,6 km/h (1 Bft) W 263 ° 0 min 0,000 mm 0,0 UV-I 0 W/m² 4,8 °C 7,5 °C 6,4 km/h (2 Bft)
10.05.2019 03:11 7,8 °C 81 % 1008,0 hPa 0,0 mm 5,6 km/h (1 Bft) W-SW 247 ° 0 min 0,000 mm 0,0 UV-I 0 W/m² 4,7 °C 7,1 °C 9,7 km/h (2 Bft)
10.05.2019 03:12 7,8 °C 81 % 1008,0 hPa 0,0 mm 1,4 km/h (1 Bft) W-SW 246 ° 0 min 0,000 mm 0,0 UV-I 0 W/m² 4,7 °C 7,8 °C 3,2 km/h (1 Bft)
10.05.2019 03:13 7,8 °C 81 % 1008,0 hPa 0,0 mm 1,3 km/h (1 Bft) W-SW 245 ° 0 min 0,000 mm 0,0 UV-I 0 W/m² 4,7 °C 7,8 °C 3,2 km/h (1 Bft)
10.05.2019 03:14 7,7 °C 81 % 1008,0 hPa 0,0 mm 0,7 km/h (0 Bft) W-SW 243 ° 0 min 0,000 mm 0,0 UV-I 0 W/m² 4,7 °C 7,7 °C 4,8 km/h (1 Bft)
10.05.2019 03:15 7,7 °C 82 % 1008,0 hPa 0,0 mm 1,0 km/h (0 Bft) SW 221 ° 0 min 0,000 mm 0,0 UV-I 0 W/m² 4,8 °C 7,7 °C 3,2 km/h (1 Bft)
10.05.2019 03:16 7,7 °C 81 % 1008,0 hPa 0,0 mm 0,3 km/h (0 Bft) SW 221 ° 0 min 0,000 mm 0,0 UV-I 0 W/m² 4,7 °C 7,7 °C 1,6 km/h (1 Bft)
10.05.2019 03:17 7,6 °C 81 % 1008,0 hPa 0,0 mm 1,2 km/h (1 Bft) SW 215 ° 0 min 0,000 mm 0,0 UV-I 0 W/m² 4,6 °C 7,6 °C 3,2 km/h (1 Bft)
10.05.2019 03:18 7,7 °C 82 % 1008,0 hPa 0,0 mm 1,3 km/h (1 Bft) SW 216 ° 0 min 0,000 mm 0,0 UV-I 0 W/m² 4,8 °C 7,7 °C 3,2 km/h (1 Bft)
10.05.2019 03:19 7,6 °C 81 % 1008,0 hPa 0,0 mm 2,7 km/h (1 Bft) W-SW 257 ° 0 min 0,000 mm 0,0 UV-I 0 W/m² 4,6 °C 7,6 °C 6,4 km/h (2 Bft)
10.05.2019 03:20 7,7 °C 81 % 1008,0 hPa 0,0 mm 2,7 km/h (1 Bft) S 170 ° 0 min 0,000 mm 0,0 UV-I 0 W/m² 4,7 °C 7,7 °C 6,4 km/h (2 Bft)
10.05.2019 03:21 7,7 °C 81 % 1008,1 hPa 0,0 mm 0,0 km/h (0 Bft) S 170 ° 0 min 0,000 mm 0,0 UV-I 0 W/m² 4,7 °C 7,7 °C 0,0 km/h (0 Bft)
10.05.2019 03:22 7,8 °C 80 % 1008,1 hPa 0,0 mm 0,3 km/h (0 Bft) S 170 ° 0 min 0,000 mm 0,0 UV-I 0 W/m² 4,6 °C 7,8 °C 1,6 km/h (1 Bft)
10.05.2019 03:23 7,8 °C 80 % 1008,0 hPa 0,0 mm 0,0 km/h (0 Bft) S 170 ° 0 min 0,000 mm 0,0 UV-I 0 W/m² 4,6 °C 7,8 °C 0,0 km/h (0 Bft)
10.05.2019 03:24 7,8 °C 80 % 1008,0 hPa 0,0 mm 0,9 km/h (0 Bft) W-SW 240 ° 0 min 0,000 mm 0,0 UV-I 0 W/m² 4,6 °C 7,8 °C 3,2 km/h (1 Bft)
10.05.2019 03:25 7,8 °C 81 % 1008,1 hPa 0,0 mm 1,5 km/h (1 Bft) W-SW 241 ° 0 min 0,000 mm 0,0 UV-I 0 W/m² 4,7 °C 7,8 °C 3,2 km/h (1 Bft)
10.05.2019 03:26 7,7 °C 81 % 1008,0 hPa 0,0 mm 0,6 km/h (0 Bft) W-SW 238 ° 0 min 0,000 mm 0,0 UV-I 0 W/m² 4,7 °C 7,7 °C 3,2 km/h (1 Bft)
10.05.2019 03:27 7,7 °C 82 % 1008,0 hPa 0,0 mm 0,0 km/h (0 Bft) SW 236 ° 0 min 0,000 mm 0,0 UV-I 0 W/m² 4,8 °C 7,7 °C 0,0 km/h (0 Bft)
10.05.2019 03:28 7,6 °C 82 % 1008,0 hPa 0,0 mm 0,0 km/h (0 Bft) SW 236 ° 0 min 0,000 mm 0,0 UV-I 0 W/m² 4,7 °C 7,6 °C 0,0 km/h (0 Bft)
10.05.2019 03:29 7,6 °C 82 % 1008,1 hPa 0,0 mm 0,0 km/h (0 Bft) W-SW 238 ° 0 min 0,000 mm 0,0 UV-I 0 W/m² 4,7 °C 7,6 °C 0,0 km/h (0 Bft)
10.05.2019 03:30 7,6 °C 81 % 1008,1 hPa 0,0 mm 3,2 km/h (1 Bft) W-SW 244 ° 0 min 0,000 mm 0,0 UV-I 0 W/m² 4,6 °C 7,6 °C 4,8 km/h (1 Bft)
10.05.2019 03:31 7,6 °C 81 % 1008,0 hPa 0,0 mm 2,3 km/h (1 Bft) W-SW 242 ° 0 min 0,000 mm 0,0 UV-I 0 W/m² 4,6 °C 7,6 °C 3,2 km/h (1 Bft)
10.05.2019 03:32 7,7 °C 81 % 1008,1 hPa 0,0 mm 3,2 km/h (1 Bft) W-SW 243 ° 0 min 0,000 mm 0,0 UV-I 0 W/m² 4,7 °C 7,7 °C 6,4 km/h (2 Bft)
10.05.2019 03:33 7,7 °C 81 % 1008,1 hPa 0,0 mm 2,1 km/h (1 Bft) SW 234 ° 0 min 0,000 mm 0,0 UV-I 0 W/m² 4,7 °C 7,7 °C 4,8 km/h (1 Bft)
10.05.2019 03:34 7,7 °C 81 % 1008,0 hPa 0,0 mm 0,0 km/h (0 Bft) SW 234 ° 0 min 0,000 mm 0,0 UV-I 0 W/m² 4,7 °C 7,7 °C 0,0 km/h (0 Bft)
10.05.2019 03:35 7,7 °C 81 % 1008,0 hPa 0,0 mm 1,3 km/h (1 Bft) W-SW 245 ° 0 min 0,000 mm 0,0 UV-I 0 W/m² 4,7 °C 7,7 °C 6,4 km/h (2 Bft)
10.05.2019 03:36 7,6 °C 81 % 1008,0 hPa 0,0 mm 4,8 km/h (1 Bft) W 263 ° 0 min 0,000 mm 0,0 UV-I 0 W/m² 4,6 °C 7,1 °C 9,7 km/h (2 Bft)
10.05.2019 03:37 7,6 °C 81 % 1008,1 hPa 0,0 mm 3,2 km/h (1 Bft) S-SW 207 ° 0 min 0,000 mm 0,0 UV-I 0 W/m² 4,6 °C 7,6 °C 8,0 km/h (2 Bft)
10.05.2019 03:38 7,6 °C 81 % 1008,0 hPa 0,0 mm 2,4 km/h (1 Bft) S-SW 211 ° 0 min 0,000 mm 0,0 UV-I 0 W/m² 4,6 °C 7,6 °C 4,8 km/h (1 Bft)
10.05.2019 03:39 7,6 °C 81 % 1008,0 hPa 0,0 mm 6,6 km/h (2 Bft) W-SW 254 ° 0 min 0,000 mm 0,0 UV-I 0 W/m² 4,6 °C 6,5 °C 12,9 km/h (3 Bft)
10.05.2019 03:40 7,6 °C 80 % 1008,1 hPa 0,0 mm 4,0 km/h (1 Bft) W 267 ° 0 min 0,000 mm 0,0 UV-I 0 W/m² 4,4 °C 7,6 °C 6,4 km/h (2 Bft)
10.05.2019 03:41 7,6 °C 80 % 1008,1 hPa 0,0 mm 4,8 km/h (1 Bft) W-SW 250 ° 0 min 0,000 mm 0,0 UV-I 0 W/m² 4,4 °C 7,1 °C 6,4 km/h (2 Bft)
10.05.2019 03:42 7,7 °C 80 % 1008,1 hPa 0,0 mm 4,0 km/h (1 Bft) W 277 ° 0 min 0,000 mm 0,0 UV-I 0 W/m² 4,5 °C 7,7 °C 4,8 km/h (1 Bft)
10.05.2019 03:43 7,6 °C 80 % 1008,1 hPa 0,0 mm 2,9 km/h (1 Bft) W-SW 253 ° 0 min 0,000 mm 0,0 UV-I 0 W/m² 4,4 °C 7,6 °C 4,8 km/h (1 Bft)
10.05.2019 03:44 7,6 °C 80 % 1008,1 hPa 0,0 mm 3,3 km/h (1 Bft) W-SW 254 ° 0 min 0,000 mm 0,0 UV-I 0 W/m² 4,4 °C 7,6 °C 4,8 km/h (1 Bft)
10.05.2019 03:45 7,6 °C 80 % 1008,1 hPa 0,0 mm 7,7 km/h (2 Bft) W-SW 250 ° 0 min 0,000 mm 0,0 UV-I 0 W/m² 4,4 °C 6,3 °C 14,5 km/h (3 Bft)
10.05.2019 03:46 7,5 °C 80 % 1008,1 hPa 0,0 mm 3,7 km/h (1 Bft) W-SW 253 ° 0 min 0,000 mm 0,0 UV-I 0 W/m² 4,3 °C 7,5 °C 6,4 km/h (2 Bft)
10.05.2019 03:47 7,4 °C 80 % 1008,1 hPa 0,0 mm 2,5 km/h (1 Bft) W 265 ° 0 min 0,000 mm 0,0 UV-I 0 W/m² 4,2 °C 7,4 °C 4,8 km/h (1 Bft)
10.05.2019 03:48 7,4 °C 81 % 1008,1 hPa 0,0 mm 0,1 km/h (0 Bft) W 265 ° 0 min 0,000 mm 0,0 UV-I 0 W/m² 4,4 °C 7,4 °C 1,6 km/h (1 Bft)
10.05.2019 03:49 7,4 °C 81 % 1008,2 hPa 0,0 mm 2,1 km/h (1 Bft) W 268 ° 0 min 0,000 mm 0,0 UV-I 0 W/m² 4,4 °C 7,4 °C 3,2 km/h (1 Bft)
10.05.2019 03:50 7,4 °C 81 % 1008,2 hPa 0,0 mm 0,2 km/h (0 Bft) W 268 ° 0 min 0,000 mm 0,0 UV-I 0 W/m² 4,4 °C 7,4 °C 1,6 km/h (1 Bft)
10.05.2019 03:51 7,3 °C 81 % 1008,2 hPa 0,0 mm 5,6 km/h (1 Bft) W-SW 248 ° 0 min 0,000 mm 0,0 UV-I 0 W/m² 4,3 °C 6,5 °C 12,9 km/h (3 Bft)
10.05.2019 03:52 7,3 °C 81 % 1008,2 hPa 0,0 mm 8,5 km/h (2 Bft) S-SW 207 ° 0 min 0,000 mm 0,0 UV-I 0 W/m² 4,3 °C 5,7 °C 12,9 km/h (3 Bft)
10.05.2019 03:53 7,3 °C 81 % 1008,2 hPa 0,0 mm 6,4 km/h (2 Bft) W 261 ° 0 min 0,000 mm 0,0 UV-I 0 W/m² 4,3 °C 6,3 °C 12,9 km/h (3 Bft)
10.05.2019 03:54 7,3 °C 81 % 1008,2 hPa 0,0 mm 6,4 km/h (2 Bft) SW 219 ° 0 min 0,000 mm 0,0 UV-I 0 W/m² 4,3 °C 6,3 °C 12,9 km/h (3 Bft)
10.05.2019 03:55 7,3 °C 81 % 1008,2 hPa 0,0 mm 3,9 km/h (1 Bft) S-SW 196 ° 0 min 0,000 mm 0,0 UV-I 0 W/m² 4,3 °C 7,3 °C 6,4 km/h (2 Bft)
10.05.2019 03:56 7,3 °C 81 % 1008,2 hPa 0,0 mm 3,5 km/h (1 Bft) W 276 ° 0 min 0,000 mm 0,0 UV-I 0 W/m² 4,3 °C 7,3 °C 6,4 km/h (2 Bft)
10.05.2019 03:57 7,4 °C 81 % 1008,3 hPa 0,0 mm 4,2 km/h (1 Bft) W-SW 254 ° 0 min 0,000 mm 0,0 UV-I 0 W/m² 4,4 °C 7,4 °C 9,7 km/h (2 Bft)
10.05.2019 03:58 7,4 °C 81 % 1008,3 hPa 0,0 mm 6,9 km/h (2 Bft) W-SW 243 ° 0 min 0,000 mm 0,0 UV-I 0 W/m² 4,4 °C 6,2 °C 12,9 km/h (3 Bft)
10.05.2019 03:59 7,4 °C 81 % 1008,3 hPa 0,0 mm 4,4 km/h (1 Bft) W-SW 248 ° 0 min 0,000 mm 0,0 UV-I 0 W/m² 4,4 °C 7,4 °C 6,4 km/h (2 Bft)
10.05.2019 04:00 7,4 °C 81 % 1008,3 hPa 0,0 mm 5,9 km/h (2 Bft) W 260 ° 0 min 0,025 mm 0,0 UV-I 0 W/m² 4,4 °C 6,5 °C 11,3 km/h (2 Bft)
10.05.2019 04:01 7,4 °C 81 % 1008,2 hPa 0,0 mm 3,2 km/h (1 Bft) W-SW 257 ° 0 min 0,000 mm 0,0 UV-I 0 W/m² 4,4 °C 7,4 °C 4,8 km/h (1 Bft)
10.05.2019 04:02 7,4 °C 81 % 1008,2 hPa 0,0 mm 2,2 km/h (1 Bft) SW 222 ° 0 min 0,000 mm 0,0 UV-I 0 W/m² 4,4 °C 7,4 °C 4,8 km/h (1 Bft)
10.05.2019 04:03 7,4 °C 80 % 1008,2 hPa 0,0 mm 3,9 km/h (1 Bft) SW 228 ° 0 min 0,000 mm 0,0 UV-I 0 W/m² 4,2 °C 7,4 °C 6,4 km/h (2 Bft)
10.05.2019 04:04 7,4 °C 80 % 1008,1 hPa 0,0 mm 3,6 km/h (1 Bft) SW 226 ° 0 min 0,000 mm 0,0 UV-I 0 W/m² 4,2 °C 7,4 °C 6,4 km/h (2 Bft)
10.05.2019 04:05 7,4 °C 80 % 1008,1 hPa 0,0 mm 2,9 km/h (1 Bft) S-SW 195 ° 0 min 0,000 mm 0,0 UV-I 0 W/m² 4,2 °C 7,4 °C 4,8 km/h (1 Bft)
10.05.2019 04:06 7,5 °C 80 % 1008,1 hPa 0,0 mm 3,6 km/h (1 Bft) S-SW 207 ° 0 min 0,000 mm 0,0 UV-I 0 W/m² 4,3 °C 7,5 °C 4,8 km/h (1 Bft)
10.05.2019 04:07 7,5 °C 80 % 1008,2 hPa 0,0 mm 6,0 km/h (2 Bft) SW 234 ° 0 min 0,000 mm 0,0 UV-I 0 W/m² 4,3 °C 6,6 °C 11,3 km/h (2 Bft)
10.05.2019 04:08 7,6 °C 79 % 1008,2 hPa 0,0 mm 3,6 km/h (1 Bft) S-SW 208 ° 0 min 0,000 mm 0,0 UV-I 0 W/m² 4,2 °C 7,6 °C 6,4 km/h (2 Bft)
10.05.2019 04:09 7,6 °C 79 % 1008,1 hPa 0,0 mm 2,1 km/h (1 Bft) SW 216 ° 0 min 0,000 mm 0,0 UV-I 0 W/m² 4,2 °C 7,6 °C 4,8 km/h (1 Bft)
10.05.2019 04:10 7,6 °C 79 % 1008,1 hPa 0,0 mm 2,1 km/h (1 Bft) SW 214 ° 0 min 0,000 mm 0,0 UV-I 0 W/m² 4,2 °C 7,6 °C 4,8 km/h (1 Bft)
10.05.2019 04:11 7,6 °C 79 % 1008,1 hPa 0,0 mm 1,2 km/h (1 Bft) SW 214 ° 0 min 0,000 mm 0,0 UV-I 0 W/m² 4,2 °C 7,6 °C 3,2 km/h (1 Bft)
10.05.2019 04:12 7,6 °C 79 % 1008,2 hPa 0,0 mm 4,1 km/h (1 Bft) S-SW 198 ° 0 min 0,000 mm 0,0 UV-I 0 W/m² 4,2 °C 7,6 °C 8,0 km/h (2 Bft)
10.05.2019 04:13 7,6 °C 79 % 1008,2 hPa 0,0 mm 6,3 km/h (2 Bft) S-SO 167 ° 0 min 0,000 mm 0,0 UV-I 0 W/m² 4,2 °C 6,6 °C 12,9 km/h (3 Bft)
10.05.2019 04:14 7,6 °C 79 % 1008,2 hPa 0,0 mm 6,8 km/h (2 Bft) SW 217 ° 0 min 0,000 mm 0,0 UV-I 0 W/m² 4,2 °C 6,5 °C 9,7 km/h (2 Bft)
10.05.2019 04:15 7,6 °C 79 % 1008,2 hPa 0,0 mm 3,0 km/h (1 Bft) S-SW 198 ° 0 min 0,000 mm 0,0 UV-I 0 W/m² 4,2 °C 7,6 °C 6,4 km/h (2 Bft)
10.05.2019 04:16 7,6 °C 79 % 1008,2 hPa 0,0 mm 5,5 km/h (1 Bft) S 188 ° 0 min 0,000 mm 0,0 UV-I 0 W/m² 4,2 °C 6,9 °C 9,7 km/h (2 Bft)
10.05.2019 04:17 7,6 °C 79 % 1008,1 hPa 0,0 mm 4,8 km/h (1 Bft) S-SW 209 ° 0 min 0,000 mm 0,0 UV-I 0 W/m² 4,2 °C 7,1 °C 8,0 km/h (2 Bft)
10.05.2019 04:18 7,6 °C 79 % 1008,2 hPa 0,0 mm 1,3 km/h (1 Bft) S-SW 208 ° 0 min 0,000 mm 0,0 UV-I 0 W/m² 4,2 °C 7,6 °C 3,2 km/h (1 Bft)
10.05.2019 04:19 7,6 °C 79 % 1008,1 hPa 0,0 mm 5,6 km/h (1 Bft) S 184 ° 0 min 0,000 mm 0,0 UV-I 0 W/m² 4,2 °C 6,8 °C 9,7 km/h (2 Bft)
10.05.2019 04:20 7,6 °C 79 % 1008,1 hPa 0,0 mm 5,3 km/h (1 Bft) S 188 ° 0 min 0,000 mm 0,0 UV-I 0 W/m² 4,2 °C 6,9 °C 8,0 km/h (2 Bft)
10.05.2019 04:21 7,7 °C 78 % 1008,1 hPa 0,0 mm 3,5 km/h (1 Bft) S-SW 199 ° 0 min 0,000 mm 0,0 UV-I 0 W/m² 4,1 °C 7,7 °C 6,4 km/h (2 Bft)
10.05.2019 04:22 7,6 °C 78 % 1008,1 hPa 0,0 mm 3,6 km/h (1 Bft) S-SW 198 ° 0 min 0,000 mm 0,0 UV-I 0 W/m² 4,0 °C 7,6 °C 8,0 km/h (2 Bft)
10.05.2019 04:23 7,7 °C 78 % 1008,1 hPa 0,0 mm 6,8 km/h (2 Bft) S-SW 195 ° 0 min 0,000 mm 0,0 UV-I 0 W/m² 4,1 °C 6,6 °C 8,0 km/h (2 Bft)
10.05.2019 04:24 7,7 °C 78 % 1008,1 hPa 0,0 mm 4,9 km/h (1 Bft) S-SW 193 ° 0 min 0,000 mm 0,0 UV-I 0 W/m² 4,1 °C 7,2 °C 9,7 km/h (2 Bft)
10.05.2019 04:25 7,7 °C 78 % 1008,1 hPa 0,0 mm 4,8 km/h (1 Bft) W-SW 239 ° 0 min 0,000 mm 0,0 UV-I 0 W/m² 4,1 °C 7,2 °C 8,0 km/h (2 Bft)
10.05.2019 04:26 7,7 °C 78 % 1008,1 hPa 0,0 mm 4,4 km/h (1 Bft) S 187 ° 0 min 0,000 mm 0,0 UV-I 0 W/m² 4,1 °C 7,7 °C 6,4 km/h (2 Bft)
10.05.2019 04:27 7,7 °C 78 % 1008,1 hPa 0,0 mm 1,6 km/h (1 Bft) SW 217 ° 0 min 0,000 mm 0,0 UV-I 0 W/m² 4,1 °C 7,7 °C 4,8 km/h (1 Bft)
10.05.2019 04:28 7,7 °C 78 % 1008,1 hPa 0,0 mm 6,0 km/h (2 Bft) S 182 ° 0 min 0,000 mm 0,0 UV-I 0 W/m² 4,1 °C 6,8 °C 9,7 km/h (2 Bft)
10.05.2019 04:29 7,7 °C 78 % 1008,1 hPa 0,0 mm 6,8 km/h (2 Bft) S-SW 209 ° 0 min 0,000 mm 0,0 UV-I 0 W/m² 4,1 °C 6,6 °C 11,3 km/h (2 Bft)
10.05.2019 04:30 7,7 °C 78 % 1008,1 hPa 0,0 mm 4,6 km/h (1 Bft) SW 220 ° 0 min 0,000 mm 0,0 UV-I 0 W/m² 4,1 °C 7,3 °C 6,4 km/h (2 Bft)
10.05.2019 04:31 7,7 °C 78 % 1008,1 hPa 0,0 mm 3,8 km/h (1 Bft) S 191 ° 0 min 0,000 mm 0,0 UV-I 0 W/m² 4,1 °C 7,7 °C 6,4 km/h (2 Bft)
10.05.2019 04:32 7,7 °C 78 % 1008,1 hPa 0,0 mm 3,2 km/h (1 Bft) W-SW 257 ° 0 min 0,000 mm 0,0 UV-I 0 W/m² 4,1 °C 7,7 °C 4,8 km/h (1 Bft)
10.05.2019 04:33 7,7 °C 78 % 1008,1 hPa 0,0 mm 3,8 km/h (1 Bft) S-SW 211 ° 0 min 0,000 mm 0,0 UV-I 0 W/m² 4,1 °C 7,7 °C 9,7 km/h (2 Bft)
10.05.2019 04:34 7,7 °C 78 % 1008,1 hPa 0,0 mm 2,6 km/h (1 Bft) S-SW 211 ° 0 min 0,000 mm 0,0 UV-I 0 W/m² 4,1 °C 7,7 °C 4,8 km/h (1 Bft)
10.05.2019 04:35 7,7 °C 78 % 1008,1 hPa 0,0 mm 2,1 km/h (1 Bft) S 189 ° 0 min 0,000 mm 0,0 UV-I 0 W/m² 4,1 °C 7,7 °C 4,8 km/h (1 Bft)
10.05.2019 04:36 7,7 °C 78 % 1008,1 hPa 0,0 mm 3,6 km/h (1 Bft) S-SW 211 ° 0 min 0,000 mm 0,0 UV-I 0 W/m² 4,1 °C 7,7 °C 4,8 km/h (1 Bft)
10.05.2019 04:37 7,7 °C 78 % 1008,1 hPa 0,0 mm 1,1 km/h (1 Bft) S-SW 211 ° 0 min 0,000 mm 0,0 UV-I 0 W/m² 4,1 °C 7,7 °C 4,8 km/h (1 Bft)
10.05.2019 04:38 7,6 °C 78 % 1008,1 hPa 0,0 mm 1,1 km/h (1 Bft) S-SW 207 ° 0 min 0,000 mm 0,0 UV-I 0 W/m² 4,0 °C 7,6 °C 3,2 km/h (1 Bft)
10.05.2019 04:39 7,5 °C 78 % 1008,1 hPa 0,0 mm 3,5 km/h (1 Bft) S-SW 200 ° 0 min 0,000 mm 0,0 UV-I 0 W/m² 3,9 °C 7,5 °C 4,8 km/h (1 Bft)
10.05.2019 04:40 7,4 °C 79 % 1008,1 hPa 0,0 mm 3,1 km/h (1 Bft) S-SW 204 ° 0 min 0,000 mm 0,0 UV-I 0 W/m² 4,0 °C 7,4 °C 4,8 km/h (1 Bft)
10.05.2019 04:41 7,3 °C 79 % 1008,2 hPa 0,0 mm 3,7 km/h (1 Bft) S-SW 198 ° 0 min 0,000 mm 0,0 UV-I 0 W/m² 3,9 °C 7,3 °C 4,8 km/h (1 Bft)
10.05.2019 04:42 7,2 °C 80 % 1008,2 hPa 0,0 mm 4,6 km/h (1 Bft) S-SW 199 ° 0 min 0,000 mm 0,0 UV-I 0 W/m² 4,0 °C 6,7 °C 6,4 km/h (2 Bft)
10.05.2019 04:43 7,2 °C 80 % 1008,1 hPa 0,0 mm 2,7 km/h (1 Bft) S-SW 203 ° 0 min 0,000 mm 0,0 UV-I 0 W/m² 4,0 °C 7,2 °C 4,8 km/h (1 Bft)
10.05.2019 04:44 7,1 °C 80 % 1008,1 hPa 0,0 mm 3,8 km/h (1 Bft) S-SW 197 ° 0 min 0,000 mm 0,0 UV-I 0 W/m² 3,9 °C 7,1 °C 6,4 km/h (2 Bft)
10.05.2019 04:45 6,9 °C 81 % 1008,1 hPa 0,0 mm 3,9 km/h (1 Bft) S-SW 200 ° 0 min 0,000 mm 0,0 UV-I 0 W/m² 3,9 °C 6,9 °C 6,4 km/h (2 Bft)
10.05.2019 04:46 6,9 °C 81 % 1008,1 hPa 0,0 mm 0,0 km/h (0 Bft) S-SW 200 ° 0 min 0,000 mm 0,0 UV-I 0 W/m² 3,9 °C 6,9 °C 0,0 km/h (0 Bft)
10.05.2019 04:47 6,9 °C 82 % 1008,1 hPa 0,0 mm 0,0 km/h (0 Bft) S-SW 200 ° 0 min 0,000 mm 0,0 UV-I 0 W/m² 4,0 °C 6,9 °C 0,0 km/h (0 Bft)
10.05.2019 04:48 6,9 °C 82 % 1008,1 hPa 0,0 mm 0,5 km/h (0 Bft) S-SW 200 ° 0 min 0,000 mm 0,0 UV-I 0 W/m² 4,0 °C 6,9 °C 1,6 km/h (1 Bft)
10.05.2019 04:49 6,8 °C 83 % 1008,0 hPa 0,0 mm 0,0 km/h (0 Bft) S-SW 200 ° 0 min 0,000 mm 0,0 UV-I 0 W/m² 4,1 °C 6,8 °C 0,0 km/h (0 Bft)
10.05.2019 04:50 6,8 °C 83 % 1008,0 hPa 0,0 mm 0,0 km/h (0 Bft) S-SW 200 ° 0 min 0,000 mm 0,0 UV-I 0 W/m² 4,1 °C 6,8 °C 0,0 km/h (0 Bft)
10.05.2019 04:51 6,8 °C 83 % 1008,0 hPa 0,0 mm 0,0 km/h (0 Bft) S-SW 200 ° 0 min 0,000 mm 0,0 UV-I 0 W/m² 4,1 °C 6,8 °C 0,0 km/h (0 Bft)
10.05.2019 04:52 6,8 °C 84 % 1008,0 hPa 0,0 mm 0,0 km/h (0 Bft) S-SW 200 ° 0 min 0,000 mm 0,0 UV-I 0 W/m² 4,3 °C 6,8 °C 0,0 km/h (0 Bft)
10.05.2019 04:53 6,7 °C 84 % 1008,1 hPa 0,0 mm 1,5 km/h (1 Bft) S-SW 200 ° 0 min 0,000 mm 0,0 UV-I 0 W/m² 4,2 °C 6,7 °C 3,2 km/h (1 Bft)
10.05.2019 04:54 6,6 °C 84 % 1008,1 hPa 0,0 mm 0,4 km/h (0 Bft) S-SW 200 ° 0 min 0,000 mm 0,0 UV-I 0 W/m² 4,1 °C 6,6 °C 1,6 km/h (1 Bft)
10.05.2019 04:55 6,6 °C 84 % 1008,1 hPa 0,0 mm 1,1 km/h (1 Bft) SW 214 ° 0 min 0,000 mm 0,0 UV-I 0 W/m² 4,1 °C 6,6 °C 3,2 km/h (1 Bft)
10.05.2019 04:56 6,6 °C 84 % 1008,1 hPa 0,0 mm 3,5 km/h (1 Bft) S-SW 198 ° 0 min 0,000 mm 0,0 UV-I 0 W/m² 4,1 °C 6,6 °C 6,4 km/h (2 Bft)
10.05.2019 04:57 6,7 °C 84 % 1008,1 hPa 0,0 mm 1,0 km/h (0 Bft) S-SW 198 ° 0 min 0,000 mm 0,0 UV-I 0 W/m² 4,2 °C 6,7 °C 3,2 km/h (1 Bft)
10.05.2019 04:58 6,7 °C 84 % 1008,1 hPa 0,0 mm 0,1 km/h (0 Bft) S-SW 198 ° 0 min 0,000 mm 0,0 UV-I 0 W/m² 4,2 °C 6,7 °C 1,6 km/h (1 Bft)
10.05.2019 04:59 6,7 °C 84 % 1008,1 hPa 0,0 mm 0,0 km/h (0 Bft) S-SW 198 ° 0 min 0,000 mm 0,0 UV-I 0 W/m² 4,2 °C 6,7 °C 0,0 km/h (0 Bft)
10.05.2019 05:00 6,7 °C 84 % 1008,1 hPa 0,0 mm 0,6 km/h (0 Bft) S-SW 198 ° 0 min 0,026 mm 0,0 UV-I 0 W/m² 4,2 °C 6,7 °C 3,2 km/h (1 Bft)
10.05.2019 05:01 6,7 °C 84 % 1008,1 hPa 0,0 mm 0,0 km/h (0 Bft) S-SW 198 ° 0 min 0,000 mm 0,0 UV-I 0 W/m² 4,2 °C 6,7 °C 0,0 km/h (0 Bft)
10.05.2019 05:02 6,7 °C 84 % 1008,1 hPa 0,0 mm 0,0 km/h (0 Bft) S-SW 198 ° 0 min 0,000 mm 0,0 UV-I 0 W/m² 4,2 °C 6,7 °C 0,0 km/h (0 Bft)
10.05.2019 05:04 6,6 °C 85 % 1008,0 hPa 0,0 mm 0,1 km/h (0 Bft) S 188 ° 0 min 0,000 mm 0,0 UV-I 0 W/m² 4,3 °C 6,6 °C 1,6 km/h (1 Bft)
10.05.2019 05:05 6,6 °C 85 % 1008,0 hPa 0,0 mm 0,4 km/h (0 Bft) S 188 ° 0 min 0,000 mm 0,0 UV-I 0 W/m² 4,3 °C 6,6 °C 1,6 km/h (1 Bft)
10.05.2019 05:06 6,6 °C 85 % 1008,0 hPa 0,0 mm 0,0 km/h (0 Bft) S 188 ° 0 min 0,000 mm 0,0 UV-I 0 W/m² 4,3 °C 6,6 °C 0,0 km/h (0 Bft)
10.05.2019 05:07 6,6 °C 85 % 1008,1 hPa 0,0 mm 0,0 km/h (0 Bft) S 188 ° 0 min 0,000 mm 0,0 UV-I 0 W/m² 4,3 °C 6,6 °C 0,0 km/h (0 Bft)
10.05.2019 05:08 6,6 °C 85 % 1008,0 hPa 0,0 mm 0,0 km/h (0 Bft) S 188 ° 0 min 0,000 mm 0,0 UV-I 0 W/m² 4,3 °C 6,6 °C 0,0 km/h (0 Bft)
10.05.2019 05:09 6,6 °C 85 % 1008,0 hPa 0,0 mm 0,0 km/h (0 Bft) S 188 ° 0 min 0,000 mm 0,0 UV-I 0 W/m² 4,3 °C 6,6 °C 0,0 km/h (0 Bft)
10.05.2019 05:10 6,6 °C 85 % 1008,0 hPa 0,0 mm 0,0 km/h (0 Bft) S 188 ° 0 min 0,000 mm 0,0 UV-I 0 W/m² 4,3 °C 6,6 °C 0,0 km/h (0 Bft)
10.05.2019 05:11 6,6 °C 85 % 1008,1 hPa 0,0 mm 0,0 km/h (0 Bft) S 188 ° 0 min 0,000 mm 0,0 UV-I 0 W/m² 4,3 °C 6,6 °C 0,0 km/h (0 Bft)
10.05.2019 05:12 6,5 °C 85 % 1008,1 hPa 0,0 mm 0,0 km/h (0 Bft) S 188 ° 0 min 0,000 mm 0,0 UV-I 0 W/m² 4,2 °C 6,5 °C 0,0 km/h (0 Bft)
10.05.2019 05:13 6,4 °C 85 % 1008,1 hPa 0,0 mm 0,0 km/h (0 Bft) S 188 ° 0 min 0,000 mm 0,0 UV-I 0 W/m² 4,1 °C 6,4 °C 0,0 km/h (0 Bft)
10.05.2019 05:14 6,4 °C 85 % 1008,1 hPa 0,0 mm 0,0 km/h (0 Bft) S 188 ° 0 min 0,000 mm 0,0 UV-I 0 W/m² 4,1 °C 6,4 °C 0,0 km/h (0 Bft)
10.05.2019 05:15 6,3 °C 85 % 1008,1 hPa 0,0 mm 0,0 km/h (0 Bft) S 188 ° 0 min 0,000 mm 0,0 UV-I 0 W/m² 4,0 °C 6,3 °C 0,0 km/h (0 Bft)
10.05.2019 05:16 6,1 °C 85 % 1008,1 hPa 0,0 mm 0,0 km/h (0 Bft) S 188 ° 0 min 0,000 mm 0,0 UV-I 0 W/m² 3,8 °C 6,1 °C 0,0 km/h (0 Bft)
10.05.2019 05:17 6,0 °C 86 % 1008,2 hPa 0,0 mm 0,0 km/h (0 Bft) S 188 ° 0 min 0,000 mm 0,0 UV-I 0 W/m² 3,8 °C 6,0 °C 0,0 km/h (0 Bft)
10.05.2019 05:18 5,9 °C 87 % 1008,2 hPa 0,0 mm 0,0 km/h (0 Bft) S 188 ° 0 min 0,000 mm 0,0 UV-I 0 W/m² 3,9 °C 5,9 °C 0,0 km/h (0 Bft)
10.05.2019 05:19 5,8 °C 87 % 1008,2 hPa 0,0 mm 0,0 km/h (0 Bft) S 188 ° 0 min 0,000 mm 0,0 UV-I 0 W/m² 3,8 °C 5,8 °C 0,0 km/h (0 Bft)
10.05.2019 05:20 5,8 °C 87 % 1008,2 hPa 0,0 mm 0,0 km/h (0 Bft) S 188 ° 0 min 0,000 mm 0,0 UV-I 0 W/m² 3,8 °C 5,8 °C 0,0 km/h (0 Bft)
10.05.2019 05:21 5,7 °C 87 % 1008,2 hPa 0,0 mm 0,0 km/h (0 Bft) S 188 ° 0 min 0,000 mm 0,0 UV-I 0 W/m² 3,7 °C 5,7 °C 0,0 km/h (0 Bft)
10.05.2019 05:22 5,7 °C 87 % 1008,3 hPa 0,0 mm 0,0 km/h (0 Bft) S 188 ° 0 min 0,000 mm 0,0 UV-I 0 W/m² 3,7 °C 5,7 °C 0,0 km/h (0 Bft)
10.05.2019 05:23 5,6 °C 87 % 1008,3 hPa 0,0 mm 0,0 km/h (0 Bft) S 188 ° 0 min 0,000 mm 0,0 UV-I 0 W/m² 3,6 °C 5,6 °C 0,0 km/h (0 Bft)
10.05.2019 05:24 5,6 °C 87 % 1008,3 hPa 0,0 mm 0,0 km/h (0 Bft) S 188 ° 0 min 0,000 mm 0,0 UV-I 0 W/m² 3,6 °C 5,6 °C 0,0 km/h (0 Bft)
10.05.2019 05:25 5,6 °C 88 % 1008,4 hPa 0,0 mm 0,0 km/h (0 Bft) S 188 ° 0 min 0,000 mm 0,0 UV-I 0 W/m² 3,8 °C 5,6 °C 0,0 km/h (0 Bft)
10.05.2019 05:26 5,6 °C 88 % 1008,4 hPa 0,0 mm 0,0 km/h (0 Bft) S 188 ° 0 min 0,000 mm 0,0 UV-I 0 W/m² 3,8 °C 5,6 °C 0,0 km/h (0 Bft)
10.05.2019 05:27 5,6 °C 88 % 1008,3 hPa 0,0 mm 0,0 km/h (0 Bft) S 188 ° 0 min 0,000 mm 0,0 UV-I 0 W/m² 3,8 °C 5,6 °C 0,0 km/h (0 Bft)
10.05.2019 05:28 5,6 °C 88 % 1008,4 hPa 0,0 mm 0,0 km/h (0 Bft) S 188 ° 0 min 0,000 mm 0,0 UV-I 0 W/m² 3,8 °C 5,6 °C 0,0 km/h (0 Bft)
10.05.2019 05:29 5,6 °C 88 % 1008,4 hPa 0,0 mm 0,0 km/h (0 Bft) S 188 ° 0 min 0,000 mm 0,0 UV-I 0 W/m² 3,8 °C 5,6 °C 0,0 km/h (0 Bft)
10.05.2019 05:30 5,5 °C 87 % 1008,4 hPa 0,0 mm 0,0 km/h (0 Bft) S 188 ° 0 min 0,000 mm 0,0 UV-I 0 W/m² 3,5 °C 5,5 °C 0,0 km/h (0 Bft)
10.05.2019 05:31 5,6 °C 87 % 1008,4 hPa 0,0 mm 0,0 km/h (0 Bft) S 188 ° 0 min 0,000 mm 0,0 UV-I 0 W/m² 3,6 °C 5,6 °C 0,0 km/h (0 Bft)
10.05.2019 05:32 5,5 °C 88 % 1008,4 hPa 0,0 mm 0,0 km/h (0 Bft) S 188 ° 0 min 0,000 mm 0,0 UV-I 0 W/m² 3,7 °C 5,5 °C 0,0 km/h (0 Bft)
10.05.2019 05:33 5,4 °C 87 % 1008,4 hPa 0,0 mm 0,0 km/h (0 Bft) S 188 ° 0 min 0,000 mm 0,0 UV-I 0 W/m² 3,4 °C 5,4 °C 0,0 km/h (0 Bft)
10.05.2019 05:34 5,4 °C 87 % 1008,4 hPa 0,0 mm 0,0 km/h (0 Bft) S 188 ° 0 min 0,000 mm 0,0 UV-I 0 W/m² 3,4 °C 5,4 °C 0,0 km/h (0 Bft)
10.05.2019 05:35 5,4 °C 88 % 1008,4 hPa 0,0 mm 0,0 km/h (0 Bft) S 188 ° 0 min 0,000 mm 0,0 UV-I 0 W/m² 3,6 °C 5,4 °C 0,0 km/h (0 Bft)
10.05.2019 05:36 5,4 °C 88 % 1008,4 hPa 0,0 mm 0,0 km/h (0 Bft) S 188 ° 0 min 0,000 mm 0,0 UV-I 0 W/m² 3,6 °C 5,4 °C 0,0 km/h (0 Bft)
10.05.2019 05:37 5,4 °C 88 % 1008,4 hPa 0,0 mm 0,0 km/h (0 Bft) S 188 ° 0 min 0,000 mm 0,0 UV-I 0 W/m² 3,6 °C 5,4 °C 0,0 km/h (0 Bft)
10.05.2019 05:38 5,4 °C 88 % 1008,4 hPa 0,0 mm 0,0 km/h (0 Bft) S 188 ° 0 min 0,000 mm 0,0 UV-I 0 W/m² 3,6 °C 5,4 °C 0,0 km/h (0 Bft)
10.05.2019 05:39 5,4 °C 88 % 1008,4 hPa 0,0 mm 0,0 km/h (0 Bft) S 188 ° 0 min 0,000 mm 0,0 UV-I 0 W/m² 3,6 °C 5,4 °C 0,0 km/h (0 Bft)
10.05.2019 05:40 5,4 °C 88 % 1008,3 hPa 0,0 mm 0,0 km/h (0 Bft) S 188 ° 0 min 0,000 mm 0,0 UV-I 0 W/m² 3,6 °C 5,4 °C 0,0 km/h (0 Bft)
10.05.2019 05:41 5,4 °C 88 % 1008,3 hPa 0,0 mm 0,0 km/h (0 Bft) S 188 ° 0 min 0,000 mm 0,0 UV-I 0 W/m² 3,6 °C 5,4 °C 0,0 km/h (0 Bft)
10.05.2019 05:42 5,4 °C 88 % 1008,3 hPa 0,0 mm 0,0 km/h (0 Bft) S 188 ° 0 min 0,000 mm 0,0 UV-I 0 W/m² 3,6 °C 5,4 °C 0,0 km/h (0 Bft)
10.05.2019 05:43 5,3 °C 88 % 1008,4 hPa 0,0 mm 0,0 km/h (0 Bft) S 188 ° 0 min 0,000 mm 0,0 UV-I 0 W/m² 3,5 °C 5,3 °C 0,0 km/h (0 Bft)
10.05.2019 05:44 5,2 °C 88 % 1008,3 hPa 0,0 mm 0,0 km/h (0 Bft) S 188 ° 0 min 0,000 mm 0,0 UV-I 0 W/m² 3,4 °C 5,2 °C 0,0 km/h (0 Bft)
10.05.2019 05:45 5,2 °C 88 % 1008,3 hPa 0,0 mm 0,0 km/h (0 Bft) S 188 ° 0 min 0,000 mm 0,0 UV-I 0 W/m² 3,4 °C 5,2 °C 0,0 km/h (0 Bft)
10.05.2019 05:46 5,2 °C 89 % 1008,3 hPa 0,0 mm 0,0 km/h (0 Bft) S 188 ° 0 min 0,000 mm 0,0 UV-I 5 W/m² 3,5 °C 5,2 °C 0,0 km/h (0 Bft)
10.05.2019 05:47 5,2 °C 89 % 1008,3 hPa 0,0 mm 0,0 km/h (0 Bft) S 188 ° 0 min 0,000 mm 0,0 UV-I 5 W/m² 3,5 °C 5,2 °C 0,0 km/h (0 Bft)
10.05.2019 05:48 5,1 °C 89 % 1008,3 hPa 0,0 mm 0,0 km/h (0 Bft) S 188 ° 0 min 0,000 mm 0,0 UV-I 5 W/m² 3,4 °C 5,1 °C 0,0 km/h (0 Bft)
10.05.2019 05:49 5,1 °C 89 % 1008,3 hPa 0,0 mm 0,0 km/h (0 Bft) S 188 ° 0 min 0,000 mm 0,0 UV-I 7 W/m² 3,4 °C 5,1 °C 0,0 km/h (0 Bft)
10.05.2019 05:50 5,1 °C 89 % 1008,3 hPa 0,0 mm 0,0 km/h (0 Bft) S 188 ° 0 min 0,000 mm 0,0 UV-I 7 W/m² 3,4 °C 5,1 °C 0,0 km/h (0 Bft)
10.05.2019 05:51 5,1 °C 89 % 1008,3 hPa 0,0 mm 0,0 km/h (0 Bft) S 188 ° 0 min 0,000 mm 0,0 UV-I 7 W/m² 3,4 °C 5,1 °C 0,0 km/h (0 Bft)
10.05.2019 05:52 5,1 °C 89 % 1008,3 hPa 0,0 mm 0,0 km/h (0 Bft) S 188 ° 0 min 0,000 mm 0,0 UV-I 9 W/m² 3,4 °C 5,1 °C 0,0 km/h (0 Bft)
10.05.2019 05:53 5,0 °C 89 % 1008,3 hPa 0,0 mm 0,0 km/h (0 Bft) S 188 ° 0 min 0,000 mm 0,0 UV-I 9 W/m² 3,3 °C 5,0 °C 0,0 km/h (0 Bft)
10.05.2019 05:54 4,9 °C 89 % 1008,3 hPa 0,0 mm 0,0 km/h (0 Bft) S 188 ° 0 min 0,000 mm 0,0 UV-I 9 W/m² 3,2 °C 4,9 °C 0,0 km/h (0 Bft)
10.05.2019 05:55 4,9 °C 89 % 1008,3 hPa 0,0 mm 0,0 km/h (0 Bft) S 188 ° 0 min 0,000 mm 0,0 UV-I 9 W/m² 3,2 °C 4,9 °C 0,0 km/h (0 Bft)
10.05.2019 05:56 5,0 °C 90 % 1008,3 hPa 0,0 mm 0,0 km/h (0 Bft) S 188 ° 0 min 0,000 mm 0,0 UV-I 9 W/m² 3,5 °C 5,0 °C 0,0 km/h (0 Bft)
10.05.2019 05:57 5,0 °C 90 % 1008,3 hPa 0,0 mm 0,0 km/h (0 Bft) S 188 ° 0 min 0,000 mm 0,0 UV-I 9 W/m² 3,5 °C 5,0 °C 0,0 km/h (0 Bft)
10.05.2019 05:58 5,0 °C 90 % 1008,3 hPa 0,0 mm 0,0 km/h (0 Bft) S 188 ° 0 min 0,000 mm 0,0 UV-I 9 W/m² 3,5 °C 5,0 °C 0,0 km/h (0 Bft)
10.05.2019 05:59 5,0 °C 90 % 1008,3 hPa 0,0 mm 0,0 km/h (0 Bft) S 188 ° 0 min 0,000 mm 0,0 UV-I 12 W/m² 3,5 °C 5,0 °C 0,0 km/h (0 Bft)
10.05.2019 06:00 5,1 °C 90 % 1008,4 hPa 0,0 mm 0,0 km/h (0 Bft) S 188 ° 0 min 0,000 mm 0,0 UV-I 12 W/m² 3,6 °C 5,1 °C 0,0 km/h (0 Bft)
10.05.2019 06:01 5,1 °C 90 % 1008,4 hPa 0,0 mm 0,0 km/h (0 Bft) S 188 ° 0 min 0,000 mm 0,0 UV-I 14 W/m² 3,6 °C 5,1 °C 0,0 km/h (0 Bft)
10.05.2019 06:02 5,0 °C 90 % 1008,4 hPa 0,0 mm 0,0 km/h (0 Bft) S 188 ° 0 min 0,000 mm 0,0 UV-I 16 W/m² 3,5 °C 5,0 °C 0,0 km/h (0 Bft)
10.05.2019 06:03 5,1 °C 90 % 1008,4 hPa 0,0 mm 0,0 km/h (0 Bft) S 188 ° 0 min 0,000 mm 0,0 UV-I 16 W/m² 3,6 °C 5,1 °C 0,0 km/h (0 Bft)
10.05.2019 06:04 5,1 °C 90 % 1008,4 hPa 0,0 mm 0,0 km/h (0 Bft) S 188 ° 0 min 0,000 mm 0,0 UV-I 18 W/m² 3,6 °C 5,1 °C 0,0 km/h (0 Bft)
10.05.2019 06:05 5,0 °C 90 % 1008,4 hPa 0,0 mm 0,0 km/h (0 Bft) S 188 ° 0 min 0,000 mm 0,0 UV-I 18 W/m² 3,5 °C 5,0 °C 0,0 km/h (0 Bft)
10.05.2019 06:06 5,0 °C 90 % 1008,5 hPa 0,0 mm 0,0 km/h (0 Bft) S 188 ° 0 min 0,000 mm 0,0 UV-I 18 W/m² 3,5 °C 5,0 °C 0,0 km/h (0 Bft)
10.05.2019 06:07 4,9 °C 90 % 1008,5 hPa 0,0 mm 0,0 km/h (0 Bft) S 188 ° 0 min 0,000 mm 0,0 UV-I 18 W/m² 3,4 °C 4,9 °C 0,0 km/h (0 Bft)
10.05.2019 06:08 4,9 °C 90 % 1008,5 hPa 0,0 mm 0,0 km/h (0 Bft) S 186 ° 0 min 0,000 mm 0,0 UV-I 19 W/m² 3,4 °C 4,9 °C 0,0 km/h (0 Bft)
10.05.2019 06:09 4,9 °C 90 % 1008,5 hPa 0,0 mm 0,0 km/h (0 Bft) S 186 ° 0 min 0,000 mm 0,0 UV-I 19 W/m² 3,4 °C 4,9 °C 0,0 km/h (0 Bft)
10.05.2019 06:10 4,9 °C 90 % 1008,5 hPa 0,0 mm 0,0 km/h (0 Bft) S 186 ° 0 min 0,000 mm 0,0 UV-I 19 W/m² 3,4 °C 4,9 °C 0,0 km/h (0 Bft)
10.05.2019 06:11 4,9 °C 90 % 1008,5 hPa 0,0 mm 0,0 km/h (0 Bft) S 186 ° 0 min 0,000 mm 0,0 UV-I 23 W/m² 3,4 °C 4,9 °C 0,0 km/h (0 Bft)
10.05.2019 06:12 4,9 °C 90 % 1008,5 hPa 0,0 mm 0,0 km/h (0 Bft) S 186 ° 0 min 0,000 mm 0,0 UV-I 25 W/m² 3,4 °C 4,9 °C 0,0 km/h (0 Bft)
10.05.2019 06:13 4,9 °C 90 % 1008,5 hPa 0,0 mm 0,0 km/h (0 Bft) S 186 ° 0 min 0,000 mm 0,0 UV-I 26 W/m² 3,4 °C 4,9 °C 0,0 km/h (0 Bft)
10.05.2019 06:14 4,9 °C 91 % 1008,5 hPa 0,0 mm 0,0 km/h (0 Bft) S 186 ° 0 min 0,000 mm 0,0 UV-I 30 W/m² 3,6 °C 4,9 °C 0,0 km/h (0 Bft)
10.05.2019 06:15 5,0 °C 91 % 1008,6 hPa 0,0 mm 0,0 km/h (0 Bft) S 186 ° 0 min 0,000 mm 0,0 UV-I 32 W/m² 3,7 °C 5,0 °C 0,0 km/h (0 Bft)
10.05.2019 06:16 5,1 °C 90 % 1008,6 hPa 0,0 mm 0,0 km/h (0 Bft) S 186 ° 0 min 0,000 mm 0,0 UV-I 32 W/m² 3,6 °C 5,1 °C 0,0 km/h (0 Bft)
10.05.2019 06:17 5,1 °C 91 % 1008,6 hPa 0,0 mm 0,0 km/h (0 Bft) S 186 ° 0 min 0,000 mm 0,0 UV-I 33 W/m² 3,8 °C 5,1 °C 0,0 km/h (0 Bft)
10.05.2019 06:18 5,1 °C 91 % 1008,6 hPa 0,0 mm 0,0 km/h (0 Bft) S 186 ° 0 min 0,000 mm 0,0 UV-I 33 W/m² 3,8 °C 5,1 °C 0,0 km/h (0 Bft)
10.05.2019 06:19 5,2 °C 91 % 1008,6 hPa 0,0 mm 0,0 km/h (0 Bft) S 186 ° 0 min 0,000 mm 0,0 UV-I 32 W/m² 3,9 °C 5,2 °C 0,0 km/h (0 Bft)
10.05.2019 06:20 5,2 °C 91 % 1008,6 hPa 0,0 mm 0,0 km/h (0 Bft) S 186 ° 0 min 0,000 mm 0,0 UV-I 30 W/m² 3,9 °C 5,2 °C 0,0 km/h (0 Bft)
10.05.2019 06:21 5,3 °C 91 % 1008,6 hPa 0,0 mm 0,0 km/h (0 Bft) S 186 ° 0 min 0,000 mm 0,0 UV-I 28 W/m² 4,0 °C 5,3 °C 0,0 km/h (0 Bft)
10.05.2019 06:22 5,4 °C 90 % 1008,6 hPa 0,0 mm 0,0 km/h (0 Bft) S 186 ° 0 min 0,000 mm 0,0 UV-I 25 W/m² 3,9 °C 5,4 °C 0,0 km/h (0 Bft)
10.05.2019 06:23 5,4 °C 90 % 1008,6 hPa 0,0 mm 0,0 km/h (0 Bft) S 186 ° 0 min 0,000 mm 0,0 UV-I 23 W/m² 3,9 °C 5,4 °C 0,0 km/h (0 Bft)
10.05.2019 06:24 5,4 °C 90 % 1008,7 hPa 0,0 mm 0,0 km/h (0 Bft) S 186 ° 0 min 0,000 mm 0,0 UV-I 23 W/m² 3,9 °C 5,4 °C 0,0 km/h (0 Bft)
10.05.2019 06:25 5,5 °C 90 % 1008,7 hPa 0,0 mm 0,0 km/h (0 Bft) S 186 ° 0 min 0,000 mm 0,0 UV-I 23 W/m² 4,0 °C 5,5 °C 0,0 km/h (0 Bft)
10.05.2019 06:26 5,5 °C 90 % 1008,7 hPa 0,0 mm 0,0 km/h (0 Bft) S 186 ° 0 min 0,000 mm 0,0 UV-I 21 W/m² 4,0 °C 5,5 °C 0,0 km/h (0 Bft)
10.05.2019 06:27 5,6 °C 90 % 1008,7 hPa 0,0 mm 0,0 km/h (0 Bft) S 186 ° 0 min 0,000 mm 0,0 UV-I 21 W/m² 4,1 °C 5,6 °C 0,0 km/h (0 Bft)
10.05.2019 06:28 5,6 °C 90 % 1008,7 hPa 0,0 mm 0,0 km/h (0 Bft) S 186 ° 0 min 0,000 mm 0,0 UV-I 21 W/m² 4,1 °C 5,6 °C 0,0 km/h (0 Bft)
10.05.2019 06:29 5,6 °C 90 % 1008,7 hPa 0,0 mm 0,0 km/h (0 Bft) S 186 ° 0 min 0,000 mm 0,0 UV-I 21 W/m² 4,1 °C 5,6 °C 0,0 km/h (0 Bft)
10.05.2019 06:30 5,7 °C 90 % 1008,7 hPa 0,0 mm 0,0 km/h (0 Bft) S 186 ° 0 min 0,000 mm 0,0 UV-I 19 W/m² 4,2 °C 5,7 °C 0,0 km/h (0 Bft)
10.05.2019 06:31 5,7 °C 90 % 1008,7 hPa 0,0 mm 0,0 km/h (0 Bft) S 186 ° 0 min 0,000 mm 0,0 UV-I 19 W/m² 4,2 °C 5,7 °C 0,0 km/h (0 Bft)
10.05.2019 06:32 5,7 °C 90 % 1008,7 hPa 0,0 mm 0,0 km/h (0 Bft) S 186 ° 0 min 0,000 mm 0,0 UV-I 19 W/m² 4,2 °C 5,7 °C 0,0 km/h (0 Bft)
10.05.2019 06:33 5,8 °C 90 % 1008,7 hPa 0,0 mm 0,0 km/h (0 Bft) S 186 ° 0 min 0,000 mm 0,0 UV-I 21 W/m² 4,3 °C 5,8 °C 0,0 km/h (0 Bft)
10.05.2019 06:34 5,8 °C 90 % 1008,7 hPa 0,0 mm 0,0 km/h (0 Bft) S 186 ° 0 min 0,000 mm 0,0 UV-I 19 W/m² 4,3 °C 5,8 °C 0,0 km/h (0 Bft)
10.05.2019 06:35 5,8 °C 90 % 1008,7 hPa 0,0 mm 0,0 km/h (0 Bft) S 186 ° 0 min 0,000 mm 0,0 UV-I 18 W/m² 4,3 °C 5,8 °C 0,0 km/h (0 Bft)
10.05.2019 06:36 5,8 °C 90 % 1008,7 hPa 0,0 mm 0,0 km/h (0 Bft) S 186 ° 0 min 0,000 mm 0,0 UV-I 18 W/m² 4,3 °C 5,8 °C 0,0 km/h (0 Bft)
10.05.2019 06:37 5,8 °C 90 % 1008,7 hPa 0,0 mm 0,0 km/h (0 Bft) S 186 ° 0 min 0,000 mm 0,0 UV-I 18 W/m² 4,3 °C 5,8 °C 0,0 km/h (0 Bft)
10.05.2019 06:38 5,9 °C 90 % 1008,7 hPa 0,0 mm 0,0 km/h (0 Bft) S 186 ° 0 min 0,000 mm 0,0 UV-I 18 W/m² 4,4 °C 5,9 °C 0,0 km/h (0 Bft)
10.05.2019 06:39 5,9 °C 90 % 1008,7 hPa 0,0 mm 0,0 km/h (0 Bft) S 186 ° 0 min 0,000 mm 0,0 UV-I 19 W/m² 4,4 °C 5,9 °C 0,0 km/h (0 Bft)
10.05.2019 06:40 6,1 °C 90 % 1008,8 hPa 0,0 mm 0,0 km/h (0 Bft) S 186 ° 0 min 0,000 mm 0,0 UV-I 19 W/m² 4,6 °C 6,1 °C 0,0 km/h (0 Bft)
10.05.2019 06:41 6,1 °C 90 % 1008,8 hPa 0,0 mm 0,0 km/h (0 Bft) S 186 ° 0 min 0,000 mm 0,0 UV-I 19 W/m² 4,6 °C 6,1 °C 0,0 km/h (0 Bft)
10.05.2019 06:42 6,2 °C 90 % 1008,9 hPa 0,0 mm 0,4 km/h (0 Bft) S 187 ° 0 min 0,000 mm 0,0 UV-I 18 W/m² 4,7 °C 6,2 °C 1,6 km/h (1 Bft)
10.05.2019 06:43 6,3 °C 90 % 1008,9 hPa 0,0 mm 0,0 km/h (0 Bft) S 187 ° 0 min 0,000 mm 0,0 UV-I 18 W/m² 4,8 °C 6,3 °C 0,0 km/h (0 Bft)
10.05.2019 06:44 6,3 °C 90 % 1008,9 hPa 0,0 mm 0,0 km/h (0 Bft) S 187 ° 0 min 0,000 mm 0,0 UV-I 19 W/m² 4,8 °C 6,3 °C 0,0 km/h (0 Bft)
10.05.2019 06:45 6,3 °C 90 % 1008,9 hPa 0,0 mm 0,1 km/h (0 Bft) S 187 ° 0 min 0,000 mm 0,0 UV-I 21 W/m² 4,8 °C 6,3 °C 1,6 km/h (1 Bft)
10.05.2019 06:46 6,3 °C 89 % 1009,0 hPa 0,0 mm 1,5 km/h (1 Bft) N 5 ° 0 min 0,000 mm 0,0 UV-I 23 W/m² 4,6 °C 6,3 °C 3,2 km/h (1 Bft)
10.05.2019 06:47 6,3 °C 89 % 1009,0 hPa 0,0 mm 1,0 km/h (0 Bft) W 259 ° 0 min 0,000 mm 0,0 UV-I 25 W/m² 4,6 °C 6,3 °C 9,7 km/h (2 Bft)
10.05.2019 06:48 6,3 °C 89 % 1009,0 hPa 0,0 mm 4,8 km/h (1 Bft) W-SW 246 ° 0 min 0,000 mm 0,0 UV-I 26 W/m² 4,6 °C 5,6 °C 14,5 km/h (3 Bft)
10.05.2019 06:49 6,4 °C 89 % 1009,0 hPa 0,0 mm 8,0 km/h (2 Bft) W-NW 287 ° 0 min 0,000 mm 0,0 UV-I 26 W/m² 4,7 °C 4,8 °C 12,9 km/h (3 Bft)
10.05.2019 06:50 6,6 °C 89 % 1009,0 hPa 0,0 mm 6,0 km/h (2 Bft) W 259 ° 0 min 0,000 mm 0,0 UV-I 30 W/m² 4,9 °C 5,6 °C 14,5 km/h (3 Bft)
10.05.2019 06:51 6,6 °C 89 % 1009,1 hPa 0,0 mm 8,6 km/h (2 Bft) W-NW 286 ° 0 min 0,000 mm 0,0 UV-I 32 W/m² 4,9 °C 4,9 °C 12,9 km/h (3 Bft)
10.05.2019 06:52 6,7 °C 88 % 1009,1 hPa 0,0 mm 4,5 km/h (1 Bft) W-SW 256 ° 0 min 0,000 mm 0,0 UV-I 37 W/m² 4,9 °C 6,7 °C 6,4 km/h (2 Bft)
10.05.2019 06:53 6,8 °C 88 % 1009,2 hPa 0,0 mm 2,9 km/h (1 Bft) W-SW 257 ° 0 min 0,000 mm 0,0 UV-I 39 W/m² 5,0 °C 6,8 °C 4,8 km/h (1 Bft)
10.05.2019 06:54 6,8 °C 88 % 1009,2 hPa 0,0 mm 1,8 km/h (1 Bft) W-SW 252 ° 0 min 0,000 mm 0,0 UV-I 37 W/m² 5,0 °C 6,8 °C 4,8 km/h (1 Bft)
10.05.2019 06:55 6,9 °C 88 % 1009,2 hPa 0,0 mm 0,0 km/h (0 Bft) W-SW 252 ° 0 min 0,000 mm 0,0 UV-I 37 W/m² 5,1 °C 6,9 °C 0,0 km/h (0 Bft)
10.05.2019 06:56 6,9 °C 88 % 1009,2 hPa 0,0 mm 1,1 km/h (1 Bft) W-SW 252 ° 0 min 0,000 mm 0,0 UV-I 35 W/m² 5,1 °C 6,9 °C 3,2 km/h (1 Bft)
10.05.2019 06:57 6,9 °C 88 % 1009,2 hPa 0,0 mm 1,1 km/h (1 Bft) W-SW 252 ° 0 min 0,000 mm 0,0 UV-I 33 W/m² 5,1 °C 6,9 °C 3,2 km/h (1 Bft)
10.05.2019 06:58 6,9 °C 88 % 1009,2 hPa 0,0 mm 0,1 km/h (0 Bft) W-SW 252 ° 0 min 0,000 mm 0,0 UV-I 30 W/m² 5,1 °C 6,9 °C 1,6 km/h (1 Bft)
10.05.2019 06:59 6,9 °C 88 % 1009,2 hPa 0,0 mm 1,5 km/h (1 Bft) W-SW 252 ° 0 min 0,000 mm 0,0 UV-I 30 W/m² 5,1 °C 6,9 °C 3,2 km/h (1 Bft)
10.05.2019 07:00 6,9 °C 88 % 1009,2 hPa 0,0 mm 1,3 km/h (1 Bft) W-SW 252 ° 0 min 0,000 mm 0,0 UV-I 28 W/m² 5,1 °C 6,9 °C 3,2 km/h (1 Bft)
10.05.2019 07:01 6,9 °C 88 % 1009,2 hPa 0,0 mm 0,6 km/h (0 Bft) W-SW 252 ° 0 min 0,000 mm 0,0 UV-I 28 W/m² 5,1 °C 6,9 °C 3,2 km/h (1 Bft)
10.05.2019 07:02 7,0 °C 88 % 1009,2 hPa 0,0 mm 0,1 km/h (0 Bft) W-SW 252 ° 0 min 0,000 mm 0,0 UV-I 28 W/m² 5,2 °C 7,0 °C 1,6 km/h (1 Bft)
10.05.2019 07:03 6,9 °C 88 % 1009,2 hPa 0,0 mm 1,5 km/h (1 Bft) W-SW 248 ° 0 min 0,000 mm 0,0 UV-I 28 W/m² 5,1 °C 6,9 °C 3,2 km/h (1 Bft)
10.05.2019 07:04 7,0 °C 87 % 1009,2 hPa 0,0 mm 0,2 km/h (0 Bft) W-SW 247 ° 0 min 0,000 mm 0,0 UV-I 28 W/m² 5,0 °C 7,0 °C 1,6 km/h (1 Bft)
10.05.2019 07:05 7,1 °C 87 % 1009,2 hPa 0,0 mm 1,6 km/h (1 Bft) W-SW 244 ° 0 min 0,000 mm 0,0 UV-I 28 W/m² 5,1 °C 7,1 °C 3,2 km/h (1 Bft)
10.05.2019 07:06 7,0 °C 88 % 1009,2 hPa 0,0 mm 2,5 km/h (1 Bft) W-SW 247 ° 0 min 0,000 mm 0,0 UV-I 28 W/m² 5,2 °C 7,0 °C 6,4 km/h (2 Bft)
10.05.2019 07:07 7,0 °C 88 % 1009,2 hPa 0,0 mm 2,0 km/h (1 Bft) W-SW 241 ° 0 min 0,000 mm 0,0 UV-I 26 W/m² 5,2 °C 7,0 °C 4,8 km/h (1 Bft)
10.05.2019 07:08 7,0 °C 88 % 1009,3 hPa 0,0 mm 4,0 km/h (1 Bft) S-SW 206 ° 0 min 0,000 mm 0,0 UV-I 26 W/m² 5,2 °C 7,0 °C 8,0 km/h (2 Bft)
10.05.2019 07:09 7,0 °C 88 % 1009,2 hPa 0,0 mm 5,1 km/h (1 Bft) W-SW 247 ° 0 min 0,000 mm 0,0 UV-I 26 W/m² 5,2 °C 6,3 °C 9,7 km/h (2 Bft)
10.05.2019 07:10 7,0 °C 88 % 1009,4 hPa 0,0 mm 3,6 km/h (1 Bft) W 279 ° 0 min 0,000 mm 0,0 UV-I 28 W/m² 5,2 °C 7,0 °C 6,4 km/h (2 Bft)
10.05.2019 07:11 7,0 °C 88 % 1009,4 hPa 0,0 mm 3,2 km/h (1 Bft) W-SW 252 ° 0 min 0,000 mm 0,0 UV-I 28 W/m² 5,2 °C 7,0 °C 4,8 km/h (1 Bft)
10.05.2019 07:12 7,0 °C 88 % 1009,3 hPa 0,0 mm 4,3 km/h (1 Bft) SW 227 ° 0 min 0,000 mm 0,0 UV-I 30 W/m² 5,2 °C 7,0 °C 6,4 km/h (2 Bft)
10.05.2019 07:13 7,0 °C 88 % 1009,3 hPa 0,0 mm 1,3 km/h (1 Bft) W-SW 256 ° 0 min 0,000 mm 0,0 UV-I 33 W/m² 5,2 °C 7,0 °C 3,2 km/h (1 Bft)
10.05.2019 07:14 7,0 °C 88 % 1009,3 hPa 0,0 mm 1,9 km/h (1 Bft) SW 227 ° 0 min 0,000 mm 0,0 UV-I 35 W/m² 5,2 °C 7,0 °C 4,8 km/h (1 Bft)
10.05.2019 07:15 7,0 °C 88 % 1009,3 hPa 0,0 mm 7,1 km/h (2 Bft) W 272 ° 0 min 0,000 mm 0,0 UV-I 39 W/m² 5,2 °C 5,7 °C 11,3 km/h (2 Bft)
10.05.2019 07:16 6,9 °C 88 % 1009,4 hPa 0,0 mm 4,2 km/h (1 Bft) W 277 ° 0 min 0,000 mm 0,0 UV-I 39 W/m² 5,1 °C 6,9 °C 8,0 km/h (2 Bft)
10.05.2019 07:17 6,9 °C 88 % 1009,4 hPa 0,0 mm 3,6 km/h (1 Bft) W 261 ° 0 min 0,000 mm 0,0 UV-I 40 W/m² 5,1 °C 6,9 °C 4,8 km/h (1 Bft)
10.05.2019 07:18 6,9 °C 89 % 1009,4 hPa 0,2 mm 8,9 km/h (2 Bft) W-SW 256 ° 0 min 0,000 mm 0,0 UV-I 40 W/m² 5,2 °C 5,2 °C 12,9 km/h (3 Bft)
10.05.2019 07:19 6,9 °C 89 % 1009,4 hPa 0,0 mm 6,0 km/h (2 Bft) W 273 ° 0 min 0,000 mm 0,0 UV-I 40 W/m² 5,2 °C 5,9 °C 11,3 km/h (2 Bft)
10.05.2019 07:20 6,9 °C 89 % 1009,4 hPa 0,0 mm 6,6 km/h (2 Bft) W 274 ° 0 min 0,000 mm 0,0 UV-I 40 W/m² 5,2 °C 5,7 °C 11,3 km/h (2 Bft)
10.05.2019 07:21 6,9 °C 89 % 1009,4 hPa 0,0 mm 4,7 km/h (1 Bft) W 266 ° 0 min 0,000 mm 0,0 UV-I 40 W/m² 5,2 °C 6,3 °C 6,4 km/h (2 Bft)
10.05.2019 07:22 6,9 °C 89 % 1009,4 hPa 0,0 mm 3,5 km/h (1 Bft) W-SW 248 ° 0 min 0,000 mm 0,0 UV-I 40 W/m² 5,2 °C 6,9 °C 4,8 km/h (1 Bft)
10.05.2019 07:23 6,9 °C 89 % 1009,4 hPa 0,0 mm 6,1 km/h (2 Bft) W 268 ° 0 min 0,000 mm 0,0 UV-I 39 W/m² 5,2 °C 5,9 °C 12,9 km/h (3 Bft)
10.05.2019 07:24 6,8 °C 89 % 1009,5 hPa 0,0 mm 9,4 km/h (2 Bft) W-SW 252 ° 0 min 0,000 mm 0,0 UV-I 37 W/m² 5,1 °C 4,9 °C 14,5 km/h (3 Bft)
10.05.2019 07:25 6,9 °C 89 % 1009,5 hPa 0,0 mm 6,4 km/h (2 Bft) W-SW 243 ° 0 min 0,000 mm 0,0 UV-I 37 W/m² 5,2 °C 5,8 °C 12,9 km/h (3 Bft)
10.05.2019 07:26 6,8 °C 89 % 1009,5 hPa 0,0 mm 9,9 km/h (2 Bft) W 273 ° 0 min 0,000 mm 0,0 UV-I 37 W/m² 5,1 °C 4,8 °C 16,1 km/h (3 Bft)
10.05.2019 07:27 6,8 °C 90 % 1009,5 hPa 0,0 mm 13,0 km/h (3 Bft) W 259 ° 0 min 0,000 mm 0,0 UV-I 42 W/m² 5,3 °C 4,3 °C 20,9 km/h (4 Bft)
10.05.2019 07:28 6,8 °C 89 % 1009,5 hPa 0,0 mm 7,4 km/h (2 Bft) W-SW 257 ° 0 min 0,000 mm 0,0 UV-I 44 W/m² 5,1 °C 5,4 °C 12,9 km/h (3 Bft)
10.05.2019 07:29 6,8 °C 90 % 1009,5 hPa 0,0 mm 7,4 km/h (2 Bft) W-SW 257 ° 0 min 0,000 mm 0,0 UV-I 47 W/m² 5,3 °C 5,4 °C 12,9 km/h (3 Bft)
10.05.2019 07:30 6,8 °C 90 % 1009,5 hPa 0,0 mm 10,8 km/h (2 Bft) W 260 ° 0 min 0,000 mm 0,0 UV-I 49 W/m² 5,3 °C 4,7 °C 16,1 km/h (3 Bft)
10.05.2019 07:31 6,8 °C 90 % 1009,6 hPa 0,0 mm 7,0 km/h (2 Bft) W 271 ° 0 min 0,000 mm 0,0 UV-I 51 W/m² 5,3 °C 5,5 °C 12,9 km/h (3 Bft)
10.05.2019 07:32 6,8 °C 90 % 1009,6 hPa 0,0 mm 8,0 km/h (2 Bft) W-SW 257 ° 0 min 0,000 mm 0,0 UV-I 53 W/m² 5,3 °C 5,2 °C 11,3 km/h (2 Bft)
10.05.2019 07:33 6,8 °C 90 % 1009,6 hPa 0,0 mm 7,0 km/h (2 Bft) W-SW 255 ° 0 min 0,000 mm 0,0 UV-I 53 W/m² 5,3 °C 5,5 °C 11,3 km/h (2 Bft)
10.05.2019 07:34 6,8 °C 90 % 1009,6 hPa 0,0 mm 8,2 km/h (2 Bft) W-SW 252 ° 0 min 0,000 mm 0,0 UV-I 53 W/m² 5,3 °C 5,2 °C 16,1 km/h (3 Bft)
10.05.2019 07:35 6,8 °C 90 % 1009,6 hPa 0,0 mm 9,9 km/h (2 Bft) W-SW 253 ° 0 min 0,000 mm 0,0 UV-I 54 W/m² 5,3 °C 4,8 °C 16,1 km/h (3 Bft)
10.05.2019 07:36 6,8 °C 90 % 1009,6 hPa 0,0 mm 3,8 km/h (1 Bft) W 262 ° 0 min 0,000 mm 0,0 UV-I 56 W/m² 5,3 °C 6,8 °C 6,4 km/h (2 Bft)
10.05.2019 07:37 6,8 °C 90 % 1009,6 hPa 0,0 mm 6,2 km/h (2 Bft) W 268 ° 0 min 0,000 mm 0,0 UV-I 56 W/m² 5,3 °C 5,7 °C 11,3 km/h (2 Bft)
10.05.2019 07:38 6,8 °C 90 % 1009,6 hPa 0,0 mm 4,7 km/h (1 Bft) W-SW 245 ° 0 min 0,000 mm 0,0 UV-I 56 W/m² 5,3 °C 6,2 °C 9,7 km/h (2 Bft)
10.05.2019 07:39 6,8 °C 90 % 1009,6 hPa 0,0 mm 4,6 km/h (1 Bft) W 259 ° 0 min 0,000 mm 0,0 UV-I 58 W/m² 5,3 °C 6,3 °C 9,7 km/h (2 Bft)
10.05.2019 07:40 6,8 °C 90 % 1009,6 hPa 0,0 mm 3,5 km/h (1 Bft) W-NW 286 ° 0 min 0,000 mm 0,0 UV-I 58 W/m² 5,3 °C 6,8 °C 6,4 km/h (2 Bft)
10.05.2019 07:41 6,8 °C 90 % 1009,7 hPa 0,0 mm 7,3 km/h (2 Bft) W 262 ° 0 min 0,000 mm 0,0 UV-I 58 W/m² 5,3 °C 5,4 °C 12,9 km/h (3 Bft)
10.05.2019 07:42 6,8 °C 90 % 1009,7 hPa 0,2 mm 4,4 km/h (1 Bft) W 271 ° 0 min 0,000 mm 0,0 UV-I 56 W/m² 5,3 °C 6,8 °C 6,4 km/h (2 Bft)
10.05.2019 07:43 6,8 °C 90 % 1009,7 hPa 0,0 mm 5,0 km/h (1 Bft) W-SW 245 ° 0 min 0,000 mm 0,0 UV-I 56 W/m² 5,3 °C 6,1 °C 11,3 km/h (2 Bft)
10.05.2019 07:44 6,8 °C 90 % 1009,7 hPa 0,0 mm 9,5 km/h (2 Bft) W 279 ° 0 min 0,000 mm 0,0 UV-I 58 W/m² 5,3 °C 4,9 °C 12,9 km/h (3 Bft)
10.05.2019 07:45 6,8 °C 90 % 1009,7 hPa 0,0 mm 10,4 km/h (2 Bft) W 261 ° 0 min 0,000 mm 0,0 UV-I 63 W/m² 5,3 °C 4,7 °C 14,5 km/h (3 Bft)
10.05.2019 07:46 6,8 °C 90 % 1009,7 hPa 0,0 mm 13,5 km/h (3 Bft) W 260 ° 0 min 0,000 mm 0,0 UV-I 65 W/m² 5,3 °C 4,2 °C 19,3 km/h (3 Bft)
10.05.2019 07:47 6,8 °C 90 % 1009,7 hPa 0,0 mm 8,3 km/h (2 Bft) W 266 ° 0 min 0,000 mm 0,0 UV-I 69 W/m² 5,3 °C 5,2 °C 12,9 km/h (3 Bft)
10.05.2019 07:48 6,8 °C 90 % 1009,8 hPa 0,0 mm 6,7 km/h (2 Bft) W-NW 286 ° 0 min 0,000 mm 0,0 UV-I 70 W/m² 5,3 °C 5,6 °C 11,3 km/h (2 Bft)
10.05.2019 07:49 6,8 °C 90 % 1009,8 hPa 0,0 mm 7,1 km/h (2 Bft) W-SW 248 ° 0 min 0,000 mm 0,0 UV-I 72 W/m² 5,3 °C 5,5 °C 11,3 km/h (2 Bft)
10.05.2019 07:50 6,8 °C 90 % 1009,8 hPa 0,0 mm 4,7 km/h (1 Bft) W 277 ° 0 min 0,000 mm 0,0 UV-I 74 W/m² 5,3 °C 6,2 °C 6,4 km/h (2 Bft)
10.05.2019 07:51 6,8 °C 90 % 1009,8 hPa 0,0 mm 9,2 km/h (2 Bft) W-SW 246 ° 0 min 0,000 mm 0,0 UV-I 74 W/m² 5,3 °C 5,0 °C 16,1 km/h (3 Bft)
10.05.2019 07:52 6,8 °C 90 % 1009,8 hPa 0,2 mm 6,4 km/h (2 Bft) NW 310 ° 0 min 0,000 mm 0,0 UV-I 74 W/m² 5,3 °C 5,7 °C 12,9 km/h (3 Bft)
10.05.2019 07:53 6,8 °C 90 % 1009,8 hPa 0,0 mm 10,4 km/h (2 Bft) W-SW 257 ° 0 min 0,000 mm 0,0 UV-I 72 W/m² 5,3 °C 4,7 °C 14,5 km/h (3 Bft)
10.05.2019 07:54 6,8 °C 90 % 1009,9 hPa 0,0 mm 8,9 km/h (2 Bft) W-SW 244 ° 0 min 0,000 mm 0,0 UV-I 72 W/m² 5,3 °C 5,0 °C 16,1 km/h (3 Bft)
10.05.2019 07:55 6,8 °C 90 % 1009,9 hPa 0,0 mm 2,7 km/h (1 Bft) W-SW 239 ° 0 min 0,000 mm 0,0 UV-I 70 W/m² 5,3 °C 6,8 °C 8,0 km/h (2 Bft)
10.05.2019 07:56 6,8 °C 90 % 1009,9 hPa 0,0 mm 4,0 km/h (1 Bft) W 262 ° 0 min 0,000 mm 0,0 UV-I 70 W/m² 5,3 °C 6,8 °C 6,4 km/h (2 Bft)
10.05.2019 07:57 6,8 °C 90 % 1010,0 hPa 0,0 mm 11,1 km/h (2 Bft) W 276 ° 0 min 0,000 mm 0,5 UV-I 74 W/m² 5,3 °C 4,6 °C 14,5 km/h (3 Bft)
10.05.2019 07:58 6,8 °C 90 % 1010,0 hPa 0,0 mm 7,1 km/h (2 Bft) W-SW 243 ° 0 min 0,000 mm 0,5 UV-I 74 W/m² 5,3 °C 5,5 °C 12,9 km/h (3 Bft)
10.05.2019 07:59 6,8 °C 90 % 1010,0 hPa 0,0 mm 10,9 km/h (2 Bft) W-SW 252 ° 0 min 0,000 mm 0,5 UV-I 74 W/m² 5,3 °C 4,6 °C 17,7 km/h (3 Bft)
10.05.2019 08:00 6,8 °C 90 % 1010,0 hPa 0,0 mm 7,4 km/h (2 Bft) W-SW 242 ° 0 min 0,025 mm 0,5 UV-I 74 W/m² 5,3 °C 5,4 °C 11,3 km/h (2 Bft)
10.05.2019 08:01 6,8 °C 90 % 1010,0 hPa 0,0 mm 5,3 km/h (1 Bft) W-SW 248 ° 0 min 0,000 mm 0,5 UV-I 74 W/m² 5,3 °C 6,0 °C 8,0 km/h (2 Bft)
10.05.2019 08:02 6,8 °C 90 % 1010,0 hPa 0,0 mm 8,6 km/h (2 Bft) W-SW 248 ° 0 min 0,000 mm 0,5 UV-I 76 W/m² 5,3 °C 5,1 °C 12,9 km/h (3 Bft)
10.05.2019 08:03 6,8 °C 90 % 1010,0 hPa 0,0 mm 6,5 km/h (2 Bft) W-SW 244 ° 0 min 0,000 mm 0,5 UV-I 77 W/m² 5,3 °C 5,6 °C 8,0 km/h (2 Bft)
10.05.2019 08:04 6,8 °C 90 % 1010,1 hPa 0,0 mm 11,1 km/h (2 Bft) W 263 ° 0 min 0,000 mm 0,5 UV-I 79 W/m² 5,3 °C 4,6 °C 16,1 km/h (3 Bft)
10.05.2019 08:05 6,8 °C 90 % 1010,1 hPa 0,0 mm 11,0 km/h (2 Bft) W-SW 257 ° 0 min 0,000 mm 0,5 UV-I 81 W/m² 5,3 °C 4,6 °C 16,1 km/h (3 Bft)
10.05.2019 08:06 6,8 °C 90 % 1010,1 hPa 0,0 mm 8,2 km/h (2 Bft) W-SW 249 ° 0 min 0,000 mm 0,5 UV-I 81 W/m² 5,3 °C 5,2 °C 16,1 km/h (3 Bft)
10.05.2019 08:07 6,8 °C 90 % 1010,1 hPa 0,0 mm 10,1 km/h (2 Bft) W 281 ° 0 min 0,000 mm 0,5 UV-I 81 W/m² 5,3 °C 4,8 °C 16,1 km/h (3 Bft)
10.05.2019 08:08 6,8 °C 90 % 1010,2 hPa 0,0 mm 4,8 km/h (1 Bft) W 270 ° 0 min 0,000 mm 0,5 UV-I 86 W/m² 5,3 °C 6,2 °C 9,7 km/h (2 Bft)
10.05.2019 08:09 6,8 °C 90 % 1010,1 hPa 0,2 mm 6,3 km/h (2 Bft) W 261 ° 0 min 0,000 mm 0,5 UV-I 88 W/m² 5,3 °C 5,7 °C 14,5 km/h (3 Bft)
10.05.2019 08:10 6,8 °C 90 % 1010,2 hPa 0,0 mm 6,7 km/h (2 Bft) W-SW 254 ° 0 min 0,000 mm 0,5 UV-I 88 W/m² 5,3 °C 5,6 °C 9,7 km/h (2 Bft)
10.05.2019 08:11 6,8 °C 90 % 1010,2 hPa 0,0 mm 5,8 km/h (2 Bft) W-NW 284 ° 0 min 0,000 mm 0,5 UV-I 86 W/m² 5,3 °C 5,9 °C 8,0 km/h (2 Bft)
10.05.2019 08:12 6,8 °C 90 % 1010,2 hPa 0,0 mm 7,2 km/h (2 Bft) W-NW 290 ° 0 min 0,000 mm 0,5 UV-I 84 W/m² 5,3 °C 5,5 °C 11,3 km/h (2 Bft)
10.05.2019 08:13 6,8 °C 90 % 1010,2 hPa 0,0 mm 9,3 km/h (2 Bft) W-NW 292 ° 0 min 0,000 mm 0,5 UV-I 83 W/m² 5,3 °C 5,0 °C 16,1 km/h (3 Bft)
10.05.2019 08:14 6,8 °C 90 % 1010,2 hPa 0,0 mm 6,6 km/h (2 Bft) W-SW 250 ° 0 min 0,000 mm 0,5 UV-I 81 W/m² 5,3 °C 5,6 °C 14,5 km/h (3 Bft)
10.05.2019 08:15 6,8 °C 90 % 1010,2 hPa 0,0 mm 12,8 km/h (3 Bft) W 273 ° 0 min 0,000 mm 0,5 UV-I 79 W/m² 5,3 °C 4,3 °C 20,9 km/h (4 Bft)
10.05.2019 08:16 6,8 °C 90 % 1010,2 hPa 0,0 mm 10,1 km/h (2 Bft) W-NW 283 ° 0 min 0,000 mm 0,5 UV-I 79 W/m² 5,3 °C 4,8 °C 16,1 km/h (3 Bft)
10.05.2019 08:17 6,8 °C 90 % 1010,2 hPa 0,0 mm 8,6 km/h (2 Bft) W 279 ° 0 min 0,000 mm 0,5 UV-I 79 W/m² 5,3 °C 5,1 °C 16,1 km/h (3 Bft)
10.05.2019 08:18 6,8 °C 90 % 1010,2 hPa 0,0 mm 6,7 km/h (2 Bft) W 259 ° 0 min 0,000 mm 0,5 UV-I 79 W/m² 5,3 °C 5,6 °C 11,3 km/h (2 Bft)
10.05.2019 08:19 6,8 °C 90 % 1010,2 hPa 0,0 mm 6,4 km/h (2 Bft) W 269 ° 0 min 0,000 mm 0,5 UV-I 81 W/m² 5,3 °C 5,7 °C 9,7 km/h (2 Bft)
10.05.2019 08:20 6,8 °C 90 % 1010,2 hPa 0,0 mm 7,8 km/h (2 Bft) W-SW 252 ° 0 min 0,000 mm 0,5 UV-I 83 W/m² 5,3 °C 5,3 °C 14,5 km/h (3 Bft)
10.05.2019 08:21 6,8 °C 90 % 1010,2 hPa 0,0 mm 6,6 km/h (2 Bft) W 259 ° 0 min 0,000 mm 0,5 UV-I 84 W/m² 5,3 °C 5,6 °C 9,7 km/h (2 Bft)
10.05.2019 08:22 6,8 °C 90 % 1010,2 hPa 0,2 mm 3,5 km/h (1 Bft) W 268 ° 0 min 0,000 mm 0,5 UV-I 84 W/m² 5,3 °C 6,8 °C 6,4 km/h (2 Bft)
10.05.2019 08:23 6,8 °C 90 % 1010,2 hPa 0,0 mm 10,2 km/h (2 Bft) W 263 ° 0 min 0,000 mm 0,5 UV-I 84 W/m² 5,3 °C 4,8 °C 16,1 km/h (3 Bft)
10.05.2019 08:24 6,8 °C 90 % 1010,2 hPa 0,0 mm 10,6 km/h (2 Bft) W 268 ° 0 min 0,000 mm 0,5 UV-I 84 W/m² 5,3 °C 4,7 °C 12,9 km/h (3 Bft)
10.05.2019 08:25 6,8 °C 90 % 1010,2 hPa 0,0 mm 4,5 km/h (1 Bft) W 271 ° 0 min 0,000 mm 0,5 UV-I 84 W/m² 5,3 °C 6,8 °C 6,4 km/h (2 Bft)
10.05.2019 08:26 6,8 °C 90 % 1010,3 hPa 0,0 mm 4,2 km/h (1 Bft) W-SW 244 ° 0 min 0,000 mm 0,5 UV-I 84 W/m² 5,3 °C 6,8 °C 8,0 km/h (2 Bft)
10.05.2019 08:27 6,8 °C 90 % 1010,3 hPa 0,0 mm 8,0 km/h (2 Bft) SW 234 ° 0 min 0,000 mm 0,6 UV-I 86 W/m² 5,3 °C 5,2 °C 12,9 km/h (3 Bft)
10.05.2019 08:28 6,8 °C 90 % 1010,3 hPa 0,0 mm 5,2 km/h (1 Bft) W 262 ° 0 min 0,000 mm 0,6 UV-I 90 W/m² 5,3 °C 6,1 °C 9,7 km/h (2 Bft)
10.05.2019 08:29 6,8 °C 90 % 1010,2 hPa 0,0 mm 7,8 km/h (2 Bft) W-SW 253 ° 0 min 0,000 mm 0,6 UV-I 91 W/m² 5,3 °C 5,3 °C 11,3 km/h (2 Bft)
10.05.2019 08:30 6,8 °C 90 % 1010,3 hPa 0,0 mm 3,4 km/h (1 Bft) W 277 ° 0 min 0,000 mm 0,6 UV-I 93 W/m² 5,3 °C 6,8 °C 6,4 km/h (2 Bft)
10.05.2019 08:31 6,8 °C 90 % 1010,2 hPa 0,0 mm 4,8 km/h (1 Bft) W 267 ° 0 min 0,000 mm 0,6 UV-I 95 W/m² 5,3 °C 6,2 °C 6,4 km/h (2 Bft)
10.05.2019 08:32 6,8 °C 90 % 1010,3 hPa 0,0 mm 2,5 km/h (1 Bft) W 261 ° 0 min 0,000 mm 0,6 UV-I 95 W/m² 5,3 °C 6,8 °C 4,8 km/h (1 Bft)
10.05.2019 08:33 6,8 °C 90 % 1010,3 hPa 0,0 mm 4,7 km/h (1 Bft) W-SW 250 ° 0 min 0,000 mm 0,6 UV-I 93 W/m² 5,3 °C 6,2 °C 6,4 km/h (2 Bft)
10.05.2019 08:34 6,8 °C 90 % 1010,3 hPa 0,0 mm 7,4 km/h (2 Bft) W 259 ° 0 min 0,000 mm 0,6 UV-I 93 W/m² 5,3 °C 5,4 °C 12,9 km/h (3 Bft)
10.05.2019 08:35 6,8 °C 90 % 1010,3 hPa 0,0 mm 8,0 km/h (2 Bft) W-NW 290 ° 0 min 0,000 mm 0,6 UV-I 93 W/m² 5,3 °C 5,2 °C 12,9 km/h (3 Bft)
10.05.2019 08:36 6,8 °C 90 % 1010,3 hPa 0,0 mm 5,5 km/h (1 Bft) W-SW 246 ° 0 min 0,000 mm 0,6 UV-I 95 W/m² 5,3 °C 6,0 °C 12,9 km/h (3 Bft)
10.05.2019 08:37 6,8 °C 90 % 1010,2 hPa 0,0 mm 5,1 km/h (1 Bft) S-SW 208 ° 0 min 0,000 mm 0,6 UV-I 98 W/m² 5,3 °C 6,1 °C 9,7 km/h (2 Bft)
10.05.2019 08:38 6,8 °C 90 % 1010,2 hPa 0,0 mm 5,5 km/h (1 Bft) W-SW 252 ° 0 min 0,000 mm 0,7 UV-I 102 W/m² 5,3 °C 6,0 °C 11,3 km/h (2 Bft)
10.05.2019 08:39 6,8 °C 90 % 1010,2 hPa 0,0 mm 3,3 km/h (1 Bft) SW 236 ° 0 min 0,000 mm 0,7 UV-I 104 W/m² 5,3 °C 6,8 °C 8,0 km/h (2 Bft)
10.05.2019 08:40 6,8 °C 90 % 1010,2 hPa 0,0 mm 1,2 km/h (1 Bft) W-SW 250 ° 0 min 0,000 mm 0,7 UV-I 104 W/m² 5,3 °C 6,8 °C 3,2 km/h (1 Bft)
10.05.2019 08:41 6,9 °C 90 % 1010,2 hPa 0,0 mm 7,0 km/h (2 Bft) W-SW 251 ° 0 min 0,000 mm 0,7 UV-I 102 W/m² 5,4 °C 5,6 °C 17,7 km/h (3 Bft)
10.05.2019 08:42 6,9 °C 90 % 1010,3 hPa 0,0 mm 9,1 km/h (2 Bft) SW 236 ° 0 min 0,000 mm 0,7 UV-I 100 W/m² 5,4 °C 5,1 °C 14,5 km/h (3 Bft)
10.05.2019 08:43 6,8 °C 90 % 1010,2 hPa 0,0 mm 5,4 km/h (1 Bft) W 265 ° 0 min 0,000 mm 0,7 UV-I 97 W/m² 5,3 °C 6,0 °C 9,7 km/h (2 Bft)
10.05.2019 08:44 6,9 °C 90 % 1010,3 hPa 0,0 mm 4,8 km/h (1 Bft) W-SW 254 ° 0 min 0,000 mm 0,6 UV-I 95 W/m² 5,4 °C 6,3 °C 8,0 km/h (2 Bft)
10.05.2019 08:45 6,8 °C 90 % 1010,3 hPa 0,0 mm 7,8 km/h (2 Bft) W 281 ° 0 min 0,000 mm 0,6 UV-I 93 W/m² 5,3 °C 5,3 °C 12,9 km/h (3 Bft)
10.05.2019 08:46 6,9 °C 90 % 1010,3 hPa 0,0 mm 7,1 km/h (2 Bft) W-NW 289 ° 0 min 0,000 mm 0,6 UV-I 93 W/m² 5,4 °C 5,6 °C 9,7 km/h (2 Bft)
10.05.2019 08:47 6,9 °C 90 % 1010,3 hPa 0,0 mm 7,3 km/h (2 Bft) W 265 ° 0 min 0,000 mm 0,6 UV-I 91 W/m² 5,4 °C 5,5 °C 11,3 km/h (2 Bft)
10.05.2019 08:48 6,9 °C 90 % 1010,3 hPa 0,0 mm 8,4 km/h (2 Bft) W-SW 247 ° 0 min 0,000 mm 0,6 UV-I 90 W/m² 5,4 °C 5,3 °C 11,3 km/h (2 Bft)
10.05.2019 08:49 6,9 °C 90 % 1010,3 hPa 0,0 mm 13,3 km/h (3 Bft) W-SW 255 ° 0 min 0,000 mm 0,6 UV-I 79 W/m² 5,4 °C 4,3 °C 22,5 km/h (4 Bft)
10.05.2019 08:50 6,9 °C 90 % 1010,3 hPa 0,0 mm 8,0 km/h (2 Bft) W 261 ° 0 min 0,000 mm 0,5 UV-I 76 W/m² 5,4 °C 5,4 °C 14,5 km/h (3 Bft)
10.05.2019 08:51 6,9 °C 90 % 1010,4 hPa 0,0 mm 4,2 km/h (1 Bft) W 273 ° 0 min 0,000 mm 0,5 UV-I 76 W/m² 5,4 °C 6,9 °C 9,7 km/h (2 Bft)
10.05.2019 08:52 6,9 °C 90 % 1010,4 hPa 0,0 mm 5,4 km/h (1 Bft) W 281 ° 0 min 0,000 mm 0,5 UV-I 79 W/m² 5,4 °C 6,1 °C 9,7 km/h (2 Bft)
10.05.2019 08:53 6,8 °C 90 % 1010,4 hPa 0,0 mm 8,7 km/h (2 Bft) W-SW 248 ° 0 min 0,000 mm 0,6 UV-I 86 W/m² 5,3 °C 5,1 °C 14,5 km/h (3 Bft)
10.05.2019 08:54 6,9 °C 90 % 1010,5 hPa 0,0 mm 9,6 km/h (2 Bft) W-SW 257 ° 0 min 0,000 mm 0,6 UV-I 93 W/m² 5,4 °C 5,0 °C 11,3 km/h (2 Bft)
10.05.2019 08:55 6,8 °C 90 % 1010,4 hPa 0,0 mm 12,1 km/h (2 Bft) W-NW 292 ° 0 min 0,000 mm 0,6 UV-I 98 W/m² 5,3 °C 4,4 °C 17,7 km/h (3 Bft)
10.05.2019 08:56 6,8 °C 90 % 1010,5 hPa 0,0 mm 10,1 km/h (2 Bft) W 261 ° 0 min 0,000 mm 0,7 UV-I 100 W/m² 5,3 °C 4,8 °C 17,7 km/h (3 Bft)
10.05.2019 08:57 6,9 °C 90 % 1010,5 hPa 0,0 mm 10,2 km/h (2 Bft) W-SW 243 ° 0 min 0,000 mm 0,7 UV-I 98 W/m² 5,4 °C 4,9 °C 16,1 km/h (3 Bft)
10.05.2019 08:58 6,9 °C 90 % 1010,5 hPa 0,0 mm 11,9 km/h (2 Bft) W-SW 250 ° 0 min 0,000 mm 0,7 UV-I 98 W/m² 5,4 °C 4,6 °C 16,1 km/h (3 Bft)
10.05.2019 08:59 6,9 °C 90 % 1010,5 hPa 0,0 mm 11,1 km/h (2 Bft) W 263 ° 0 min 0,000 mm 0,6 UV-I 97 W/m² 5,4 °C 4,7 °C 14,5 km/h (3 Bft)
10.05.2019 09:00 6,9 °C 90 % 1010,5 hPa 0,2 mm 8,6 km/h (2 Bft) W 279 ° 0 min 0,051 mm 0,6 UV-I 93 W/m² 5,4 °C 5,2 °C 12,9 km/h (3 Bft)
10.05.2019 09:01 6,8 °C 90 % 1010,5 hPa 0,0 mm 4,1 km/h (1 Bft) W 265 ° 0 min 0,000 mm 0,6 UV-I 88 W/m² 5,3 °C 6,8 °C 6,4 km/h (2 Bft)
10.05.2019 09:02 6,9 °C 90 % 1010,5 hPa 0,0 mm 2,5 km/h (1 Bft) W 265 ° 0 min 0,000 mm 0,6 UV-I 86 W/m² 5,4 °C 6,9 °C 6,4 km/h (2 Bft)
10.05.2019 09:03 6,9 °C 90 % 1010,5 hPa 0,0 mm 4,9 km/h (1 Bft) SW 221 ° 0 min 0,000 mm 0,6 UV-I 84 W/m² 5,4 °C 6,3 °C 8,0 km/h (2 Bft)
10.05.2019 09:04 6,8 °C 90 % 1010,5 hPa 0,0 mm 2,7 km/h (1 Bft) W 277 ° 0 min 0,000 mm 0,6 UV-I 84 W/m² 5,3 °C 6,8 °C 9,7 km/h (2 Bft)
10.05.2019 09:05 6,9 °C 90 % 1010,5 hPa 0,0 mm 7,8 km/h (2 Bft) W 267 ° 0 min 0,000 mm 0,6 UV-I 90 W/m² 5,4 °C 5,4 °C 14,5 km/h (3 Bft)
10.05.2019 09:06 6,9 °C 90 % 1010,5 hPa 0,0 mm 6,7 km/h (2 Bft) SW 229 ° 0 min 0,000 mm 0,7 UV-I 98 W/m² 5,4 °C 5,7 °C 9,7 km/h (2 Bft)
10.05.2019 09:07 6,9 °C 90 % 1010,4 hPa 0,0 mm 4,4 km/h (1 Bft) S-SW 205 ° 0 min 0,000 mm 0,8 UV-I 125 W/m² 5,4 °C 6,9 °C 6,4 km/h (2 Bft)
10.05.2019 09:08 6,8 °C 90 % 1010,4 hPa 0,0 mm 7,1 km/h (2 Bft) W-SW 242 ° 0 min 0,000 mm 0,9 UV-I 134 W/m² 5,3 °C 5,5 °C 12,9 km/h (3 Bft)
10.05.2019 09:09 6,9 °C 90 % 1010,4 hPa 0,0 mm 4,0 km/h (1 Bft) W-SW 242 ° 0 min 0,000 mm 0,9 UV-I 134 W/m² 5,4 °C 6,9 °C 4,8 km/h (1 Bft)
10.05.2019 09:10 6,9 °C 91 % 1010,5 hPa 0,0 mm 7,3 km/h (2 Bft) W 279 ° 0 min 0,000 mm 1,0 UV-I 146 W/m² 5,5 °C 5,5 °C 12,9 km/h (3 Bft)
10.05.2019 09:11 6,9 °C 91 % 1010,5 hPa 0,0 mm 6,4 km/h (2 Bft) W 261 ° 0 min 0,000 mm 1,0 UV-I 148 W/m² 5,5 °C 5,8 °C 11,3 km/h (2 Bft)
10.05.2019 09:12 6,9 °C 90 % 1010,5 hPa 0,0 mm 5,0 km/h (1 Bft) W-NW 282 ° 0 min 0,000 mm 1,0 UV-I 148 W/m² 5,4 °C 6,2 °C 6,4 km/h (2 Bft)
10.05.2019 09:13 7,0 °C 90 % 1010,5 hPa 0,0 mm 5,2 km/h (1 Bft) SW 227 ° 0 min 0,000 mm 1,0 UV-I 155 W/m² 5,5 °C 6,3 °C 9,7 km/h (2 Bft)
10.05.2019 09:14 7,0 °C 90 % 1010,5 hPa 0,2 mm 3,1 km/h (1 Bft) W-SW 244 ° 0 min 0,000 mm 1,1 UV-I 158 W/m² 5,5 °C 7,0 °C 4,8 km/h (1 Bft)
10.05.2019 09:15 7,0 °C 90 % 1010,5 hPa 0,0 mm 4,4 km/h (1 Bft) W-SW 244 ° 0 min 0,000 mm 1,1 UV-I 163 W/m² 5,5 °C 7,0 °C 6,4 km/h (2 Bft)
10.05.2019 09:16 7,1 °C 90 % 1010,5 hPa 0,0 mm 3,1 km/h (1 Bft) W 263 ° 0 min 0,000 mm 1,2 UV-I 169 W/m² 5,6 °C 7,1 °C 4,8 km/h (1 Bft)
10.05.2019 09:17 7,2 °C 90 % 1010,4 hPa 0,0 mm 4,4 km/h (1 Bft) W-SW 252 ° 0 min 0,000 mm 1,2 UV-I 176 W/m² 5,7 °C 7,2 °C 6,4 km/h (2 Bft)
10.05.2019 09:18 7,2 °C 90 % 1010,4 hPa 0,0 mm 2,3 km/h (1 Bft) W-SW 246 ° 0 min 0,000 mm 1,2 UV-I 179 W/m² 5,7 °C 7,2 °C 4,8 km/h (1 Bft)
10.05.2019 09:19 7,2 °C 90 % 1010,5 hPa 0,0 mm 2,3 km/h (1 Bft) W-SW 248 ° 0 min 0,000 mm 1,2 UV-I 178 W/m² 5,7 °C 7,2 °C 4,8 km/h (1 Bft)
10.05.2019 09:20 7,3 °C 90 % 1010,5 hPa 0,0 mm 2,8 km/h (1 Bft) W 262 ° 0 min 0,000 mm 1,2 UV-I 174 W/m² 5,8 °C 7,3 °C 4,8 km/h (1 Bft)
10.05.2019 09:21 7,3 °C 90 % 1010,5 hPa 0,0 mm 1,1 km/h (1 Bft) W 263 ° 0 min 0,000 mm 1,1 UV-I 171 W/m² 5,8 °C 7,3 °C 3,2 km/h (1 Bft)
10.05.2019 09:22 7,3 °C 90 % 1010,5 hPa 0,0 mm 3,4 km/h (1 Bft) W-SW 254 ° 0 min 0,000 mm 1,1 UV-I 167 W/m² 5,8 °C 7,3 °C 6,4 km/h (2 Bft)
10.05.2019 09:23 7,3 °C 90 % 1010,5 hPa 0,0 mm 1,1 km/h (1 Bft) S-SW 205 ° 0 min 0,000 mm 1,1 UV-I 163 W/m² 5,8 °C 7,3 °C 3,2 km/h (1 Bft)
10.05.2019 09:24 7,4 °C 90 % 1010,6 hPa 0,0 mm 3,3 km/h (1 Bft) S-SW 200 ° 0 min 0,000 mm 1,1 UV-I 165 W/m² 5,9 °C 7,4 °C 6,4 km/h (2 Bft)
10.05.2019 09:25 7,4 °C 90 % 1010,5 hPa 0,0 mm 0,0 km/h (0 Bft) S-SW 200 ° 0 min 0,000 mm 1,2 UV-I 167 W/m² 5,9 °C 7,4 °C 0,0 km/h (0 Bft)
10.05.2019 09:26 7,4 °C 90 % 1010,5 hPa 0,0 mm 0,9 km/h (0 Bft) S 173 ° 0 min 0,000 mm 1,2 UV-I 171 W/m² 5,9 °C 7,4 °C 4,8 km/h (1 Bft)
10.05.2019 09:27 7,6 °C 90 % 1010,4 hPa 0,0 mm 0,0 km/h (0 Bft) SW 225 ° 0 min 0,000 mm 1,2 UV-I 172 W/m² 6,1 °C 7,6 °C 0,0 km/h (0 Bft)
10.05.2019 09:28 7,6 °C 90 % 1010,4 hPa 0,0 mm 1,5 km/h (1 Bft) SW 219 ° 0 min 0,000 mm 1,2 UV-I 174 W/m² 6,1 °C 7,6 °C 4,8 km/h (1 Bft)
10.05.2019 09:29 7,6 °C 90 % 1010,4 hPa 0,0 mm 1,5 km/h (1 Bft) SW 215 ° 0 min 0,000 mm 1,2 UV-I 174 W/m² 6,1 °C 7,6 °C 4,8 km/h (1 Bft)
10.05.2019 09:30 7,6 °C 90 % 1010,4 hPa 0,0 mm 2,8 km/h (1 Bft) SW 236 ° 0 min 0,000 mm 1,2 UV-I 172 W/m² 6,1 °C 7,6 °C 4,8 km/h (1 Bft)
10.05.2019 09:31 7,7 °C 90 % 1010,3 hPa 0,0 mm 0,0 km/h (0 Bft) SW 236 ° 0 min 0,000 mm 1,2 UV-I 172 W/m² 6,2 °C 7,7 °C 0,0 km/h (0 Bft)
10.05.2019 09:32 7,7 °C 90 % 1010,4 hPa 0,0 mm 4,1 km/h (1 Bft) W-SW 257 ° 0 min 0,000 mm 1,2 UV-I 176 W/m² 6,2 °C 7,7 °C 4,8 km/h (1 Bft)
10.05.2019 09:33 7,7 °C 90 % 1010,4 hPa 0,0 mm 2,4 km/h (1 Bft) SW 220 ° 0 min 0,000 mm 1,3 UV-I 179 W/m² 6,2 °C 7,7 °C 4,8 km/h (1 Bft)
10.05.2019 09:34 7,7 °C 90 % 1010,4 hPa 0,0 mm 1,1 km/h (1 Bft) SW 220 ° 0 min 0,000 mm 1,3 UV-I 185 W/m² 6,2 °C 7,7 °C 4,8 km/h (1 Bft)
10.05.2019 09:35 7,8 °C 90 % 1010,4 hPa 0,0 mm 0,3 km/h (0 Bft) SW 220 ° 0 min 0,000 mm 1,3 UV-I 188 W/m² 6,3 °C 7,8 °C 1,6 km/h (1 Bft)
10.05.2019 09:36 7,7 °C 90 % 1010,4 hPa 0,0 mm 0,6 km/h (0 Bft) SW 225 ° 0 min 0,000 mm 1,3 UV-I 192 W/m² 6,2 °C 7,7 °C 1,6 km/h (1 Bft)
10.05.2019 09:37 7,8 °C 90 % 1010,3 hPa 0,0 mm 0,0 km/h (0 Bft) SW 225 ° 0 min 0,000 mm 1,4 UV-I 193 W/m² 6,3 °C 7,8 °C 0,0 km/h (0 Bft)
10.05.2019 09:38 7,8 °C 91 % 1010,3 hPa 0,0 mm 2,2 km/h (1 Bft) W 270 ° 0 min 0,000 mm 1,4 UV-I 197 W/m² 6,4 °C 7,8 °C 3,2 km/h (1 Bft)
10.05.2019 09:39 7,8 °C 91 % 1010,4 hPa 0,0 mm 1,2 km/h (1 Bft) W 267 ° 0 min 0,000 mm 1,5 UV-I 202 W/m² 6,4 °C 7,8 °C 3,2 km/h (1 Bft)
10.05.2019 09:40 7,8 °C 91 % 1010,4 hPa 0,0 mm 0,1 km/h (0 Bft) W 267 ° 0 min 0,000 mm 1,5 UV-I 209 W/m² 6,4 °C 7,8 °C 1,6 km/h (1 Bft)
10.05.2019 09:41 7,9 °C 90 % 1010,4 hPa 0,0 mm 1,6 km/h (1 Bft) W-SW 254 ° 0 min 0,000 mm 1,5 UV-I 209 W/m² 6,4 °C 7,9 °C 3,2 km/h (1 Bft)
10.05.2019 09:42 7,9 °C 91 % 1010,4 hPa 0,0 mm 1,5 km/h (1 Bft) W-SW 243 ° 0 min 0,000 mm 1,5 UV-I 213 W/m² 6,5 °C 7,9 °C 4,8 km/h (1 Bft)
10.05.2019 09:43 8,1 °C 91 % 1010,3 hPa 0,0 mm 1,2 km/h (1 Bft) W-SW 243 ° 0 min 0,000 mm 1,6 UV-I 220 W/m² 6,7 °C 8,1 °C 4,8 km/h (1 Bft)
10.05.2019 09:44 8,2 °C 91 % 1010,3 hPa 0,0 mm 0,2 km/h (0 Bft) W-SW 243 ° 0 min 0,000 mm 1,6 UV-I 225 W/m² 6,8 °C 8,2 °C 1,6 km/h (1 Bft)
10.05.2019 09:45 8,3 °C 91 % 1010,3 hPa 0,0 mm 2,0 km/h (1 Bft) W-NW 284 ° 0 min 0,000 mm 1,7 UV-I 232 W/m² 6,9 °C 8,3 °C 4,8 km/h (1 Bft)
10.05.2019 09:46 8,3 °C 90 % 1010,3 hPa 0,0 mm 2,0 km/h (1 Bft) W 276 ° 0 min 0,000 mm 1,7 UV-I 237 W/m² 6,8 °C 8,3 °C 4,8 km/h (1 Bft)
10.05.2019 09:47 8,3 °C 90 % 1010,4 hPa 0,0 mm 3,3 km/h (1 Bft) W-NW 284 ° 0 min 0,000 mm 1,8 UV-I 258 W/m² 6,8 °C 8,3 °C 4,8 km/h (1 Bft)
10.05.2019 09:48 8,4 °C 89 % 1010,4 hPa 0,0 mm 1,8 km/h (1 Bft) W-NW 285 ° 0 min 0,000 mm 1,8 UV-I 262 W/m² 6,7 °C 8,4 °C 3,2 km/h (1 Bft)
10.05.2019 09:49 8,4 °C 89 % 1010,5 hPa 0,0 mm 3,4 km/h (1 Bft) W-SW 238 ° 0 min 0,000 mm 1,8 UV-I 258 W/m² 6,7 °C 8,4 °C 4,8 km/h (1 Bft)
10.05.2019 09:50 8,6 °C 89 % 1010,5 hPa 0,0 mm 2,7 km/h (1 Bft) S-SW 209 ° 0 min 0,000 mm 1,8 UV-I 257 W/m² 6,9 °C 8,6 °C 4,8 km/h (1 Bft)
10.05.2019 09:51 8,6 °C 89 % 1010,4 hPa 0,0 mm 1,1 km/h (1 Bft) SW 225 ° 0 min 0,000 mm 1,8 UV-I 257 W/m² 6,9 °C 8,6 °C 3,2 km/h (1 Bft)
10.05.2019 09:52 8,7 °C 89 % 1010,4 hPa 0,0 mm 3,8 km/h (1 Bft) W-NW 282 ° 0 min 0,000 mm 1,8 UV-I 255 W/m² 7,0 °C 8,7 °C 4,8 km/h (1 Bft)
10.05.2019 09:53 8,8 °C 88 % 1010,4 hPa 0,0 mm 6,6 km/h (2 Bft) S-SW 211 ° 0 min 0,000 mm 1,8 UV-I 269 W/m² 6,9 °C 7,9 °C 11,3 km/h (2 Bft)
10.05.2019 09:54 8,7 °C 87 % 1010,4 hPa 0,0 mm 6,2 km/h (2 Bft) W-SW 257 ° 0 min 0,000 mm 1,9 UV-I 292 W/m² 6,7 °C 7,9 °C 9,7 km/h (2 Bft)
10.05.2019 09:55 8,7 °C 86 % 1010,4 hPa 0,0 mm 5,0 km/h (1 Bft) SW 229 ° 0 min 0,000 mm 2,0 UV-I 308 W/m² 6,5 °C 8,3 °C 8,0 km/h (2 Bft)
10.05.2019 09:56 8,7 °C 85 % 1010,4 hPa 0,0 mm 0,9 km/h (0 Bft) SW 231 ° 0 min 0,000 mm 2,1 UV-I 323 W/m² 6,3 °C 8,7 °C 1,6 km/h (1 Bft)
10.05.2019 09:57 8,8 °C 86 % 1010,4 hPa 0,0 mm 2,9 km/h (1 Bft) W-SW 252 ° 0 min 0,000 mm 2,1 UV-I 322 W/m² 6,6 °C 8,8 °C 8,0 km/h (2 Bft)
10.05.2019 09:58 8,9 °C 86 % 1010,4 hPa 0,0 mm 5,9 km/h (2 Bft) W-SW 240 ° 0 min 0,000 mm 2,2 UV-I 325 W/m² 6,7 °C 8,2 °C 6,4 km/h (2 Bft)
10.05.2019 09:59 9,0 °C 86 % 1010,4 hPa 0,0 mm 4,0 km/h (1 Bft) W 269 ° 0 min 0,000 mm 2,1 UV-I 302 W/m² 6,8 °C 9,0 °C 9,7 km/h (2 Bft)
10.05.2019 10:00 9,1 °C 87 % 1010,4 hPa 0,0 mm 3,4 km/h (1 Bft) W 281 ° 0 min 0,000 mm 2,1 UV-I 327 W/m² 7,1 °C 9,1 °C 8,0 km/h (2 Bft)
10.05.2019 10:01 9,1 °C 87 % 1010,4 hPa 0,0 mm 3,9 km/h (1 Bft) W-SW 256 ° 0 min 0,076 mm 2,3 UV-I 339 W/m² 7,1 °C 9,1 °C 6,4 km/h (2 Bft)
10.05.2019 10:02 9,1 °C 86 % 1010,5 hPa 0,0 mm 5,2 km/h (1 Bft) W-SW 252 ° 0 min 0,000 mm 2,4 UV-I 366 W/m² 6,9 °C 8,7 °C 9,7 km/h (2 Bft)
10.05.2019 10:03 9,1 °C 85 % 1010,5 hPa 0,0 mm 4,2 km/h (1 Bft) W 263 ° 0 min 0,000 mm 2,4 UV-I 357 W/m² 6,7 °C 9,1 °C 4,8 km/h (1 Bft)
10.05.2019 10:04 9,2 °C 86 % 1010,4 hPa 0,0 mm 4,9 km/h (1 Bft) W 262 ° 0 min 0,000 mm 2,4 UV-I 367 W/m² 7,0 °C 8,9 °C 9,7 km/h (2 Bft)
10.05.2019 10:05 9,2 °C 85 % 1010,5 hPa 0,0 mm 4,1 km/h (1 Bft) W-SW 252 ° 0 min 0,000 mm 2,5 UV-I 394 W/m² 6,8 °C 9,2 °C 4,8 km/h (1 Bft)
10.05.2019 10:06 9,2 °C 83 % 1010,5 hPa 0,0 mm 4,0 km/h (1 Bft) W-SW 239 ° 0 min 0,000 mm 2,7 UV-I 454 W/m² 6,5 °C 9,2 °C 6,4 km/h (2 Bft)
10.05.2019 10:07 9,3 °C 85 % 1010,5 hPa 0,0 mm 3,2 km/h (1 Bft) W-SW 241 ° 0 min 0,000 mm 2,6 UV-I 410 W/m² 6,9 °C 9,3 °C 8,0 km/h (2 Bft)
10.05.2019 10:08 9,3 °C 84 % 1010,5 hPa 0,0 mm 3,3 km/h (1 Bft) W-SW 240 ° 0 min 0,000 mm 2,5 UV-I 410 W/m² 6,7 °C 9,3 °C 6,4 km/h (2 Bft)
10.05.2019 10:09 9,3 °C 84 % 1010,5 hPa 0,0 mm 2,8 km/h (1 Bft) SW 232 ° 0 min 0,000 mm 2,5 UV-I 353 W/m² 6,7 °C 9,3 °C 4,8 km/h (1 Bft)
10.05.2019 10:10 9,4 °C 85 % 1010,5 hPa 0,0 mm 1,1 km/h (1 Bft) W-SW 237 ° 0 min 0,000 mm 2,5 UV-I 376 W/m² 7,0 °C 9,4 °C 6,4 km/h (2 Bft)
10.05.2019 10:11 9,4 °C 84 % 1010,5 hPa 0,0 mm 5,2 km/h (1 Bft) S-SW 201 ° 0 min 0,000 mm 2,4 UV-I 343 W/m² 6,8 °C 9,0 °C 6,4 km/h (2 Bft)
10.05.2019 10:12 9,4 °C 83 % 1010,5 hPa 0,0 mm 4,6 km/h (1 Bft) S-SW 193 ° 0 min 0,000 mm 2,4 UV-I 345 W/m² 6,7 °C 9,2 °C 6,4 km/h (2 Bft)
10.05.2019 10:13 9,4 °C 84 % 1010,5 hPa 0,0 mm 4,2 km/h (1 Bft) S 181 ° 0 min 0,000 mm 2,5 UV-I 350 W/m² 6,8 °C 9,4 °C 6,4 km/h (2 Bft)
10.05.2019 10:14 9,3 °C 83 % 1010,5 hPa 0,0 mm 3,9 km/h (1 Bft) SW 236 ° 0 min 0,000 mm 2,5 UV-I 350 W/m² 6,6 °C 9,3 °C 6,4 km/h (2 Bft)
10.05.2019 10:15 9,4 °C 83 % 1010,5 hPa 0,0 mm 1,0 km/h (0 Bft) SW 232 ° 0 min 0,000 mm 2,5 UV-I 355 W/m² 6,7 °C 9,4 °C 4,8 km/h (1 Bft)
10.05.2019 10:16 9,4 °C 85 % 1010,5 hPa 0,0 mm 0,4 km/h (0 Bft) SW 233 ° 0 min 0,000 mm 2,5 UV-I 376 W/m² 7,0 °C 9,4 °C 1,6 km/h (1 Bft)
10.05.2019 10:17 9,6 °C 85 % 1010,5 hPa 0,0 mm 1,8 km/h (1 Bft) W 266 ° 0 min 0,000 mm 2,7 UV-I 413 W/m² 7,2 °C 9,6 °C 4,8 km/h (1 Bft)
10.05.2019 10:18 9,6 °C 85 % 1010,6 hPa 0,0 mm 2,7 km/h (1 Bft) W 271 ° 0 min 0,000 mm 2,9 UV-I 429 W/m² 7,2 °C 9,6 °C 6,4 km/h (2 Bft)
10.05.2019 10:19 9,8 °C 86 % 1010,6 hPa 0,0 mm 3,7 km/h (1 Bft) W 274 ° 0 min 0,000 mm 2,9 UV-I 457 W/m² 7,6 °C 9,8 °C 4,8 km/h (1 Bft)
10.05.2019 10:20 9,8 °C 85 % 1010,6 hPa 0,0 mm 4,4 km/h (1 Bft) W 270 ° 0 min 0,000 mm 2,9 UV-I 485 W/m² 7,4 °C 9,8 °C 6,4 km/h (2 Bft)
10.05.2019 10:21 9,8 °C 85 % 1010,6 hPa 0,0 mm 4,8 km/h (1 Bft) W-NW 288 ° 0 min 0,000 mm 2,7 UV-I 413 W/m² 7,4 °C 9,6 °C 6,4 km/h (2 Bft)
10.05.2019 10:22 9,7 °C 82 % 1010,6 hPa 0,0 mm 0,9 km/h (0 Bft) W-NW 283 ° 0 min 0,000 mm 2,6 UV-I 411 W/m² 6,8 °C 9,7 °C 3,2 km/h (1 Bft)
10.05.2019 10:23 9,7 °C 82 % 1010,6 hPa 0,0 mm 4,2 km/h (1 Bft) W 259 ° 0 min 0,000 mm 2,6 UV-I 369 W/m² 6,8 °C 9,7 °C 8,0 km/h (2 Bft)
10.05.2019 10:24 9,8 °C 84 % 1010,6 hPa 0,0 mm 6,0 km/h (2 Bft) W 269 ° 0 min 0,000 mm 2,2 UV-I 329 W/m² 7,2 °C 9,2 °C 9,7 km/h (2 Bft)
10.05.2019 10:25 9,8 °C 85 % 1010,6 hPa 0,0 mm 6,7 km/h (2 Bft) W 265 ° 0 min 0,000 mm 2,1 UV-I 311 W/m² 7,4 °C 9,1 °C 11,3 km/h (2 Bft)
10.05.2019 10:26 9,8 °C 83 % 1010,6 hPa 0,0 mm 6,1 km/h (2 Bft) W-SW 247 ° 0 min 0,000 mm 2,0 UV-I 294 W/m² 7,1 °C 9,2 °C 8,0 km/h (2 Bft)
10.05.2019 10:27 9,8 °C 83 % 1010,5 hPa 0,0 mm 7,1 km/h (2 Bft) W-SW 255 ° 0 min 0,000 mm 1,9 UV-I 276 W/m² 7,1 °C 9,0 °C 9,7 km/h (2 Bft)
10.05.2019 10:28 9,8 °C 83 % 1010,6 hPa 0,0 mm 1,5 km/h (1 Bft) W-SW 255 ° 0 min 0,000 mm 1,8 UV-I 262 W/m² 7,1 °C 9,8 °C 4,8 km/h (1 Bft)
10.05.2019 10:29 9,8 °C 83 % 1010,6 hPa 0,0 mm 4,8 km/h (1 Bft) W 267 ° 0 min 0,000 mm 1,8 UV-I 258 W/m² 7,1 °C 9,6 °C 9,7 km/h (2 Bft)
10.05.2019 10:30 9,8 °C 82 % 1010,5 hPa 0,0 mm 4,4 km/h (1 Bft) W-SW 255 ° 0 min 0,000 mm 1,9 UV-I 271 W/m² 6,9 °C 9,8 °C 8,0 km/h (2 Bft)
10.05.2019 10:31 9,8 °C 82 % 1010,6 hPa 0,0 mm 1,0 km/h (0 Bft) W 266 ° 0 min 0,000 mm 2,0 UV-I 278 W/m² 6,9 °C 9,8 °C 4,8 km/h (1 Bft)
10.05.2019 10:32 9,9 °C 82 % 1010,6 hPa 0,0 mm 7,3 km/h (2 Bft) N-NW 332 ° 0 min 0,000 mm 2,0 UV-I 279 W/m² 7,0 °C 9,0 °C 12,9 km/h (3 Bft)
10.05.2019 10:33 9,9 °C 80 % 1010,6 hPa 0,0 mm 7,9 km/h (2 Bft) W-NW 291 ° 0 min 0,000 mm 2,1 UV-I 290 W/m² 6,6 °C 8,9 °C 11,3 km/h (2 Bft)
10.05.2019 10:34 9,9 °C 81 % 1010,6 hPa 0,0 mm 0,5 km/h (0 Bft) W-NW 290 ° 0 min 0,000 mm 2,2 UV-I 304 W/m² 6,8 °C 9,9 °C 3,2 km/h (1 Bft)
10.05.2019 10:35 9,9 °C 81 % 1010,5 hPa 0,0 mm 1,8 km/h (1 Bft) W 281 ° 0 min 0,000 mm 2,2 UV-I 304 W/m² 6,8 °C 9,9 °C 4,8 km/h (1 Bft)
10.05.2019 10:36 9,9 °C 80 % 1010,6 hPa 0,0 mm 4,0 km/h (1 Bft) W-NW 299 ° 0 min 0,000 mm 2,2 UV-I 308 W/m² 6,6 °C 9,9 °C 4,8 km/h (1 Bft)
10.05.2019 10:37 10,1 °C 81 % 1010,6 hPa 0,0 mm 6,9 km/h (2 Bft) W-SW 252 ° 0 min 0,000 mm 2,2 UV-I 309 W/m² 7,0 °C 10,1 °C 11,3 km/h (2 Bft)
10.05.2019 10:38 10,1 °C 82 % 1010,6 hPa 0,0 mm 3,9 km/h (1 Bft) W 265 ° 0 min 0,000 mm 2,2 UV-I 313 W/m² 7,2 °C 10,1 °C 6,4 km/h (2 Bft)
10.05.2019 10:39 10,1 °C 80 % 1010,6 hPa 0,0 mm 4,8 km/h (1 Bft) N-NW 334 ° 0 min 0,000 mm 2,2 UV-I 313 W/m² 6,8 °C 10,1 °C 11,3 km/h (2 Bft)
10.05.2019 10:40 10,1 °C 79 % 1010,6 hPa 0,0 mm 10,0 km/h (2 Bft) W-NW 289 ° 0 min 0,000 mm 2,2 UV-I 329 W/m² 6,6 °C 10,1 °C 19,3 km/h (3 Bft)
10.05.2019 10:41 10,2 °C 79 % 1010,6 hPa 0,0 mm 6,9 km/h (2 Bft) W 273 ° 0 min 0,000 mm 2,3 UV-I 346 W/m² 6,7 °C 10,2 °C 11,3 km/h (2 Bft)
10.05.2019 10:42 10,3 °C 81 % 1010,6 hPa 0,0 mm 5,0 km/h (1 Bft) W 271 ° 0 min 0,000 mm 2,9 UV-I 404 W/m² 7,2 °C 10,3 °C 9,7 km/h (2 Bft)
10.05.2019 10:43 10,3 °C 81 % 1010,6 hPa 0,0 mm 5,0 km/h (1 Bft) W 259 ° 0 min 0,000 mm 2,5 UV-I 394 W/m² 7,2 °C 10,3 °C 6,4 km/h (2 Bft)
10.05.2019 10:44 10,4 °C 80 % 1010,5 hPa 0,0 mm 5,3 km/h (1 Bft) W 280 ° 0 min 0,000 mm 2,3 UV-I 359 W/m² 7,1 °C 10,4 °C 6,4 km/h (2 Bft)
10.05.2019 10:45 10,4 °C 79 % 1010,6 hPa 0,0 mm 4,0 km/h (1 Bft) W-NW 290 ° 0 min 0,000 mm 2,2 UV-I 330 W/m² 6,9 °C 10,4 °C 4,8 km/h (1 Bft)
10.05.2019 10:46 10,3 °C 79 % 1010,5 hPa 0,0 mm 7,0 km/h (2 Bft) W-NW 292 ° 0 min 0,000 mm 2,1 UV-I 294 W/m² 6,8 °C 10,3 °C 12,9 km/h (3 Bft)
10.05.2019 10:47 10,3 °C 78 % 1010,6 hPa 0,0 mm 6,0 km/h (2 Bft) W 264 ° 0 min 0,000 mm 2,0 UV-I 287 W/m² 6,6 °C 10,3 °C 9,7 km/h (2 Bft)
10.05.2019 10:48 10,2 °C 77 % 1010,6 hPa 0,0 mm 9,2 km/h (2 Bft) W 259 ° 0 min 0,000 mm 1,9 UV-I 283 W/m² 6,4 °C 10,2 °C 11,3 km/h (2 Bft)
10.05.2019 10:49 10,3 °C 79 % 1010,6 hPa 0,0 mm 7,4 km/h (2 Bft) W-NW 293 ° 0 min 0,000 mm 1,9 UV-I 279 W/m² 6,8 °C 10,3 °C 11,3 km/h (2 Bft)
10.05.2019 10:50 10,3 °C 81 % 1010,6 hPa 0,0 mm 6,6 km/h (2 Bft) W 265 ° 0 min 0,000 mm 1,9 UV-I 276 W/m² 7,2 °C 10,3 °C 11,3 km/h (2 Bft)
10.05.2019 10:51 10,3 °C 78 % 1010,6 hPa 0,0 mm 5,6 km/h (1 Bft) W-NW 296 ° 0 min 0,000 mm 1,9 UV-I 274 W/m² 6,6 °C 10,3 °C 9,7 km/h (2 Bft)
10.05.2019 10:52 10,3 °C 79 % 1010,6 hPa 0,0 mm 7,3 km/h (2 Bft) NW 309 ° 0 min 0,000 mm 1,9 UV-I 276 W/m² 6,8 °C 10,3 °C 9,7 km/h (2 Bft)
10.05.2019 10:53 10,3 °C 78 % 1010,6 hPa 0,0 mm 2,8 km/h (1 Bft) W-NW 298 ° 0 min 0,000 mm 2,0 UV-I 278 W/m² 6,6 °C 10,3 °C 8,0 km/h (2 Bft)
10.05.2019 10:54 10,3 °C 79 % 1010,6 hPa 0,0 mm 3,5 km/h (1 Bft) W-NW 292 ° 0 min 0,000 mm 2,0 UV-I 279 W/m² 6,8 °C 10,3 °C 6,4 km/h (2 Bft)
10.05.2019 10:55 10,3 °C 81 % 1010,7 hPa 0,0 mm 4,8 km/h (1 Bft) W 269 ° 0 min 0,000 mm 2,0 UV-I 278 W/m² 7,2 °C 10,3 °C 8,0 km/h (2 Bft)
10.05.2019 10:56 10,3 °C 80 % 1010,7 hPa 0,0 mm 3,2 km/h (1 Bft) W 268 ° 0 min 0,000 mm 1,9 UV-I 274 W/m² 7,0 °C 10,3 °C 4,8 km/h (1 Bft)
10.05.2019 10:57 10,4 °C 79 % 1010,7 hPa 0,0 mm 0,6 km/h (0 Bft) W 268 ° 0 min 0,000 mm 1,9 UV-I 271 W/m² 6,9 °C 10,4 °C 3,2 km/h (1 Bft)
10.05.2019 10:58 10,4 °C 79 % 1010,7 hPa 0,0 mm 4,5 km/h (1 Bft) W-NW 288 ° 0 min 0,000 mm 1,9 UV-I 265 W/m² 6,9 °C 10,4 °C 6,4 km/h (2 Bft)
10.05.2019 10:59 10,3 °C 78 % 1010,7 hPa 0,0 mm 7,7 km/h (2 Bft) W-NW 291 ° 0 min 0,000 mm 1,9 UV-I 265 W/m² 6,6 °C 10,3 °C 11,3 km/h (2 Bft)
10.05.2019 11:00 10,3 °C 77 % 1010,7 hPa 0,0 mm 7,1 km/h (2 Bft) W 260 ° 0 min 0,000 mm 2,0 UV-I 267 W/m² 6,4 °C 10,3 °C 11,3 km/h (2 Bft)
10.05.2019 11:01 10,3 °C 79 % 1010,7 hPa 0,0 mm 10,2 km/h (2 Bft) W 259 ° 0 min 0,153 mm 2,0 UV-I 272 W/m² 6,8 °C 10,3 °C 12,9 km/h (3 Bft)
10.05.2019 11:02 10,2 °C 77 % 1010,7 hPa 0,0 mm 4,0 km/h (1 Bft) W-NW 284 ° 0 min 0,000 mm 2,1 UV-I 283 W/m² 6,4 °C 10,2 °C 6,4 km/h (2 Bft)
10.05.2019 11:03 10,3 °C 79 % 1010,7 hPa 0,0 mm 3,8 km/h (1 Bft) W-NW 296 ° 0 min 0,000 mm 2,2 UV-I 292 W/m² 6,8 °C 10,3 °C 9,7 km/h (2 Bft)
10.05.2019 11:04 10,3 °C 79 % 1010,7 hPa 0,0 mm 10,0 km/h (2 Bft) W-SW 248 ° 0 min 0,000 mm 2,3 UV-I 323 W/m² 6,8 °C 10,3 °C 12,9 km/h (3 Bft)
10.05.2019 11:05 10,4 °C 81 % 1010,7 hPa 0,0 mm 3,5 km/h (1 Bft) W 279 ° 0 min 0,000 mm 2,5 UV-I 334 W/m² 7,3 °C 10,4 °C 4,8 km/h (1 Bft)
10.05.2019 11:06 10,5 °C 80 % 1010,7 hPa 0,0 mm 6,6 km/h (2 Bft) W 259 ° 0 min 0,000 mm 2,5 UV-I 332 W/m² 7,2 °C 10,5 °C 12,9 km/h (3 Bft)
10.05.2019 11:07 10,4 °C 77 % 1010,7 hPa 0,0 mm 6,9 km/h (2 Bft) W-NW 284 ° 0 min 0,000 mm 2,5 UV-I 338 W/m² 6,5 °C 10,4 °C 11,3 km/h (2 Bft)
10.05.2019 11:08 10,4 °C 77 % 1010,7 hPa 0,0 mm 5,6 km/h (1 Bft) NW 304 ° 0 min 0,000 mm 2,6 UV-I 345 W/m² 6,5 °C 10,4 °C 11,3 km/h (2 Bft)
10.05.2019 11:09 10,4 °C 77 % 1010,7 hPa 0,0 mm 5,4 km/h (1 Bft) W 272 ° 0 min 0,000 mm 2,5 UV-I 345 W/m² 6,5 °C 10,4 °C 11,3 km/h (2 Bft)
10.05.2019 11:10 10,5 °C 78 % 1010,7 hPa 0,0 mm 5,3 km/h (1 Bft) W-NW 292 ° 0 min 0,000 mm 2,5 UV-I 332 W/m² 6,8 °C 10,5 °C 9,7 km/h (2 Bft)
10.05.2019 11:11 10,6 °C 79 % 1010,8 hPa 0,0 mm 9,7 km/h (2 Bft) NW 319 ° 0 min 0,000 mm 2,5 UV-I 330 W/m² 7,1 °C 10,6 °C 12,9 km/h (3 Bft)
10.05.2019 11:12 10,6 °C 77 % 1010,8 hPa 0,0 mm 6,6 km/h (2 Bft) W 280 ° 0 min 0,000 mm 2,5 UV-I 332 W/m² 6,7 °C 10,6 °C 11,3 km/h (2 Bft)
10.05.2019 11:13 10,6 °C 76 % 1010,8 hPa 0,0 mm 8,3 km/h (2 Bft) SW 221 ° 0 min 0,000 mm 2,5 UV-I 332 W/m² 6,5 °C 10,6 °C 12,9 km/h (3 Bft)
10.05.2019 11:14 10,4 °C 75 % 1010,9 hPa 0,0 mm 15,5 km/h (3 Bft) W-SW 250 ° 0 min 0,000 mm 2,5 UV-I 332 W/m² 6,2 °C 10,4 °C 19,3 km/h (3 Bft)
10.05.2019 11:15 10,4 °C 74 % 1010,8 hPa 0,0 mm 9,0 km/h (2 Bft) W-NW 298 ° 0 min 0,000 mm 2,5 UV-I 336 W/m² 6,0 °C 10,4 °C 16,1 km/h (3 Bft)
10.05.2019 11:16 10,4 °C 75 % 1010,8 hPa 0,0 mm 9,2 km/h (2 Bft) W 281 ° 0 min 0,000 mm 2,5 UV-I 330 W/m² 6,2 °C 10,4 °C 14,5 km/h (3 Bft)
10.05.2019 11:17 10,3 °C 74 % 1010,8 hPa 0,0 mm 12,0 km/h (2 Bft) W-NW 283 ° 0 min 0,000 mm 2,5 UV-I 330 W/m² 5,9 °C 10,3 °C 17,7 km/h (3 Bft)
10.05.2019 11:18 10,3 °C 74 % 1010,8 hPa 0,0 mm 5,0 km/h (1 Bft) W-SW 258 ° 0 min 0,000 mm 2,5 UV-I 332 W/m² 5,9 °C 10,3 °C 11,3 km/h (2 Bft)
10.05.2019 11:19 10,3 °C 76 % 1010,8 hPa 0,0 mm 8,6 km/h (2 Bft) W-NW 288 ° 0 min 0,000 mm 2,5 UV-I 332 W/m² 6,3 °C 10,3 °C 14,5 km/h (3 Bft)
10.05.2019 11:20 10,3 °C 74 % 1010,9 hPa 0,0 mm 12,0 km/h (2 Bft) W-SW 257 ° 0 min 0,000 mm 2,4 UV-I 329 W/m² 5,9 °C 10,3 °C 20,9 km/h (4 Bft)
10.05.2019 11:21 10,3 °C 75 % 1010,9 hPa 0,0 mm 7,8 km/h (2 Bft) SW 218 ° 0 min 0,000 mm 2,4 UV-I 345 W/m² 6,1 °C 10,3 °C 14,5 km/h (3 Bft)
10.05.2019 11:22 10,3 °C 77 % 1010,9 hPa 0,0 mm 9,3 km/h (2 Bft) SW 215 ° 0 min 0,000 mm 2,5 UV-I 355 W/m² 6,4 °C 10,3 °C 14,5 km/h (3 Bft)
10.05.2019 11:23 10,3 °C 74 % 1010,9 hPa 0,0 mm 9,3 km/h (2 Bft) W 271 ° 0 min 0,000 mm 2,6 UV-I 364 W/m² 5,9 °C 10,3 °C 14,5 km/h (3 Bft)
10.05.2019 11:24 10,3 °C 75 % 1010,8 hPa 0,0 mm 8,0 km/h (2 Bft) W-SW 245 ° 0 min 0,000 mm 2,6 UV-I 367 W/m² 6,1 °C 10,3 °C 11,3 km/h (2 Bft)
10.05.2019 11:25 10,3 °C 75 % 1010,9 hPa 0,0 mm 10,2 km/h (2 Bft) W 271 ° 0 min 0,000 mm 2,6 UV-I 364 W/m² 6,1 °C 10,3 °C 16,1 km/h (3 Bft)
10.05.2019 11:26 10,3 °C 75 % 1010,9 hPa 0,0 mm 8,9 km/h (2 Bft) W-SW 247 ° 0 min 0,000 mm 2,6 UV-I 359 W/m² 6,1 °C 10,3 °C 12,9 km/h (3 Bft)
10.05.2019 11:27 10,3 °C 75 % 1010,9 hPa 0,0 mm 11,4 km/h (2 Bft) W-NW 284 ° 0 min 0,000 mm 2,6 UV-I 346 W/m² 6,1 °C 10,3 °C 14,5 km/h (3 Bft)
10.05.2019 11:28 10,3 °C 76 % 1011,0 hPa 0,0 mm 11,4 km/h (2 Bft) W 279 ° 0 min 0,000 mm 2,6 UV-I 346 W/m² 6,3 °C 10,3 °C 16,1 km/h (3 Bft)
10.05.2019 11:29 10,3 °C 75 % 1011,0 hPa 0,0 mm 9,1 km/h (2 Bft) W-SW 254 ° 0 min 0,000 mm 2,7 UV-I 357 W/m² 6,1 °C 10,3 °C 14,5 km/h (3 Bft)
10.05.2019 11:30 10,4 °C 77 % 1011,0 hPa 0,0 mm 6,8 km/h (2 Bft) W 267 ° 0 min 0,000 mm 2,8 UV-I 362 W/m² 6,5 °C 10,4 °C 14,5 km/h (3 Bft)
10.05.2019 11:31 10,4 °C 76 % 1011,0 hPa 0,0 mm 14,1 km/h (3 Bft) W-NW 296 ° 0 min 0,000 mm 2,8 UV-I 360 W/m² 6,4 °C 10,4 °C 22,5 km/h (4 Bft)
10.05.2019 11:32 10,4 °C 75 % 1011,0 hPa 0,0 mm 11,3 km/h (2 Bft) W 275 ° 0 min 0,000 mm 2,8 UV-I 350 W/m² 6,2 °C 10,4 °C 17,7 km/h (3 Bft)
10.05.2019 11:33 10,4 °C 76 % 1011,0 hPa 0,0 mm 14,0 km/h (3 Bft) W 269 ° 0 min 0,000 mm 2,8 UV-I 329 W/m² 6,4 °C 10,4 °C 20,9 km/h (4 Bft)
10.05.2019 11:34 10,4 °C 76 % 1011,0 hPa 0,0 mm 6,7 km/h (2 Bft) W-NW 294 ° 0 min 0,000 mm 2,8 UV-I 322 W/m² 6,4 °C 10,4 °C 9,7 km/h (2 Bft)
10.05.2019 11:35 10,4 °C 75 % 1011,0 hPa 0,0 mm 6,7 km/h (2 Bft) W 269 ° 0 min 0,000 mm 2,8 UV-I 323 W/m² 6,2 °C 10,4 °C 12,9 km/h (3 Bft)
10.05.2019 11:36 10,4 °C 76 % 1011,0 hPa 0,0 mm 10,3 km/h (2 Bft) W-NW 290 ° 0 min 0,000 mm 2,9 UV-I 334 W/m² 6,4 °C 10,4 °C 14,5 km/h (3 Bft)
10.05.2019 11:37 10,5 °C 75 % 1011,0 hPa 0,0 mm 9,0 km/h (2 Bft) W 277 ° 0 min 0,000 mm 3,0 UV-I 350 W/m² 6,3 °C 10,5 °C 16,1 km/h (3 Bft)
10.05.2019 11:38 10,4 °C 75 % 1011,0 hPa 0,0 mm 11,7 km/h (2 Bft) W 269 ° 0 min 0,000 mm 3,1 UV-I 367 W/m² 6,2 °C 10,4 °C 14,5 km/h (3 Bft)
10.05.2019 11:39 10,4 °C 75 % 1011,0 hPa 0,0 mm 6,0 km/h (2 Bft) W 281 ° 0 min 0,000 mm 3,1 UV-I 381 W/m² 6,2 °C 10,4 °C 12,9 km/h (3 Bft)
10.05.2019 11:40 10,4 °C 77 % 1011,0 hPa 0,0 mm 8,0 km/h (2 Bft) W-SW 258 ° 0 min 0,000 mm 3,2 UV-I 381 W/m² 6,5 °C 10,4 °C 14,5 km/h (3 Bft)
10.05.2019 11:41 10,6 °C 77 % 1011,0 hPa 0,0 mm 9,3 km/h (2 Bft) W-NW 297 ° 0 min 0,000 mm 3,1 UV-I 381 W/m² 6,7 °C 10,6 °C 14,5 km/h (3 Bft)
10.05.2019 11:42 10,6 °C 77 % 1011,0 hPa 0,0 mm 10,0 km/h (2 Bft) W 275 ° 0 min 0,000 mm 3,1 UV-I 378 W/m² 6,7 °C 10,6 °C 16,1 km/h (3 Bft)
10.05.2019 11:43 10,6 °C 76 % 1011,0 hPa 0,0 mm 12,5 km/h (3 Bft) W-SW 256 ° 0 min 0,000 mm 3,1 UV-I 373 W/m² 6,5 °C 10,6 °C 20,9 km/h (4 Bft)
10.05.2019 11:44 10,6 °C 76 % 1011,0 hPa 0,0 mm 12,6 km/h (3 Bft) W-NW 298 ° 0 min 0,000 mm 3,1 UV-I 366 W/m² 6,5 °C 10,6 °C 17,7 km/h (3 Bft)
10.05.2019 11:45 10,7 °C 77 % 1011,0 hPa 0,0 mm 5,8 km/h (2 Bft) W-SW 246 ° 0 min 0,000 mm 3,1 UV-I 355 W/m² 6,8 °C 10,7 °C 11,3 km/h (2 Bft)
10.05.2019 11:46 10,7 °C 77 % 1010,9 hPa 0,0 mm 8,4 km/h (2 Bft) W-NW 297 ° 0 min 0,000 mm 3,1 UV-I 350 W/m² 6,8 °C 10,7 °C 11,3 km/h (2 Bft)
10.05.2019 11:47 10,7 °C 77 % 1011,0 hPa 0,0 mm 3,9 km/h (1 Bft) SW 235 ° 0 min 0,000 mm 3,1 UV-I 355 W/m² 6,8 °C 10,7 °C 11,3 km/h (2 Bft)
10.05.2019 11:48 10,7 °C 74 % 1011,0 hPa 0,0 mm 5,3 km/h (1 Bft) W 267 ° 0 min 0,000 mm 3,1 UV-I 364 W/m² 6,3 °C 10,7 °C 8,0 km/h (2 Bft)
10.05.2019 11:49 10,7 °C 75 % 1011,0 hPa 0,0 mm 8,2 km/h (2 Bft) W 265 ° 0 min 0,000 mm 3,2 UV-I 369 W/m² 6,5 °C 10,7 °C 11,3 km/h (2 Bft)
10.05.2019 11:50 10,7 °C 75 % 1011,0 hPa 0,0 mm 6,6 km/h (2 Bft) SW 234 ° 0 min 0,000 mm 3,2 UV-I 371 W/m² 6,5 °C 10,7 °C 12,9 km/h (3 Bft)
10.05.2019 11:51 10,7 °C 75 % 1011,1 hPa 0,0 mm 10,8 km/h (2 Bft) W-NW 296 ° 0 min 0,000 mm 3,3 UV-I 394 W/m² 6,5 °C 10,7 °C 16,1 km/h (3 Bft)
10.05.2019 11:52 10,7 °C 75 % 1010,9 hPa 0,0 mm 10,6 km/h (2 Bft) W 266 ° 0 min 0,000 mm 3,5 UV-I 406 W/m² 6,5 °C 10,7 °C 16,1 km/h (3 Bft)
10.05.2019 11:53 10,7 °C 76 % 1010,9 hPa 0,0 mm 5,8 km/h (2 Bft) W 277 ° 0 min 0,000 mm 3,5 UV-I 418 W/m² 6,6 °C 10,7 °C 9,7 km/h (2 Bft)
10.05.2019 11:54 10,7 °C 75 % 1011,0 hPa 0,0 mm 6,2 km/h (2 Bft) W 269 ° 0 min 0,000 mm 3,4 UV-I 408 W/m² 6,5 °C 10,7 °C 9,7 km/h (2 Bft)
10.05.2019 11:55 10,8 °C 75 % 1011,0 hPa 0,0 mm 9,6 km/h (2 Bft) SW 231 ° 0 min 0,000 mm 3,4 UV-I 397 W/m² 6,5 °C 10,8 °C 14,5 km/h (3 Bft)
10.05.2019 11:56 10,7 °C 73 % 1011,0 hPa 0,0 mm 11,3 km/h (2 Bft) W 269 ° 0 min 0,000 mm 3,4 UV-I 392 W/m² 6,1 °C 10,7 °C 14,5 km/h (3 Bft)
10.05.2019 11:57 10,7 °C 75 % 1011,0 hPa 0,0 mm 8,0 km/h (2 Bft) SW 236 ° 0 min 0,000 mm 3,3 UV-I 404 W/m² 6,5 °C 10,7 °C 11,3 km/h (2 Bft)
10.05.2019 11:58 10,7 °C 73 % 1010,9 hPa 0,0 mm 9,5 km/h (2 Bft) W 271 ° 0 min 0,000 mm 3,4 UV-I 394 W/m² 6,1 °C 10,7 °C 12,9 km/h (3 Bft)
10.05.2019 11:59 10,8 °C 76 % 1010,9 hPa 0,0 mm 4,2 km/h (1 Bft) W 269 ° 0 min 0,000 mm 3,5 UV-I 417 W/m² 6,7 °C 10,8 °C 6,4 km/h (2 Bft)
10.05.2019 12:00 10,8 °C 77 % 1011,0 hPa 0,0 mm 6,4 km/h (2 Bft) W-SW 252 ° 0 min 0,000 mm 3,5 UV-I 441 W/m² 6,9 °C 10,8 °C 12,9 km/h (3 Bft)
10.05.2019 12:01 10,9 °C 76 % 1011,0 hPa 0,0 mm 6,9 km/h (2 Bft) SW 231 ° 0 min 0,177 mm 3,4 UV-I 410 W/m² 6,8 °C 10,9 °C 9,7 km/h (2 Bft)
10.05.2019 12:02 10,9 °C 75 % 1010,9 hPa 0,0 mm 7,0 km/h (2 Bft) W 266 ° 0 min 0,000 mm 3,3 UV-I 383 W/m² 6,6 °C 10,9 °C 12,9 km/h (3 Bft)
10.05.2019 12:03 11,0 °C 75 % 1011,0 hPa 0,0 mm 4,9 km/h (1 Bft) W-SW 241 ° 0 min 0,000 mm 3,3 UV-I 445 W/m² 6,7 °C 11,0 °C 6,4 km/h (2 Bft)
10.05.2019 12:04 11,1 °C 74 % 1011,0 hPa 0,0 mm 2,2 km/h (1 Bft) W 269 ° 0 min 0,000 mm 3,6 UV-I 439 W/m² 6,6 °C 11,1 °C 6,4 km/h (2 Bft)
10.05.2019 12:05 11,1 °C 75 % 1010,9 hPa 0,0 mm 3,6 km/h (1 Bft) W 274 ° 0 min 0,000 mm 3,6 UV-I 438 W/m² 6,8 °C 11,1 °C 9,7 km/h (2 Bft)
10.05.2019 12:06 11,2 °C 75 % 1011,0 hPa 0,0 mm 2,1 km/h (1 Bft) W-SW 256 ° 0 min 0,000 mm 4,1 UV-I 476 W/m² 6,9 °C 11,2 °C 4,8 km/h (1 Bft)
10.05.2019 12:07 11,3 °C 75 % 1011,0 hPa 0,0 mm 2,9 km/h (1 Bft) W-SW 256 ° 0 min 0,000 mm 3,8 UV-I 492 W/m² 7,0 °C 11,3 °C 8,0 km/h (2 Bft)
10.05.2019 12:08 11,3 °C 75 % 1011,0 hPa 0,0 mm 4,4 km/h (1 Bft) W-SW 258 ° 1 min 0,000 mm 4,2 UV-I 601 W/m² 7,0 °C 11,3 °C 8,0 km/h (2 Bft)
10.05.2019 12:09 11,4 °C 76 % 1011,0 hPa 0,0 mm 3,9 km/h (1 Bft) SW 221 ° 1 min 0,000 mm 3,8 UV-I 601 W/m² 7,3 °C 11,4 °C 9,7 km/h (2 Bft)
10.05.2019 12:10 11,4 °C 73 % 1010,9 hPa 0,0 mm 9,8 km/h (2 Bft) W-SW 252 ° 0 min 0,000 mm 3,6 UV-I 448 W/m² 6,7 °C 11,4 °C 17,7 km/h (3 Bft)
10.05.2019 12:11 11,4 °C 72 % 1011,0 hPa 0,0 mm 9,0 km/h (2 Bft) W-SW 254 ° 0 min 0,000 mm 4,0 UV-I 448 W/m² 6,5 °C 11,4 °C 17,7 km/h (3 Bft)
10.05.2019 12:12 11,4 °C 71 % 1010,9 hPa 0,0 mm 9,6 km/h (2 Bft) W-SW 238 ° 0 min 0,000 mm 3,7 UV-I 448 W/m² 6,3 °C 11,4 °C 17,7 km/h (3 Bft)
10.05.2019 12:13 11,3 °C 71 % 1011,0 hPa 0,0 mm 10,7 km/h (2 Bft) S 188 ° 0 min 0,000 mm 4,0 UV-I 482 W/m² 6,2 °C 11,3 °C 16,1 km/h (3 Bft)
10.05.2019 12:14 11,3 °C 70 % 1011,0 hPa 0,0 mm 5,2 km/h (1 Bft) W-SW 251 ° 0 min 0,000 mm 4,0 UV-I 459 W/m² 6,0 °C 11,3 °C 9,7 km/h (2 Bft)
10.05.2019 12:15 11,3 °C 73 % 1011,0 hPa 0,0 mm 8,7 km/h (2 Bft) W-SW 253 ° 0 min 0,000 mm 3,8 UV-I 473 W/m² 6,6 °C 11,3 °C 11,3 km/h (2 Bft)
10.05.2019 12:16 11,4 °C 74 % 1011,0 hPa 0,0 mm 7,8 km/h (2 Bft) W-SW 240 ° 0 min 0,000 mm 3,8 UV-I 503 W/m² 6,9 °C 11,4 °C 12,9 km/h (3 Bft)
10.05.2019 12:17 11,4 °C 73 % 1010,9 hPa 0,0 mm 8,7 km/h (2 Bft) S-SW 192 ° 0 min 0,000 mm 4,0 UV-I 504 W/m² 6,7 °C 11,4 °C 16,1 km/h (3 Bft)
10.05.2019 12:18 11,4 °C 72 % 1011,0 hPa 0,0 mm 11,3 km/h (2 Bft) SW 234 ° 0 min 0,000 mm 4,2 UV-I 504 W/m² 6,5 °C 11,4 °C 16,1 km/h (3 Bft)
10.05.2019 12:19 11,4 °C 71 % 1011,0 hPa 0,0 mm 8,0 km/h (2 Bft) W 274 ° 0 min 0,000 mm 4,1 UV-I 534 W/m² 6,3 °C 11,4 °C 12,9 km/h (3 Bft)
10.05.2019 12:20 11,4 °C 72 % 1010,9 hPa 0,0 mm 5,7 km/h (1 Bft) W 263 ° 0 min 0,000 mm 4,0 UV-I 513 W/m² 6,5 °C 11,4 °C 11,3 km/h (2 Bft)
10.05.2019 12:21 11,6 °C 76 % 1011,0 hPa 0,0 mm 9,7 km/h (2 Bft) W 271 ° 0 min 0,000 mm 4,0 UV-I 487 W/m² 7,5 °C 11,6 °C 19,3 km/h (3 Bft)
10.05.2019 12:22 11,6 °C 73 % 1010,9 hPa 0,0 mm 11,9 km/h (2 Bft) W 273 ° 0 min 0,000 mm 3,9 UV-I 482 W/m² 6,9 °C 11,6 °C 19,3 km/h (3 Bft)
10.05.2019 12:23 11,6 °C 72 % 1010,9 hPa 0,0 mm 15,2 km/h (3 Bft) W-SW 252 ° 0 min 0,000 mm 4,0 UV-I 482 W/m² 6,7 °C 11,6 °C 20,9 km/h (4 Bft)
10.05.2019 12:24 11,6 °C 72 % 1010,9 hPa 0,0 mm 12,8 km/h (3 Bft) SW 223 ° 0 min 0,000 mm 4,1 UV-I 482 W/m² 6,7 °C 11,6 °C 20,9 km/h (4 Bft)
10.05.2019 12:25 11,5 °C 72 % 1011,0 hPa 0,0 mm 8,6 km/h (2 Bft) S-SO 163 ° 0 min 0,000 mm 4,1 UV-I 499 W/m² 6,6 °C 11,5 °C 12,9 km/h (3 Bft)
10.05.2019 12:26 11,6 °C 73 % 1010,9 hPa 0,0 mm 8,9 km/h (2 Bft) W-SW 250 ° 0 min 0,000 mm 4,0 UV-I 476 W/m² 6,9 °C 11,6 °C 16,1 km/h (3 Bft)
10.05.2019 12:27 11,6 °C 73 % 1011,0 hPa 0,0 mm 6,6 km/h (2 Bft) N-NW 331 ° 0 min 0,000 mm 4,2 UV-I 513 W/m² 6,9 °C 11,6 °C 12,9 km/h (3 Bft)
10.05.2019 12:28 11,6 °C 71 % 1010,9 hPa 0,0 mm 7,0 km/h (2 Bft) W-NW 296 ° 0 min 0,000 mm 4,3 UV-I 513 W/m² 6,5 °C 11,6 °C 11,3 km/h (2 Bft)
10.05.2019 12:29 11,6 °C 72 % 1010,9 hPa 0,0 mm 11,6 km/h (2 Bft) W-SW 250 ° 0 min 0,000 mm 4,0 UV-I 513 W/m² 6,7 °C 11,6 °C 16,1 km/h (3 Bft)
10.05.2019 12:30 11,6 °C 73 % 1010,9 hPa 0,0 mm 9,1 km/h (2 Bft) S 191 ° 0 min 0,000 mm 3,9 UV-I 454 W/m² 6,9 °C 11,6 °C 14,5 km/h (3 Bft)
10.05.2019 12:31 11,6 °C 72 % 1010,9 hPa 0,0 mm 9,0 km/h (2 Bft) W-SW 244 ° 0 min 0,000 mm 3,9 UV-I 455 W/m² 6,7 °C 11,6 °C 12,9 km/h (3 Bft)
10.05.2019 12:32 11,6 °C 71 % 1010,9 hPa 0,0 mm 10,7 km/h (2 Bft) W 277 ° 0 min 0,000 mm 4,0 UV-I 492 W/m² 6,5 °C 11,6 °C 16,1 km/h (3 Bft)
10.05.2019 12:33 11,6 °C 71 % 1010,9 hPa 0,0 mm 5,4 km/h (1 Bft) SW 231 ° 0 min 0,000 mm 4,1 UV-I 496 W/m² 6,5 °C 11,6 °C 9,7 km/h (2 Bft)
10.05.2019 12:34 11,6 °C 72 % 1010,8 hPa 0,0 mm 7,8 km/h (2 Bft) W 265 ° 0 min 0,000 mm 4,2 UV-I 584 W/m² 6,7 °C 11,6 °C 14,5 km/h (3 Bft)
10.05.2019 12:35 11,7 °C 72 % 1010,9 hPa 0,0 mm 10,5 km/h (2 Bft) W-NW 282 ° 0 min 0,000 mm 4,3 UV-I 594 W/m² 6,8 °C 11,7 °C 14,5 km/h (3 Bft)
10.05.2019 12:36 11,7 °C 72 % 1010,9 hPa 0,0 mm 8,9 km/h (2 Bft) W-SW 248 ° 0 min 0,000 mm 4,1 UV-I 506 W/m² 6,8 °C 11,7 °C 16,1 km/h (3 Bft)
10.05.2019 12:37 11,7 °C 72 % 1010,9 hPa 0,0 mm 10,7 km/h (2 Bft) NW 315 ° 0 min 0,000 mm 4,1 UV-I 457 W/m² 6,8 °C 11,7 °C 14,5 km/h (3 Bft)
10.05.2019 12:38 11,7 °C 69 % 1010,9 hPa 0,0 mm 11,2 km/h (2 Bft) W 270 ° 0 min 0,000 mm 3,8 UV-I 441 W/m² 6,2 °C 11,7 °C 17,7 km/h (3 Bft)
10.05.2019 12:39 11,6 °C 69 % 1010,9 hPa 0,0 mm 8,9 km/h (2 Bft) W 271 ° 0 min 0,000 mm 3,8 UV-I 443 W/m² 6,1 °C 11,6 °C 17,7 km/h (3 Bft)
10.05.2019 12:40 11,6 °C 70 % 1010,9 hPa 0,0 mm 15,8 km/h (3 Bft) W-NW 296 ° 0 min 0,000 mm 3,8 UV-I 450 W/m² 6,3 °C 11,6 °C 24,1 km/h (4 Bft)
10.05.2019 12:41 11,5 °C 69 % 1010,9 hPa 0,0 mm 15,9 km/h (3 Bft) N-NW 334 ° 0 min 0,000 mm 3,6 UV-I 422 W/m² 6,0 °C 11,5 °C 22,5 km/h (4 Bft)
10.05.2019 12:42 11,5 °C 70 % 1010,9 hPa 0,0 mm 9,8 km/h (2 Bft) W 259 ° 0 min 0,000 mm 3,6 UV-I 418 W/m² 6,2 °C 11,5 °C 14,5 km/h (3 Bft)
10.05.2019 12:43 11,4 °C 69 % 1011,0 hPa 0,0 mm 7,1 km/h (2 Bft) W-SW 254 ° 0 min 0,000 mm 3,5 UV-I 399 W/m² 5,9 °C 11,4 °C 11,3 km/h (2 Bft)
10.05.2019 12:44 11,4 °C 71 % 1011,0 hPa 0,0 mm 11,3 km/h (2 Bft) W 276 ° 0 min 0,000 mm 3,5 UV-I 396 W/m² 6,3 °C 11,4 °C 17,7 km/h (3 Bft)
10.05.2019 12:45 11,4 °C 70 % 1010,9 hPa 0,0 mm 10,5 km/h (2 Bft) SW 229 ° 0 min 0,000 mm 3,4 UV-I 387 W/m² 6,1 °C 11,4 °C 16,1 km/h (3 Bft)
10.05.2019 12:46 11,4 °C 70 % 1010,9 hPa 0,0 mm 12,1 km/h (2 Bft) W 267 ° 0 min 0,000 mm 3,5 UV-I 392 W/m² 6,1 °C 11,4 °C 19,3 km/h (3 Bft)
10.05.2019 12:47 11,4 °C 71 % 1010,9 hPa 0,0 mm 9,9 km/h (2 Bft) W-NW 299 ° 0 min 0,000 mm 3,6 UV-I 422 W/m² 6,3 °C 11,4 °C 16,1 km/h (3 Bft)
10.05.2019 12:48 11,5 °C 71 % 1010,9 hPa 0,0 mm 7,9 km/h (2 Bft) W-NW 283 ° 0 min 0,000 mm 3,9 UV-I 490 W/m² 6,4 °C 11,5 °C 14,5 km/h (3 Bft)
10.05.2019 12:49 11,5 °C 71 % 1010,9 hPa 0,0 mm 8,6 km/h (2 Bft) W 259 ° 0 min 0,000 mm 3,6 UV-I 374 W/m² 6,4 °C 11,5 °C 16,1 km/h (3 Bft)
10.05.2019 12:50 11,6 °C 73 % 1011,0 hPa 0,0 mm 9,6 km/h (2 Bft) W-SW 248 ° 0 min 0,000 mm 3,4 UV-I 373 W/m² 6,9 °C 11,6 °C 16,1 km/h (3 Bft)
10.05.2019 12:51 11,5 °C 71 % 1010,9 hPa 0,0 mm 13,0 km/h (3 Bft) NW 306 ° 0 min 0,000 mm 3,4 UV-I 348 W/m² 6,4 °C 11,5 °C 19,3 km/h (3 Bft)
10.05.2019 12:52 11,5 °C 70 % 1010,9 hPa 0,0 mm 11,3 km/h (2 Bft) W-SW 239 ° 0 min 0,000 mm 5,6 UV-I 348 W/m² 6,2 °C 11,5 °C 16,1 km/h (3 Bft)
10.05.2019 12:53 11,4 °C 71 % 1010,9 hPa 0,0 mm 7,6 km/h (2 Bft) W 271 ° 0 min 0,000 mm 4,0 UV-I 348 W/m² 6,3 °C 11,4 °C 16,1 km/h (3 Bft)
10.05.2019 12:54 11,4 °C 71 % 1010,9 hPa 0,0 mm 12,7 km/h (3 Bft) W 262 ° 0 min 0,000 mm 4,7 UV-I 429 W/m² 6,3 °C 11,4 °C 22,5 km/h (4 Bft)
10.05.2019 12:55 11,4 °C 70 % 1010,9 hPa 0,0 mm 11,8 km/h (2 Bft) W-NW 286 ° 0 min 0,000 mm 4,2 UV-I 434 W/m² 6,1 °C 11,4 °C 19,3 km/h (3 Bft)
10.05.2019 12:56 11,5 °C 72 % 1010,9 hPa 0,0 mm 14,0 km/h (3 Bft) W 265 ° 0 min 0,000 mm 4,3 UV-I 434 W/m² 6,6 °C 11,5 °C 24,1 km/h (4 Bft)
10.05.2019 12:57 11,7 °C 73 % 1010,9 hPa 0,0 mm 13,9 km/h (3 Bft) W-SW 250 ° 0 min 0,000 mm 4,0 UV-I 526 W/m² 7,0 °C 11,7 °C 22,5 km/h (4 Bft)
10.05.2019 12:58 11,7 °C 70 % 1010,9 hPa 0,0 mm 12,0 km/h (2 Bft) W-SW 248 ° 0 min 0,000 mm 3,6 UV-I 526 W/m² 6,4 °C 11,7 °C 17,7 km/h (3 Bft)
10.05.2019 12:59 11,7 °C 70 % 1010,9 hPa 0,0 mm 13,1 km/h (3 Bft) W 265 ° 0 min 0,000 mm 3,7 UV-I 408 W/m² 6,4 °C 11,7 °C 17,7 km/h (3 Bft)
10.05.2019 13:00 11,7 °C 69 % 1010,9 hPa 0,0 mm 6,4 km/h (2 Bft) S-SW 195 ° 0 min 0,000 mm 5,9 UV-I 408 W/m² 6,2 °C 11,7 °C 14,5 km/h (3 Bft)
10.05.2019 13:01 11,7 °C 70 % 1010,9 hPa 0,0 mm 6,1 km/h (2 Bft) W 263 ° 0 min 0,254 mm 5,7 UV-I 408 W/m² 6,4 °C 11,7 °C 16,1 km/h (3 Bft)
10.05.2019 13:02 11,8 °C 71 % 1010,9 hPa 0,0 mm 14,1 km/h (3 Bft) W 268 ° 0 min 0,000 mm 3,8 UV-I 462 W/m² 6,7 °C 11,8 °C 20,9 km/h (4 Bft)
10.05.2019 13:03 11,9 °C 72 % 1010,9 hPa 0,0 mm 14,3 km/h (3 Bft) W-SW 246 ° 0 min 0,000 mm 3,8 UV-I 454 W/m² 7,0 °C 11,9 °C 19,3 km/h (3 Bft)
10.05.2019 13:04 11,9 °C 71 % 1010,9 hPa 0,0 mm 15,3 km/h (3 Bft) W-SW 258 ° 0 min 0,000 mm 3,7 UV-I 441 W/m² 6,8 °C 11,9 °C 24,1 km/h (4 Bft)
10.05.2019 13:05 11,9 °C 70 % 1010,9 hPa 0,0 mm 8,9 km/h (2 Bft) SW 226 ° 0 min 0,000 mm 3,7 UV-I 436 W/m² 6,6 °C 11,9 °C 19,3 km/h (3 Bft)
10.05.2019 13:06 11,8 °C 70 % 1010,8 hPa 0,0 mm 9,5 km/h (2 Bft) SW 236 ° 0 min 0,000 mm 3,8 UV-I 441 W/m² 6,5 °C 11,8 °C 12,9 km/h (3 Bft)
10.05.2019 13:07 11,8 °C 70 % 1010,9 hPa 0,0 mm 8,6 km/h (2 Bft) W-SW 254 ° 0 min 0,000 mm 3,8 UV-I 468 W/m² 6,5 °C 11,8 °C 12,9 km/h (3 Bft)
10.05.2019 13:08 11,8 °C 72 % 1010,9 hPa 0,0 mm 13,7 km/h (3 Bft) W-NW 289 ° 0 min 0,000 mm 4,1 UV-I 496 W/m² 6,9 °C 11,8 °C 19,3 km/h (3 Bft)
10.05.2019 13:09 11,8 °C 70 % 1010,9 hPa 0,0 mm 13,7 km/h (3 Bft) W 275 ° 0 min 0,000 mm 4,9 UV-I 496 W/m² 6,5 °C 11,8 °C 17,7 km/h (3 Bft)
10.05.2019 13:10 11,8 °C 70 % 1010,9 hPa 0,0 mm 12,0 km/h (2 Bft) W-NW 288 ° 0 min 0,000 mm 5,6 UV-I 496 W/m² 6,5 °C 11,8 °C 17,7 km/h (3 Bft)
10.05.2019 13:11 11,9 °C 70 % 1010,9 hPa 0,0 mm 6,2 km/h (2 Bft) W-NW 282 ° 0 min 0,000 mm 5,0 UV-I 496 W/m² 6,6 °C 11,9 °C 11,3 km/h (2 Bft)
10.05.2019 13:12 11,9 °C 70 % 1010,9 hPa 0,0 mm 7,7 km/h (2 Bft) NW 319 ° 0 min 0,000 mm 4,8 UV-I 496 W/m² 6,6 °C 11,9 °C 11,3 km/h (2 Bft)
10.05.2019 13:13 12,1 °C 72 % 1010,9 hPa 0,0 mm 9,8 km/h (2 Bft) W-SW 244 ° 1 min 0,000 mm 4,2 UV-I 629 W/m² 7,2 °C 12,1 °C 14,5 km/h (3 Bft)
10.05.2019 13:14 12,2 °C 71 % 1010,9 hPa 0,0 mm 12,5 km/h (3 Bft) W 261 ° 0 min 0,000 mm 4,2 UV-I 469 W/m² 7,1 °C 12,2 °C 17,7 km/h (3 Bft)
10.05.2019 13:15 12,2 °C 70 % 1011,0 hPa 0,0 mm 5,6 km/h (1 Bft) SW 228 ° 0 min 0,000 mm 3,9 UV-I 478 W/m² 6,9 °C 12,2 °C 11,3 km/h (2 Bft)
10.05.2019 13:16 12,1 °C 70 % 1010,9 hPa 0,0 mm 6,8 km/h (2 Bft) W 259 ° 0 min 0,000 mm 4,2 UV-I 441 W/m² 6,8 °C 12,1 °C 9,7 km/h (2 Bft)
10.05.2019 13:17 12,1 °C 69 % 1010,9 hPa 0,0 mm 9,0 km/h (2 Bft) W-NW 296 ° 0 min 0,000 mm 5,3 UV-I 441 W/m² 6,6 °C 12,1 °C 14,5 km/h (3 Bft)
10.05.2019 13:18 12,2 °C 71 % 1010,9 hPa 0,0 mm 6,6 km/h (2 Bft) W-NW 283 ° 0 min 0,000 mm 4,5 UV-I 441 W/m² 7,1 °C 12,2 °C 11,3 km/h (2 Bft)
10.05.2019 13:19 12,3 °C 69 % 1010,8 hPa 0,0 mm 3,3 km/h (1 Bft) W 267 ° 0 min 0,000 mm 6,8 UV-I 441 W/m² 6,8 °C 12,3 °C 4,8 km/h (1 Bft)
10.05.2019 13:20 12,6 °C 73 % 1010,9 hPa 0,0 mm 12,8 km/h (3 Bft) W-NW 288 ° 1 min 0,000 mm 5,4 UV-I 1187 W/m² 7,9 °C 12,6 °C 19,3 km/h (3 Bft)
10.05.2019 13:21 12,8 °C 71 % 1010,9 hPa 0,0 mm 8,2 km/h (2 Bft) W-SW 247 ° 1 min 0,000 mm 4,0 UV-I 1187 W/m² 7,7 °C 12,8 °C 14,5 km/h (3 Bft)
10.05.2019 13:22 12,8 °C 70 % 1010,9 hPa 0,0 mm 4,2 km/h (1 Bft) SW 230 ° 0 min 0,000 mm 4,4 UV-I 406 W/m² 7,5 °C 12,8 °C 12,9 km/h (3 Bft)
10.05.2019 13:23 12,9 °C 70 % 1010,9 hPa 0,0 mm 6,0 km/h (2 Bft) W-SW 250 ° 0 min 0,000 mm 6,4 UV-I 406 W/m² 7,6 °C 12,9 °C 11,3 km/h (2 Bft)
10.05.2019 13:24 12,9 °C 69 % 1010,9 hPa 0,0 mm 12,9 km/h (3 Bft) W 269 ° 1 min 0,000 mm 6,7 UV-I 879 W/m² 7,4 °C 12,9 °C 22,5 km/h (4 Bft)
10.05.2019 13:25 12,9 °C 71 % 1010,9 hPa 0,0 mm 15,5 km/h (3 Bft) W-NW 282 ° 1 min 0,000 mm 6,9 UV-I 879 W/m² 7,8 °C 12,9 °C 20,9 km/h (4 Bft)
10.05.2019 13:26 12,9 °C 69 % 1010,9 hPa 0,0 mm 13,7 km/h (3 Bft) W-NW 300 ° 1 min 0,000 mm 6,9 UV-I 1014 W/m² 7,4 °C 12,9 °C 19,3 km/h (3 Bft)
10.05.2019 13:27 12,9 °C 68 % 1010,9 hPa 0,0 mm 11,1 km/h (2 Bft) W-NW 299 ° 1 min 0,000 mm 6,9 UV-I 1028 W/m² 7,1 °C 12,9 °C 20,9 km/h (4 Bft)
10.05.2019 13:28 12,9 °C 69 % 1010,9 hPa 0,0 mm 12,2 km/h (2 Bft) W 261 ° 1 min 0,000 mm 6,5 UV-I 949 W/m² 7,4 °C 12,9 °C 22,5 km/h (4 Bft)
10.05.2019 13:29 13,1 °C 70 % 1010,9 hPa 0,0 mm 15,3 km/h (3 Bft) W 261 ° 1 min 0,000 mm 7,4 UV-I 949 W/m² 7,8 °C 13,1 °C 22,5 km/h (4 Bft)
10.05.2019 13:30 13,0 °C 67 % 1010,9 hPa 0,0 mm 18,6 km/h (3 Bft) W 263 ° 1 min 0,000 mm 5,5 UV-I 949 W/m² 7,0 °C 13,0 °C 22,5 km/h (4 Bft)
10.05.2019 13:31 12,9 °C 67 % 1010,9 hPa 0,0 mm 14,5 km/h (3 Bft) W 266 ° 1 min 0,000 mm 4,2 UV-I 949 W/m² 6,9 °C 12,9 °C 19,3 km/h (3 Bft)
10.05.2019 13:32 12,8 °C 69 % 1010,9 hPa 0,0 mm 8,5 km/h (2 Bft) W 264 ° 1 min 0,000 mm 6,2 UV-I 949 W/m² 7,3 °C 12,8 °C 16,1 km/h (3 Bft)
10.05.2019 13:33 12,9 °C 71 % 1010,9 hPa 0,0 mm 12,6 km/h (3 Bft) W 266 ° 1 min 0,000 mm 7,4 UV-I 949 W/m² 7,8 °C 12,9 °C 20,9 km/h (4 Bft)
10.05.2019 13:34 13,1 °C 68 % 1010,9 hPa 0,0 mm 11,1 km/h (2 Bft) W 270 ° 1 min 0,000 mm 5,5 UV-I 949 W/m² 7,3 °C 13,1 °C 20,9 km/h (4 Bft)
10.05.2019 13:35 12,9 °C 66 % 1010,9 hPa 0,0 mm 14,3 km/h (3 Bft) W-SW 252 ° 0 min 0,000 mm 5,0 UV-I 531 W/m² 6,7 °C 12,9 °C 22,5 km/h (4 Bft)
10.05.2019 13:36 12,9 °C 68 % 1010,9 hPa 0,0 mm 7,3 km/h (2 Bft) W-SW 256 ° 0 min 0,000 mm 5,2 UV-I 531 W/m² 7,1 °C 12,9 °C 16,1 km/h (3 Bft)
10.05.2019 13:37 12,9 °C 68 % 1010,9 hPa 0,0 mm 11,2 km/h (2 Bft) W-NW 303 ° 0 min 0,000 mm 7,1 UV-I 531 W/m² 7,1 °C 12,9 °C 17,7 km/h (3 Bft)
10.05.2019 13:38 12,9 °C 68 % 1010,9 hPa 0,0 mm 10,2 km/h (2 Bft) W-NW 284 ° 1 min 0,000 mm 7,4 UV-I 1243 W/m² 7,1 °C 12,9 °C 14,5 km/h (3 Bft)
10.05.2019 13:39 13,1 °C 68 % 1010,9 hPa 0,0 mm 18,0 km/h (3 Bft) W 269 ° 1 min 0,000 mm 4,1 UV-I 1243 W/m² 7,3 °C 13,1 °C 24,1 km/h (4 Bft)
10.05.2019 13:40 13,2 °C 69 % 1010,9 hPa 0,0 mm 16,1 km/h (3 Bft) W-NW 288 ° 1 min 0,000 mm 4,8 UV-I 1243 W/m² 7,6 °C 13,2 °C 19,3 km/h (3 Bft)
10.05.2019 13:41 12,9 °C 66 % 1010,9 hPa 0,0 mm 13,5 km/h (3 Bft) W 266 ° 1 min 0,000 mm 3,9 UV-I 1243 W/m² 6,7 °C 12,9 °C 19,3 km/h (3 Bft)
10.05.2019 13:42 12,8 °C 67 % 1010,9 hPa 0,0 mm 10,1 km/h (2 Bft) W-NW 299 ° 1 min 0,000 mm 4,6 UV-I 1243 W/m² 6,8 °C 12,8 °C 14,5 km/h (3 Bft)
10.05.2019 13:43 12,8 °C 68 % 1010,9 hPa 0,0 mm 8,0 km/h (2 Bft) W 276 ° 0 min 0,000 mm 3,5 UV-I 401 W/m² 7,0 °C 12,8 °C 12,9 km/h (3 Bft)
10.05.2019 13:44 12,7 °C 70 % 1010,9 hPa 0,0 mm 8,4 km/h (2 Bft) W-NW 287 ° 0 min 0,000 mm 3,2 UV-I 343 W/m² 7,4 °C 12,7 °C 12,9 km/h (3 Bft)
10.05.2019 13:45 12,7 °C 67 % 1010,9 hPa 0,0 mm 8,5 km/h (2 Bft) W-NW 294 ° 0 min 0,000 mm 3,1 UV-I 338 W/m² 6,7 °C 12,7 °C 14,5 km/h (3 Bft)
10.05.2019 13:46 12,7 °C 70 % 1010,8 hPa 0,0 mm 7,3 km/h (2 Bft) W 267 ° 0 min 0,000 mm 4,3 UV-I 338 W/m² 7,4 °C 12,7 °C 11,3 km/h (2 Bft)
10.05.2019 13:47 12,7 °C 71 % 1010,8 hPa 0,0 mm 5,9 km/h (2 Bft) NW 315 ° 0 min 0,000 mm 4,4 UV-I 499 W/m² 7,6 °C 12,7 °C 11,3 km/h (2 Bft)
10.05.2019 13:48 12,8 °C 70 % 1010,8 hPa 0,0 mm 10,4 km/h (2 Bft) NW 316 ° 0 min 0,000 mm 5,4 UV-I 499 W/m² 7,5 °C 12,8 °C 16,1 km/h (3 Bft)
10.05.2019 13:49 12,8 °C 71 % 1010,9 hPa 0,0 mm 14,0 km/h (3 Bft) W 273 ° 0 min 0,000 mm 3,4 UV-I 350 W/m² 7,7 °C 12,8 °C 19,3 km/h (3 Bft)
10.05.2019 13:50 12,7 °C 70 % 1011,0 hPa 0,0 mm 14,2 km/h (3 Bft) W-NW 290 ° 0 min 0,000 mm 3,3 UV-I 329 W/m² 7,4 °C 12,7 °C 19,3 km/h (3 Bft)
10.05.2019 13:51 12,6 °C 68 % 1011,0 hPa 0,0 mm 12,4 km/h (3 Bft) W 273 ° 0 min 0,000 mm 4,5 UV-I 329 W/m² 6,9 °C 12,6 °C 19,3 km/h (3 Bft)
10.05.2019 13:52 12,4 °C 68 % 1010,9 hPa 0,0 mm 16,2 km/h (3 Bft) W-NW 302 ° 0 min 0,000 mm 3,5 UV-I 329 W/m² 6,7 °C 12,4 °C 22,5 km/h (4 Bft)
10.05.2019 13:53 12,3 °C 67 % 1011,0 hPa 0,0 mm 13,7 km/h (3 Bft) S-SW 205 ° 0 min 0,000 mm 3,3 UV-I 287 W/m² 6,4 °C 12,3 °C 17,7 km/h (3 Bft)
10.05.2019 13:54 12,2 °C 68 % 1011,0 hPa 0,0 mm 4,5 km/h (1 Bft) W 263 ° 0 min 0,000 mm 3,2 UV-I 287 W/m² 6,5 °C 12,2 °C 6,4 km/h (2 Bft)
10.05.2019 13:55 12,2 °C 70 % 1011,0 hPa 0,0 mm 10,5 km/h (2 Bft) W 274 ° 0 min 0,000 mm 4,2 UV-I 443 W/m² 6,9 °C 12,2 °C 16,1 km/h (3 Bft)
10.05.2019 13:56 12,2 °C 69 % 1011,0 hPa 0,0 mm 8,9 km/h (2 Bft) W-NW 298 ° 0 min 0,000 mm 4,3 UV-I 443 W/m² 6,7 °C 12,2 °C 12,9 km/h (3 Bft)
10.05.2019 13:57 12,2 °C 71 % 1011,1 hPa 0,0 mm 7,0 km/h (2 Bft) W 259 ° 0 min 0,000 mm 4,2 UV-I 533 W/m² 7,1 °C 12,2 °C 12,9 km/h (3 Bft)
10.05.2019 13:58 12,3 °C 69 % 1011,1 hPa 0,0 mm 10,8 km/h (2 Bft) W 273 ° 0 min 0,000 mm 4,3 UV-I 494 W/m² 6,8 °C 12,3 °C 22,5 km/h (4 Bft)
10.05.2019 13:59 12,3 °C 69 % 1011,1 hPa 0,0 mm 8,0 km/h (2 Bft) W-NW 288 ° 0 min 0,000 mm 5,6 UV-I 494 W/m² 6,8 °C 12,3 °C 16,1 km/h (3 Bft)
10.05.2019 14:00 12,3 °C 70 % 1011,0 hPa 0,0 mm 6,7 km/h (2 Bft) W 263 ° 1 min 0,000 mm 5,4 UV-I 830 W/m² 7,0 °C 12,3 °C 9,7 km/h (2 Bft)
10.05.2019 14:01 12,4 °C 72 % 1011,0 hPa 0,0 mm 9,9 km/h (2 Bft) W 260 ° 1 min 0,356 mm 6,7 UV-I 1000 W/m² 7,5 °C 12,4 °C 14,5 km/h (3 Bft)
10.05.2019 14:02 12,6 °C 71 % 1011,0 hPa 0,0 mm 8,5 km/h (2 Bft) W 261 ° 1 min 0,000 mm 6,7 UV-I 1041 W/m² 7,5 °C 12,6 °C 14,5 km/h (3 Bft)
10.05.2019 14:03 12,7 °C 71 % 1010,9 hPa 0,0 mm 5,3 km/h (1 Bft) NW 317 ° 1 min 0,000 mm 6,6 UV-I 1004 W/m² 7,6 °C 12,7 °C 8,0 km/h (2 Bft)
10.05.2019 14:04 12,9 °C 71 % 1010,9 hPa 0,0 mm 8,6 km/h (2 Bft) W 267 ° 1 min 0,000 mm 6,6 UV-I 983 W/m² 7,8 °C 12,9 °C 14,5 km/h (3 Bft)
10.05.2019 14:05 13,2 °C 71 % 1010,8 hPa 0,0 mm 8,6 km/h (2 Bft) NW 321 ° 1 min 0,000 mm 6,6 UV-I 1034 W/m² 8,1 °C 13,2 °C 12,9 km/h (3 Bft)
10.05.2019 14:06 13,3 °C 69 % 1010,8 hPa 0,0 mm 9,9 km/h (2 Bft) NW 306 ° 1 min 0,000 mm 6,8 UV-I 1069 W/m² 7,7 °C 13,3 °C 22,5 km/h (4 Bft)
10.05.2019 14:07 13,3 °C 66 % 1010,9 hPa 0,0 mm 8,5 km/h (2 Bft) W-NW 296 ° 1 min 0,000 mm 3,6 UV-I 1069 W/m² 7,1 °C 13,3 °C 12,9 km/h (3 Bft)
10.05.2019 14:08 13,3 °C 68 % 1010,8 hPa 0,0 mm 11,1 km/h (2 Bft) W-NW 286 ° 1 min 0,000 mm 3,0 UV-I 1069 W/m² 7,5 °C 13,3 °C 16,1 km/h (3 Bft)
10.05.2019 14:09 13,2 °C 67 % 1010,8 hPa 0,0 mm 6,8 km/h (2 Bft) W 261 ° 0 min 0,000 mm 2,8 UV-I 281 W/m² 7,2 °C 13,2 °C 9,7 km/h (2 Bft)
10.05.2019 14:10 13,1 °C 68 % 1010,9 hPa 0,0 mm 7,6 km/h (2 Bft) W 259 ° 0 min 0,000 mm 2,8 UV-I 297 W/m² 7,3 °C 13,1 °C 12,9 km/h (3 Bft)
10.05.2019 14:11 13,0 °C 68 % 1010,8 hPa 0,0 mm 4,0 km/h (1 Bft) SW 230 ° 0 min 0,000 mm 2,9 UV-I 388 W/m² 7,2 °C 13,0 °C 12,9 km/h (3 Bft)
10.05.2019 14:12 12,8 °C 67 % 1010,9 hPa 0,0 mm 6,6 km/h (2 Bft) NW 315 ° 0 min 0,000 mm 3,0 UV-I 376 W/m² 6,8 °C 12,8 °C 14,5 km/h (3 Bft)
10.05.2019 14:13 12,8 °C 70 % 1010,9 hPa 0,0 mm 11,6 km/h (2 Bft) W-NW 292 ° 0 min 0,000 mm 2,7 UV-I 339 W/m² 7,5 °C 12,8 °C 19,3 km/h (3 Bft)
10.05.2019 14:14 12,8 °C 68 % 1010,9 hPa 0,0 mm 8,4 km/h (2 Bft) W-NW 285 ° 0 min 0,000 mm 2,5 UV-I 304 W/m² 7,0 °C 12,8 °C 12,9 km/h (3 Bft)
10.05.2019 14:15 12,7 °C 69 % 1010,9 hPa 0,0 mm 7,8 km/h (2 Bft) W 268 ° 0 min 0,000 mm 2,2 UV-I 276 W/m² 7,2 °C 12,7 °C 12,9 km/h (3 Bft)
10.05.2019 14:16 12,7 °C 68 % 1010,9 hPa 0,0 mm 6,4 km/h (2 Bft) W 265 ° 0 min 0,000 mm 2,0 UV-I 255 W/m² 6,9 °C 12,7 °C 11,3 km/h (2 Bft)
10.05.2019 14:17 12,6 °C 67 % 1010,9 hPa 0,0 mm 8,4 km/h (2 Bft) W-SW 240 ° 0 min 0,000 mm 1,8 UV-I 216 W/m² 6,6 °C 12,6 °C 14,5 km/h (3 Bft)
10.05.2019 14:18 12,5 °C 69 % 1010,9 hPa 0,0 mm 12,8 km/h (3 Bft) W-SW 255 ° 0 min 0,000 mm 1,5 UV-I 204 W/m² 7,0 °C 12,5 °C 17,7 km/h (3 Bft)
10.05.2019 14:19 12,4 °C 68 % 1011,0 hPa 0,0 mm 10,0 km/h (2 Bft) W 271 ° 0 min 0,000 mm 1,5 UV-I 197 W/m² 6,7 °C 12,4 °C 16,1 km/h (3 Bft)
10.05.2019 14:20 12,4 °C 68 % 1011,0 hPa 0,0 mm 9,8 km/h (2 Bft) W 263 ° 0 min 0,000 mm 1,5 UV-I 190 W/m² 6,7 °C 12,4 °C 16,1 km/h (3 Bft)
10.05.2019 14:21 12,3 °C 70 % 1011,0 hPa 0,0 mm 8,7 km/h (2 Bft) W-NW 290 ° 0 min 0,000 mm 1,4 UV-I 181 W/m² 7,0 °C 12,3 °C 14,5 km/h (3 Bft)
10.05.2019 14:22 12,3 °C 69 % 1011,0 hPa 0,0 mm 6,1 km/h (2 Bft) W-NW 298 ° 0 min 0,000 mm 1,4 UV-I 174 W/m² 6,8 °C 12,3 °C 17,7 km/h (3 Bft)
10.05.2019 14:23 12,3 °C 69 % 1011,1 hPa 0,0 mm 13,9 km/h (3 Bft) NW 315 ° 0 min 0,000 mm 1,4 UV-I 167 W/m² 6,8 °C 12,3 °C 17,7 km/h (3 Bft)
10.05.2019 14:24 12,2 °C 70 % 1011,1 hPa 0,0 mm 13,7 km/h (3 Bft) W-SW 254 ° 0 min 0,000 mm 1,4 UV-I 171 W/m² 6,9 °C 12,2 °C 19,3 km/h (3 Bft)
10.05.2019 14:25 12,1 °C 71 % 1011,2 hPa 0,0 mm 15,1 km/h (3 Bft) W 281 ° 0 min 0,000 mm 1,5 UV-I 181 W/m² 7,0 °C 12,1 °C 20,9 km/h (4 Bft)
10.05.2019 14:26 11,9 °C 71 % 1011,2 hPa 0,0 mm 7,7 km/h (2 Bft) W 277 ° 0 min 0,000 mm 1,7 UV-I 206 W/m² 6,8 °C 11,9 °C 12,9 km/h (3 Bft)
10.05.2019 14:27 11,8 °C 72 % 1011,2 hPa 0,0 mm 9,7 km/h (2 Bft) W 261 ° 0 min 0,000 mm 1,9 UV-I 232 W/m² 6,9 °C 11,8 °C 16,1 km/h (3 Bft)
10.05.2019 14:28 11,7 °C 72 % 1011,2 hPa 0,0 mm 5,0 km/h (1 Bft) W-SW 242 ° 0 min 0,000 mm 2,2 UV-I 262 W/m² 6,8 °C 11,7 °C 12,9 km/h (3 Bft)
10.05.2019 14:29 11,5 °C 73 % 1011,2 hPa 0,0 mm 7,3 km/h (2 Bft) SW 236 ° 0 min 0,000 mm 2,5 UV-I 301 W/m² 6,8 °C 11,5 °C 12,9 km/h (3 Bft)
10.05.2019 14:30 11,4 °C 75 % 1011,2 hPa 0,0 mm 7,7 km/h (2 Bft) W 263 ° 0 min 0,000 mm 2,5 UV-I 278 W/m² 7,1 °C 11,4 °C 14,5 km/h (3 Bft)
10.05.2019 14:31 11,3 °C 75 % 1011,3 hPa 0,0 mm 9,5 km/h (2 Bft) W-SW 246 ° 0 min 0,000 mm 2,4 UV-I 255 W/m² 7,0 °C 11,3 °C 16,1 km/h (3 Bft)
10.05.2019 14:32 11,3 °C 76 % 1011,2 hPa 0,0 mm 5,5 km/h (1 Bft) W 276 ° 0 min 0,000 mm 2,4 UV-I 244 W/m² 7,2 °C 11,3 °C 11,3 km/h (2 Bft)
10.05.2019 14:33 11,2 °C 77 % 1011,2 hPa 0,0 mm 10,6 km/h (2 Bft) SW 217 ° 0 min 0,000 mm 2,4 UV-I 251 W/m² 7,3 °C 11,2 °C 16,1 km/h (3 Bft)
10.05.2019 14:34 11,2 °C 77 % 1011,2 hPa 0,0 mm 6,8 km/h (2 Bft) W 260 ° 0 min 0,000 mm 2,6 UV-I 272 W/m² 7,3 °C 11,2 °C 12,9 km/h (3 Bft)
10.05.2019 14:35 11,1 °C 76 % 1011,2 hPa 0,0 mm 3,4 km/h (1 Bft) W 275 ° 0 min 0,000 mm 2,6 UV-I 345 W/m² 7,0 °C 11,1 °C 6,4 km/h (2 Bft)
10.05.2019 14:36 11,2 °C 79 % 1011,1 hPa 0,0 mm 5,5 km/h (1 Bft) W 274 ° 0 min 0,000 mm 4,7 UV-I 345 W/m² 7,7 °C 11,2 °C 6,4 km/h (2 Bft)
10.05.2019 14:37 11,3 °C 79 % 1011,2 hPa 0,0 mm 5,8 km/h (2 Bft) W-SW 252 ° 0 min 0,000 mm 5,2 UV-I 345 W/m² 7,8 °C 11,3 °C 8,0 km/h (2 Bft)
10.05.2019 14:38 11,5 °C 77 % 1011,1 hPa 0,0 mm 5,6 km/h (1 Bft) SW 232 ° 1 min 0,000 mm 5,4 UV-I 867 W/m² 7,6 °C 11,5 °C 11,3 km/h (2 Bft)
10.05.2019 14:39 11,7 °C 77 % 1011,2 hPa 0,0 mm 3,4 km/h (1 Bft) W 279 ° 1 min 0,000 mm 6,0 UV-I 867 W/m² 7,8 °C 11,7 °C 4,8 km/h (1 Bft)
10.05.2019 14:40 12,0 °C 81 % 1011,2 hPa 0,0 mm 4,4 km/h (1 Bft) W-SW 250 ° 1 min 0,000 mm 6,0 UV-I 979 W/m² 8,8 °C 12,0 °C 12,9 km/h (3 Bft)
10.05.2019 14:41 12,1 °C 77 % 1011,2 hPa 0,0 mm 9,2 km/h (2 Bft) S-SW 203 ° 1 min 0,000 mm 5,9 UV-I 956 W/m² 8,2 °C 12,1 °C 12,9 km/h (3 Bft)
10.05.2019 14:42 12,3 °C 75 % 1011,2 hPa 0,0 mm 2,9 km/h (1 Bft) W-NW 293 ° 1 min 0,000 mm 5,9 UV-I 928 W/m² 8,0 °C 12,3 °C 4,8 km/h (1 Bft)
10.05.2019 14:43 12,5 °C 78 % 1011,2 hPa 0,0 mm 5,6 km/h (1 Bft) W-NW 300 ° 1 min 0,000 mm 5,9 UV-I 904 W/m² 8,8 °C 12,5 °C 14,5 km/h (3 Bft)
10.05.2019 14:44 12,7 °C 77 % 1011,2 hPa 0,0 mm 11,4 km/h (2 Bft) SW 222 ° 1 min 0,000 mm 5,9 UV-I 911 W/m² 8,8 °C 12,7 °C 16,1 km/h (3 Bft)
10.05.2019 14:45 12,8 °C 76 % 1011,2 hPa 0,0 mm 10,0 km/h (2 Bft) W 263 ° 1 min 0,000 mm 6,0 UV-I 919 W/m² 8,7 °C 12,8 °C 14,5 km/h (3 Bft)
10.05.2019 14:46 12,9 °C 76 % 1011,2 hPa 0,0 mm 12,9 km/h (3 Bft) NW 310 ° 1 min 0,000 mm 5,9 UV-I 946 W/m² 8,8 °C 12,9 °C 17,7 km/h (3 Bft)
10.05.2019 14:47 13,0 °C 74 % 1011,1 hPa 0,0 mm 9,3 km/h (2 Bft) W 277 ° 1 min 0,000 mm 6,1 UV-I 935 W/m² 8,5 °C 13,0 °C 12,9 km/h (3 Bft)
10.05.2019 14:48 13,1 °C 75 % 1011,1 hPa 0,0 mm 11,5 km/h (2 Bft) W-SW 241 ° 1 min 0,000 mm 6,1 UV-I 926 W/m² 8,8 °C 13,1 °C 17,7 km/h (3 Bft)
10.05.2019 14:49 13,1 °C 71 % 1011,2 hPa 0,0 mm 9,3 km/h (2 Bft) W-SW 254 ° 1 min 0,000 mm 6,0 UV-I 912 W/m² 8,0 °C 13,1 °C 14,5 km/h (3 Bft)
10.05.2019 14:50 13,2 °C 72 % 1011,1 hPa 0,0 mm 11,3 km/h (2 Bft) W 260 ° 1 min 0,000 mm 6,0 UV-I 904 W/m² 8,3 °C 13,2 °C 14,5 km/h (3 Bft)
10.05.2019 14:51 13,2 °C 72 % 1011,1 hPa 0,0 mm 4,1 km/h (1 Bft) W 279 ° 1 min 0,000 mm 5,3 UV-I 909 W/m² 8,3 °C 13,2 °C 14,5 km/h (3 Bft)
10.05.2019 14:52 13,3 °C 76 % 1011,1 hPa 0,0 mm 6,2 km/h (2 Bft) W-NW 302 ° 1 min 0,000 mm 5,9 UV-I 854 W/m² 9,2 °C 13,3 °C 11,3 km/h (2 Bft)
10.05.2019 14:53 13,4 °C 70 % 1011,1 hPa 0,0 mm 9,5 km/h (2 Bft) W-NW 282 ° 1 min 0,000 mm 6,1 UV-I 928 W/m² 8,0 °C 13,4 °C 14,5 km/h (3 Bft)
10.05.2019 14:54 13,4 °C 70 % 1011,1 hPa 0,0 mm 5,6 km/h (1 Bft) W 269 ° 1 min 0,000 mm 2,9 UV-I 928 W/m² 8,0 °C 13,4 °C 12,9 km/h (3 Bft)
10.05.2019 14:55 13,2 °C 69 % 1011,1 hPa 0,0 mm 4,2 km/h (1 Bft) W-NW 297 ° 1 min 0,000 mm 6,3 UV-I 928 W/m² 7,6 °C 13,2 °C 8,0 km/h (2 Bft)
10.05.2019 14:56 13,2 °C 70 % 1011,1 hPa 0,0 mm 11,1 km/h (2 Bft) W-NW 285 ° 1 min 0,000 mm 6,1 UV-I 954 W/m² 7,9 °C 13,2 °C 19,3 km/h (3 Bft)
10.05.2019 14:57 13,2 °C 71 % 1011,1 hPa 0,0 mm 3,7 km/h (1 Bft) W 277 ° 1 min 0,000 mm 6,0 UV-I 911 W/m² 8,1 °C 13,2 °C 9,7 km/h (2 Bft)
10.05.2019 14:58 13,4 °C 73 % 1011,1 hPa 0,0 mm 8,4 km/h (2 Bft) W-NW 287 ° 1 min 0,000 mm 5,9 UV-I 881 W/m² 8,7 °C 13,4 °C 14,5 km/h (3 Bft)
10.05.2019 14:59 13,4 °C 71 % 1011,1 hPa 0,0 mm 7,1 km/h (2 Bft) W-NW 296 ° 1 min 0,000 mm 5,8 UV-I 874 W/m² 8,3 °C 13,4 °C 14,5 km/h (3 Bft)
10.05.2019 15:00 13,4 °C 70 % 1011,1 hPa 0,0 mm 10,1 km/h (2 Bft) W-NW 289 ° 1 min 0,330 mm 5,9 UV-I 884 W/m² 8,0 °C 13,4 °C 17,7 km/h (3 Bft)
10.05.2019 15:01 13,5 °C 68 % 1011,1 hPa 0,0 mm 11,9 km/h (2 Bft) NW 314 ° 1 min 0,000 mm 5,9 UV-I 879 W/m² 7,7 °C 13,5 °C 17,7 km/h (3 Bft)
10.05.2019 15:02 13,5 °C 65 % 1011,1 hPa 0,0 mm 12,1 km/h (2 Bft) W-NW 295 ° 1 min 0,000 mm 5,9 UV-I 889 W/m² 7,1 °C 13,5 °C 17,7 km/h (3 Bft)
10.05.2019 15:03 13,5 °C 65 % 1011,1 hPa 0,0 mm 11,5 km/h (2 Bft) W 267 ° 1 min 0,000 mm 5,9 UV-I 889 W/m² 7,1 °C 13,5 °C 20,9 km/h (4 Bft)
10.05.2019 15:04 13,4 °C 63 % 1011,1 hPa 0,0 mm 11,3 km/h (2 Bft) W-SW 248 ° 1 min 0,000 mm 5,8 UV-I 886 W/m² 6,5 °C 13,4 °C 16,1 km/h (3 Bft)
10.05.2019 15:05 13,4 °C 63 % 1011,1 hPa 0,0 mm 13,6 km/h (3 Bft) W-SW 250 ° 1 min 0,000 mm 5,7 UV-I 882 W/m² 6,5 °C 13,4 °C 19,3 km/h (3 Bft)
10.05.2019 15:06 13,3 °C 65 % 1011,1 hPa 0,0 mm 14,8 km/h (3 Bft) W 263 ° 1 min 0,000 mm 5,8 UV-I 898 W/m² 6,9 °C 13,3 °C 19,3 km/h (3 Bft)
10.05.2019 15:07 13,4 °C 67 % 1011,2 hPa 0,0 mm 9,5 km/h (2 Bft) W-NW 285 ° 1 min 0,000 mm 5,7 UV-I 902 W/m² 7,4 °C 13,4 °C 16,1 km/h (3 Bft)
10.05.2019 15:08 13,6 °C 68 % 1011,1 hPa 0,0 mm 8,8 km/h (2 Bft) W-NW 284 ° 1 min 0,000 mm 5,7 UV-I 912 W/m² 7,8 °C 13,6 °C 14,5 km/h (3 Bft)
10.05.2019 15:09 13,6 °C 68 % 1011,1 hPa 0,0 mm 8,0 km/h (2 Bft) W-SW 238 ° 1 min 0,000 mm 2,7 UV-I 912 W/m² 7,8 °C 13,6 °C 14,5 km/h (3 Bft)
10.05.2019 15:10 13,6 °C 65 % 1011,1 hPa 0,0 mm 4,5 km/h (1 Bft) S-SW 199 ° 0 min 0,000 mm 3,6 UV-I 246 W/m² 7,1 °C 13,6 °C 14,5 km/h (3 Bft)
10.05.2019 15:11 13,5 °C 65 % 1011,1 hPa 0,0 mm 14,1 km/h (3 Bft) W 281 ° 0 min 0,000 mm 2,5 UV-I 246 W/m² 7,1 °C 13,5 °C 22,5 km/h (4 Bft)
10.05.2019 15:12 13,4 °C 63 % 1011,1 hPa 0,0 mm 12,5 km/h (3 Bft) N-NW 327 ° 0 min 0,000 mm 2,4 UV-I 176 W/m² 6,5 °C 13,4 °C 17,7 km/h (3 Bft)
10.05.2019 15:13 13,3 °C 64 % 1011,1 hPa 0,0 mm 14,1 km/h (3 Bft) W-SW 254 ° 0 min 0,000 mm 2,4 UV-I 199 W/m² 6,6 °C 13,3 °C 20,9 km/h (4 Bft)
10.05.2019 15:14 13,2 °C 64 % 1011,1 hPa 0,0 mm 16,4 km/h (3 Bft) W-SW 246 ° 0 min 0,000 mm 5,6 UV-I 255 W/m² 6,5 °C 13,2 °C 22,5 km/h (4 Bft)
10.05.2019 15:15 13,1 °C 63 % 1011,1 hPa 0,0 mm 13,7 km/h (3 Bft) W-NW 298 ° 0 min 0,000 mm 2,9 UV-I 578 W/m² 6,2 °C 13,1 °C 20,9 km/h (4 Bft)
10.05.2019 15:16 13,0 °C 66 % 1011,1 hPa 0,0 mm 11,8 km/h (2 Bft) W-NW 301 ° 0 min 0,000 mm 5,4 UV-I 578 W/m² 6,8 °C 13,0 °C 17,7 km/h (3 Bft)
10.05.2019 15:17 13,1 °C 65 % 1011,1 hPa 0,0 mm 5,8 km/h (2 Bft) W-SW 246 ° 0 min 0,000 mm 2,6 UV-I 287 W/m² 6,7 °C 13,1 °C 9,7 km/h (2 Bft)
10.05.2019 15:18 13,1 °C 66 % 1011,1 hPa 0,0 mm 6,9 km/h (2 Bft) W 280 ° 0 min 0,000 mm 2,8 UV-I 295 W/m² 6,9 °C 13,1 °C 14,5 km/h (3 Bft)
10.05.2019 15:19 13,1 °C 67 % 1011,1 hPa 0,0 mm 7,9 km/h (2 Bft) W-NW 284 ° 0 min 0,000 mm 3,2 UV-I 295 W/m² 7,1 °C 13,1 °C 14,5 km/h (3 Bft)
10.05.2019 15:20 13,1 °C 66 % 1011,1 hPa 0,0 mm 8,9 km/h (2 Bft) W-NW 288 ° 0 min 0,000 mm 6,0 UV-I 295 W/m² 6,9 °C 13,1 °C 12,9 km/h (3 Bft)
10.05.2019 15:21 13,2 °C 68 % 1011,1 hPa 0,0 mm 8,8 km/h (2 Bft) W-SW 257 ° 1 min 0,000 mm 6,0 UV-I 1028 W/m² 7,4 °C 13,2 °C 12,9 km/h (3 Bft)
10.05.2019 15:22 13,5 °C 71 % 1011,1 hPa 0,0 mm 7,4 km/h (2 Bft) SW 228 ° 1 min 0,000 mm 4,1 UV-I 1028 W/m² 8,3 °C 13,5 °C 11,3 km/h (2 Bft)
10.05.2019 15:23 13,6 °C 67 % 1011,1 hPa 0,0 mm 7,6 km/h (2 Bft) W-SW 257 ° 1 min 0,000 mm 2,6 UV-I 1028 W/m² 7,6 °C 13,6 °C 12,9 km/h (3 Bft)
10.05.2019 15:24 13,6 °C 65 % 1011,1 hPa 0,0 mm 14,2 km/h (3 Bft) W-SW 256 ° 0 min 0,000 mm 2,5 UV-I 251 W/m² 7,1 °C 13,6 °C 17,7 km/h (3 Bft)
10.05.2019 15:25 13,4 °C 64 % 1011,1 hPa 0,0 mm 10,3 km/h (2 Bft) SW 217 ° 0 min 0,000 mm 2,3 UV-I 232 W/m² 6,7 °C 13,4 °C 14,5 km/h (3 Bft)
10.05.2019 15:26 13,2 °C 64 % 1011,0 hPa 0,0 mm 4,1 km/h (1 Bft) W-SW 237 ° 0 min 0,000 mm 2,2 UV-I 214 W/m² 6,5 °C 13,2 °C 6,4 km/h (2 Bft)
10.05.2019 15:27 13,1 °C 65 % 1011,1 hPa 0,0 mm 6,8 km/h (2 Bft) W-NW 297 ° 0 min 0,000 mm 2,1 UV-I 223 W/m² 6,7 °C 13,1 °C 12,9 km/h (3 Bft)
10.05.2019 15:28 13,1 °C 65 % 1011,0 hPa 0,0 mm 5,5 km/h (1 Bft) W-NW 294 ° 0 min 0,000 mm 2,2 UV-I 234 W/m² 6,7 °C 13,1 °C 12,9 km/h (3 Bft)
10.05.2019 15:29 13,1 °C 65 % 1011,0 hPa 0,0 mm 6,9 km/h (2 Bft) W 264 ° 0 min 0,000 mm 2,2 UV-I 229 W/m² 6,7 °C 13,1 °C 12,9 km/h (3 Bft)
10.05.2019 15:30 13,0 °C 66 % 1010,9 hPa 0,0 mm 3,5 km/h (1 Bft) W-NW 294 ° 0 min 0,000 mm 2,1 UV-I 225 W/m² 6,8 °C 13,0 °C 8,0 km/h (2 Bft)
10.05.2019 15:31 13,1 °C 67 % 1010,9 hPa 0,0 mm 10,5 km/h (2 Bft) W 279 ° 0 min 0,000 mm 2,1 UV-I 229 W/m² 7,1 °C 13,1 °C 16,1 km/h (3 Bft)
10.05.2019 15:32 13,0 °C 65 % 1011,1 hPa 0,0 mm 13,0 km/h (3 Bft) W 267 ° 0 min 0,000 mm 2,2 UV-I 246 W/m² 6,6 °C 13,0 °C 17,7 km/h (3 Bft)
10.05.2019 15:33 12,9 °C 67 % 1011,0 hPa 0,0 mm 10,9 km/h (2 Bft) N-NW 327 ° 0 min 0,000 mm 2,7 UV-I 417 W/m² 6,9 °C 12,9 °C 17,7 km/h (3 Bft)
10.05.2019 15:34 12,9 °C 64 % 1011,0 hPa 0,0 mm 8,7 km/h (2 Bft) W-NW 283 ° 0 min 0,000 mm 3,9 UV-I 417 W/m² 6,3 °C 12,9 °C 14,5 km/h (3 Bft)
10.05.2019 15:35 13,1 °C 66 % 1010,9 hPa 0,0 mm 6,2 km/h (2 Bft) W-NW 290 ° 0 min 0,000 mm 5,0 UV-I 417 W/m² 6,9 °C 13,1 °C 12,9 km/h (3 Bft)
10.05.2019 15:36 13,3 °C 68 % 1010,9 hPa 0,0 mm 9,4 km/h (2 Bft) NW 305 ° 0 min 0,000 mm 4,5 UV-I 417 W/m² 7,5 °C 13,3 °C 12,9 km/h (3 Bft)
10.05.2019 15:37 13,3 °C 64 % 1010,9 hPa 0,0 mm 8,0 km/h (2 Bft) W-SW 254 ° 0 min 0,000 mm 5,6 UV-I 417 W/m² 6,6 °C 13,3 °C 12,9 km/h (3 Bft)
10.05.2019 15:38 13,4 °C 64 % 1010,9 hPa 0,0 mm 9,1 km/h (2 Bft) W 270 ° 0 min 0,000 mm 5,4 UV-I 417 W/m² 6,7 °C 13,4 °C 11,3 km/h (2 Bft)
10.05.2019 15:39 13,6 °C 65 % 1010,9 hPa 0,0 mm 7,9 km/h (2 Bft) W 271 ° 1 min 0,000 mm 5,4 UV-I 951 W/m² 7,1 °C 13,6 °C 11,3 km/h (2 Bft)
10.05.2019 15:40 13,8 °C 66 % 1010,9 hPa 0,0 mm 7,6 km/h (2 Bft) SW 225 ° 1 min 0,000 mm 5,2 UV-I 940 W/m² 7,6 °C 13,8 °C 12,9 km/h (3 Bft)
10.05.2019 15:41 13,9 °C 66 % 1010,9 hPa 0,0 mm 5,0 km/h (1 Bft) W-NW 292 ° 1 min 0,000 mm 5,3 UV-I 958 W/m² 7,7 °C 13,9 °C 11,3 km/h (2 Bft)
10.05.2019 15:42 14,1 °C 66 % 1010,9 hPa 0,0 mm 9,9 km/h (2 Bft) W 267 ° 1 min 0,000 mm 2,6 UV-I 958 W/m² 7,8 °C 14,1 °C 16,1 km/h (3 Bft)
10.05.2019 15:43 14,2 °C 64 % 1010,9 hPa 0,0 mm 5,0 km/h (1 Bft) W 261 ° 0 min 0,000 mm 2,4 UV-I 258 W/m² 7,5 °C 14,2 °C 9,7 km/h (2 Bft)
10.05.2019 15:44 14,1 °C 63 % 1010,9 hPa 0,0 mm 4,6 km/h (1 Bft) SW 218 ° 0 min 0,000 mm 2,2 UV-I 230 W/m² 7,2 °C 14,1 °C 11,3 km/h (2 Bft)
10.05.2019 15:45 13,8 °C 62 % 1010,9 hPa 0,0 mm 1,8 km/h (1 Bft) W-SW 249 ° 0 min 0,000 mm 2,0 UV-I 202 W/m² 6,6 °C 13,8 °C 4,8 km/h (1 Bft)
10.05.2019 15:46 13,7 °C 64 % 1010,9 hPa 0,0 mm 4,9 km/h (1 Bft) NW 306 ° 0 min 0,000 mm 1,6 UV-I 193 W/m² 7,0 °C 13,7 °C 9,7 km/h (2 Bft)
10.05.2019 15:47 13,6 °C 63 % 1010,9 hPa 0,0 mm 4,3 km/h (1 Bft) W-SW 257 ° 0 min 0,000 mm 1,5 UV-I 186 W/m² 6,7 °C 13,6 °C 6,4 km/h (2 Bft)
10.05.2019 15:48 13,4 °C 66 % 1010,9 hPa 0,0 mm 2,1 km/h (1 Bft) NW 320 ° 0 min 0,000 mm 1,4 UV-I 186 W/m² 7,2 °C 13,4 °C 4,8 km/h (1 Bft)
10.05.2019 15:49 13,4 °C 66 % 1010,9 hPa 0,0 mm 5,1 km/h (1 Bft) W-NW 288 ° 0 min 0,000 mm 1,4 UV-I 188 W/m² 7,2 °C 13,4 °C 6,4 km/h (2 Bft)
10.05.2019 15:50 13,3 °C 64 % 1010,9 hPa 0,0 mm 5,6 km/h (1 Bft) NW 316 ° 0 min 0,000 mm 1,5 UV-I 209 W/m² 6,6 °C 13,3 °C 6,4 km/h (2 Bft)
10.05.2019 15:51 13,3 °C 64 % 1010,9 hPa 0,0 mm 3,5 km/h (1 Bft) SW 236 ° 1 min 0,000 mm 2,9 UV-I 758 W/m² 6,6 °C 13,3 °C 6,4 km/h (2 Bft)
10.05.2019 15:52 13,3 °C 64 % 1010,9 hPa 0,0 mm 8,6 km/h (2 Bft) SW 233 ° 1 min 0,000 mm 4,3 UV-I 673 W/m² 6,6 °C 13,3 °C 16,1 km/h (3 Bft)
10.05.2019 15:53 13,4 °C 66 % 1010,9 hPa 0,0 mm 7,1 km/h (2 Bft) W-NW 290 ° 1 min 0,000 mm 3,9 UV-I 673 W/m² 7,2 °C 13,4 °C 12,9 km/h (3 Bft)
10.05.2019 15:54 13,7 °C 67 % 1010,9 hPa 0,0 mm 9,1 km/h (2 Bft) W 267 ° 1 min 0,000 mm 3,3 UV-I 673 W/m² 7,7 °C 13,7 °C 16,1 km/h (3 Bft)
10.05.2019 15:55 13,8 °C 67 % 1010,9 hPa 0,0 mm 11,1 km/h (2 Bft) W 267 ° 1 min 0,000 mm 3,3 UV-I 673 W/m² 7,8 °C 13,8 °C 16,1 km/h (3 Bft)
10.05.2019 15:56 13,9 °C 65 % 1010,9 hPa 0,0 mm 6,6 km/h (2 Bft) W-SW 248 ° 1 min 0,000 mm 4,0 UV-I 673 W/m² 7,4 °C 13,9 °C 11,3 km/h (2 Bft)
10.05.2019 15:57 13,9 °C 64 % 1010,9 hPa 0,0 mm 3,3 km/h (1 Bft) W-SW 254 ° 1 min 0,000 mm 4,1 UV-I 673 W/m² 7,2 °C 13,9 °C 6,4 km/h (2 Bft)
10.05.2019 15:58 13,9 °C 63 % 1010,9 hPa 0,0 mm 5,0 km/h (1 Bft) W 273 ° 1 min 0,000 mm 2,9 UV-I 673 W/m² 7,0 °C 13,9 °C 6,4 km/h (2 Bft)
10.05.2019 15:59 14,0 °C 66 % 1010,9 hPa 0,0 mm 5,8 km/h (2 Bft) W-NW 286 ° 1 min 0,000 mm 2,5 UV-I 673 W/m² 7,7 °C 14,0 °C 9,7 km/h (2 Bft)
10.05.2019 16:00 14,0 °C 64 % 1010,9 hPa 0,0 mm 8,2 km/h (2 Bft) W-SW 256 ° 0 min 0,305 mm 2,3 UV-I 278 W/m² 7,3 °C 14,0 °C 11,3 km/h (2 Bft)
10.05.2019 16:01 14,0 °C 63 % 1010,9 hPa 0,0 mm 4,2 km/h (1 Bft) W-NW 294 ° 0 min 0,000 mm 2,3 UV-I 271 W/m² 7,1 °C 14,0 °C 8,0 km/h (2 Bft)
10.05.2019 16:02 13,8 °C 61 % 1010,9 hPa 0,0 mm 5,6 km/h (1 Bft) W 267 ° 0 min 0,000 mm 2,4 UV-I 302 W/m² 6,4 °C 13,8 °C 11,3 km/h (2 Bft)
10.05.2019 16:03 13,8 °C 63 % 1010,9 hPa 0,0 mm 14,4 km/h (3 Bft) W 259 ° 0 min 0,000 mm 4,3 UV-I 359 W/m² 6,9 °C 13,8 °C 19,3 km/h (3 Bft)
10.05.2019 16:04 13,8 °C 62 % 1010,9 hPa 0,0 mm 8,1 km/h (2 Bft) N-NW 327 ° 0 min 0,000 mm 2,9 UV-I 359 W/m² 6,6 °C 13,8 °C 14,5 km/h (3 Bft)
10.05.2019 16:05 13,8 °C 64 % 1010,8 hPa 0,0 mm 5,9 km/h (2 Bft) N-NW 328 ° 0 min 0,000 mm 2,5 UV-I 475 W/m² 7,1 °C 13,8 °C 9,7 km/h (2 Bft)
10.05.2019 16:06 13,8 °C 62 % 1010,9 hPa 0,0 mm 11,3 km/h (2 Bft) NW 318 ° 0 min 0,000 mm 2,3 UV-I 475 W/m² 6,6 °C 13,8 °C 16,1 km/h (3 Bft)
10.05.2019 16:07 13,8 °C 63 % 1010,9 hPa 0,0 mm 7,4 km/h (2 Bft) W 259 ° 0 min 0,000 mm 2,1 UV-I 234 W/m² 6,9 °C 13,8 °C 14,5 km/h (3 Bft)
10.05.2019 16:08 13,7 °C 63 % 1010,9 hPa 0,0 mm 5,9 km/h (2 Bft) W 259 ° 0 min 0,000 mm 1,9 UV-I 197 W/m² 6,8 °C 13,7 °C 9,7 km/h (2 Bft)
10.05.2019 16:09 13,6 °C 61 % 1010,9 hPa 0,0 mm 7,1 km/h (2 Bft) S-SO 163 ° 0 min 0,000 mm 1,7 UV-I 199 W/m² 6,2 °C 13,6 °C 12,9 km/h (3 Bft)
10.05.2019 16:10 13,5 °C 62 % 1010,9 hPa 0,0 mm 7,2 km/h (2 Bft) W 267 ° 0 min 0,000 mm 1,8 UV-I 262 W/m² 6,4 °C 13,5 °C 14,5 km/h (3 Bft)
10.05.2019 16:11 13,5 °C 64 % 1010,9 hPa 0,0 mm 8,8 km/h (2 Bft) W-SW 256 ° 0 min 0,000 mm 1,8 UV-I 234 W/m² 6,8 °C 13,5 °C 14,5 km/h (3 Bft)
10.05.2019 16:12 13,4 °C 65 % 1010,9 hPa 0,0 mm 8,1 km/h (2 Bft) W 268 ° 0 min 0,000 mm 1,8 UV-I 257 W/m² 7,0 °C 13,4 °C 12,9 km/h (3 Bft)
10.05.2019 16:13 13,4 °C 65 % 1010,9 hPa 0,0 mm 9,9 km/h (2 Bft) W-SW 244 ° 0 min 0,000 mm 2,0 UV-I 297 W/m² 7,0 °C 13,4 °C 11,3 km/h (2 Bft)
10.05.2019 16:14 13,5 °C 63 % 1010,9 hPa 0,0 mm 7,9 km/h (2 Bft) W 269 ° 0 min 0,000 mm 2,3 UV-I 415 W/m² 6,6 °C 13,5 °C 12,9 km/h (3 Bft)
10.05.2019 16:15 13,7 °C 65 % 1010,9 hPa 0,0 mm 9,1 km/h (2 Bft) NW 315 ° 0 min 0,000 mm 2,5 UV-I 353 W/m² 7,2 °C 13,7 °C 12,9 km/h (3 Bft)
10.05.2019 16:16 13,7 °C 64 % 1010,9 hPa 0,0 mm 8,6 km/h (2 Bft) W-NW 289 ° 0 min 0,000 mm 2,5 UV-I 445 W/m² 7,0 °C 13,7 °C 14,5 km/h (3 Bft)
10.05.2019 16:17 13,8 °C 64 % 1010,9 hPa 0,0 mm 9,8 km/h (2 Bft) NW 326 ° 0 min 0,000 mm 2,8 UV-I 461 W/m² 7,1 °C 13,8 °C 16,1 km/h (3 Bft)
10.05.2019 16:18 13,8 °C 64 % 1010,8 hPa 0,0 mm 9,8 km/h (2 Bft) NW 320 ° 0 min 0,000 mm 2,8 UV-I 411 W/m² 7,1 °C 13,8 °C 19,3 km/h (3 Bft)
10.05.2019 16:19 13,9 °C 65 % 1010,9 hPa 0,0 mm 7,6 km/h (2 Bft) NW 318 ° 0 min 0,000 mm 2,5 UV-I 316 W/m² 7,4 °C 13,9 °C 12,9 km/h (3 Bft)
10.05.2019 16:20 14,1 °C 64 % 1010,8 hPa 0,0 mm 4,2 km/h (1 Bft) W 259 ° 0 min 0,000 mm 2,3 UV-I 299 W/m² 7,4 °C 14,1 °C 8,0 km/h (2 Bft)
10.05.2019 16:21 14,1 °C 65 % 1010,8 hPa 0,0 mm 7,6 km/h (2 Bft) W 261 ° 0 min 0,000 mm 2,4 UV-I 246 W/m² 7,6 °C 14,1 °C 12,9 km/h (3 Bft)
10.05.2019 16:22 14,2 °C 63 % 1010,9 hPa 0,0 mm 11,1 km/h (2 Bft) W-NW 291 ° 0 min 0,000 mm 2,3 UV-I 211 W/m² 7,3 °C 14,2 °C 14,5 km/h (3 Bft)
10.05.2019 16:23 14,1 °C 63 % 1010,9 hPa 0,0 mm 10,9 km/h (2 Bft) W 267 ° 0 min 0,000 mm 2,2 UV-I 211 W/m² 7,2 °C 14,1 °C 16,1 km/h (3 Bft)
10.05.2019 16:24 14,1 °C 62 % 1010,9 hPa 0,0 mm 14,4 km/h (3 Bft) W-NW 298 ° 0 min 0,000 mm 2,2 UV-I 265 W/m² 6,9 °C 14,1 °C 20,9 km/h (4 Bft)
10.05.2019 16:25 14,0 °C 63 % 1010,9 hPa 0,0 mm 10,4 km/h (2 Bft) W-NW 301 ° 0 min 0,000 mm 2,2 UV-I 269 W/m² 7,1 °C 14,0 °C 16,1 km/h (3 Bft)
10.05.2019 16:26 14,0 °C 63 % 1010,9 hPa 0,0 mm 16,8 km/h (3 Bft) W-NW 288 ° 0 min 0,000 mm 1,9 UV-I 121 W/m² 7,1 °C 14,0 °C 20,9 km/h (4 Bft)
10.05.2019 16:27 13,9 °C 61 % 1010,9 hPa 0,0 mm 14,7 km/h (3 Bft) NW 314 ° 0 min 0,000 mm 1,5 UV-I 114 W/m² 6,5 °C 13,9 °C 17,7 km/h (3 Bft)
10.05.2019 16:28 13,8 °C 62 % 1010,9 hPa 0,0 mm 8,2 km/h (2 Bft) W 261 ° 0 min 0,000 mm 1,5 UV-I 134 W/m² 6,6 °C 13,8 °C 14,5 km/h (3 Bft)
10.05.2019 16:29 13,7 °C 64 % 1011,0 hPa 0,0 mm 6,4 km/h (2 Bft) W 272 ° 0 min 0,000 mm 1,5 UV-I 163 W/m² 7,0 °C 13,7 °C 12,9 km/h (3 Bft)
10.05.2019 16:30 13,6 °C 63 % 1011,0 hPa 0,0 mm 8,8 km/h (2 Bft) W-NW 300 ° 0 min 0,000 mm 1,7 UV-I 197 W/m² 6,7 °C 13,6 °C 12,9 km/h (3 Bft)
10.05.2019 16:31 13,5 °C 63 % 1010,9 hPa 0,0 mm 7,4 km/h (2 Bft) W-NW 293 ° 0 min 0,000 mm 1,8 UV-I 223 W/m² 6,6 °C 13,5 °C 11,3 km/h (2 Bft)
10.05.2019 16:32 13,4 °C 65 % 1011,0 hPa 0,0 mm 6,0 km/h (2 Bft) W 281 ° 0 min 0,000 mm 1,8 UV-I 227 W/m² 7,0 °C 13,4 °C 9,7 km/h (2 Bft)
10.05.2019 16:33 13,4 °C 65 % 1011,0 hPa 0,0 mm 11,4 km/h (2 Bft) W 269 ° 0 min 0,000 mm 1,8 UV-I 221 W/m² 7,0 °C 13,4 °C 16,1 km/h (3 Bft)
10.05.2019 16:34 13,4 °C 63 % 1011,1 hPa 0,0 mm 11,7 km/h (2 Bft) W 274 ° 0 min 0,000 mm 2,0 UV-I 274 W/m² 6,5 °C 13,4 °C 17,7 km/h (3 Bft)
10.05.2019 16:35 13,3 °C 64 % 1011,0 hPa 0,0 mm 13,8 km/h (3 Bft) W 269 ° 0 min 0,000 mm 2,1 UV-I 297 W/m² 6,6 °C 13,3 °C 19,3 km/h (3 Bft)
10.05.2019 16:36 13,3 °C 63 % 1011,0 hPa 0,0 mm 7,2 km/h (2 Bft) W 275 ° 0 min 0,000 mm 2,3 UV-I 345 W/m² 6,4 °C 13,3 °C 12,9 km/h (3 Bft)
10.05.2019 16:37 13,3 °C 64 % 1011,1 hPa 0,0 mm 7,1 km/h (2 Bft) W-NW 299 ° 0 min 0,000 mm 2,3 UV-I 345 W/m² 6,6 °C 13,3 °C 11,3 km/h (2 Bft)
10.05.2019 16:38 13,4 °C 65 % 1011,0 hPa 0,0 mm 6,4 km/h (2 Bft) W 271 ° 0 min 0,000 mm 2,8 UV-I 401 W/m² 7,0 °C 13,4 °C 11,3 km/h (2 Bft)
10.05.2019 16:39 13,5 °C 66 % 1011,0 hPa 0,0 mm 7,7 km/h (2 Bft) W-NW 290 ° 0 min 0,000 mm 2,0 UV-I 401 W/m² 7,3 °C 13,5 °C 12,9 km/h (3 Bft)
10.05.2019 16:40 13,6 °C 64 % 1010,9 hPa 0,0 mm 4,1 km/h (1 Bft) W-NW 283 ° 0 min 0,000 mm 2,2 UV-I 232 W/m² 6,9 °C 13,6 °C 6,4 km/h (2 Bft)
10.05.2019 16:41 13,6 °C 65 % 1010,9 hPa 0,0 mm 3,8 km/h (1 Bft) W-SW 257 ° 0 min 0,000 mm 2,3 UV-I 230 W/m² 7,1 °C 13,6 °C 8,0 km/h (2 Bft)
10.05.2019 16:42 13,6 °C 63 % 1010,9 hPa 0,0 mm 1,2 km/h (1 Bft) W 273 ° 0 min 0,000 mm 2,1 UV-I 185 W/m² 6,7 °C 13,6 °C 4,8 km/h (1 Bft)
10.05.2019 16:43 13,6 °C 64 % 1011,0 hPa 0,0 mm 5,8 km/h (2 Bft) NW 321 ° 0 min 0,000 mm 1,7 UV-I 148 W/m² 6,9 °C 13,6 °C 11,3 km/h (2 Bft)
10.05.2019 16:44 13,5 °C 63 % 1011,0 hPa 0,0 mm 5,8 km/h (2 Bft) W-SW 238 ° 0 min 0,000 mm 1,6 UV-I 148 W/m² 6,6 °C 13,5 °C 9,7 km/h (2 Bft)
10.05.2019 16:45 13,4 °C 61 % 1011,0 hPa 0,0 mm 5,2 km/h (1 Bft) W-NW 287 ° 0 min 0,000 mm 1,6 UV-I 148 W/m² 6,0 °C 13,4 °C 8,0 km/h (2 Bft)
10.05.2019 16:46 13,4 °C 64 % 1011,0 hPa 0,0 mm 4,0 km/h (1 Bft) W-NW 294 ° 0 min 0,000 mm 1,6 UV-I 162 W/m² 6,7 °C 13,4 °C 6,4 km/h (2 Bft)
10.05.2019 16:47 13,3 °C 64 % 1011,0 hPa 0,0 mm 0,7 km/h (0 Bft) W-NW 294 ° 0 min 0,000 mm 1,6 UV-I 176 W/m² 6,6 °C 13,3 °C 3,2 km/h (1 Bft)
10.05.2019 16:48 13,3 °C 66 % 1011,0 hPa 0,0 mm 1,7 km/h (1 Bft) W-NW 293 ° 0 min 0,000 mm 1,8 UV-I 216 W/m² 7,1 °C 13,3 °C 3,2 km/h (1 Bft)
10.05.2019 16:49 13,3 °C 66 % 1011,0 hPa 0,0 mm 3,8 km/h (1 Bft) S 191 ° 0 min 0,000 mm 1,9 UV-I 288 W/m² 7,1 °C 13,3 °C 6,4 km/h (2 Bft)
10.05.2019 16:50 13,3 °C 64 % 1011,0 hPa 0,0 mm 2,2 km/h (1 Bft) W-NW 286 ° 0 min 0,000 mm 1,9 UV-I 281 W/m² 6,6 °C 13,3 °C 6,4 km/h (2 Bft)
10.05.2019 16:51 13,4 °C 65 % 1011,0 hPa 0,0 mm 4,2 km/h (1 Bft) W-NW 288 ° 0 min 0,000 mm 2,2 UV-I 308 W/m² 7,0 °C 13,4 °C 9,7 km/h (2 Bft)
10.05.2019 16:52 13,4 °C 65 % 1011,1 hPa 0,0 mm 3,0 km/h (1 Bft) W-SW 249 ° 0 min 0,000 mm 2,0 UV-I 243 W/m² 7,0 °C 13,4 °C 4,8 km/h (1 Bft)
10.05.2019 16:53 13,6 °C 64 % 1011,1 hPa 0,0 mm 3,2 km/h (1 Bft) W 265 ° 0 min 0,000 mm 1,9 UV-I 185 W/m² 6,9 °C 13,6 °C 11,3 km/h (2 Bft)
10.05.2019 16:54 13,7 °C 66 % 1011,0 hPa 0,0 mm 8,9 km/h (2 Bft) W 279 ° 0 min 0,000 mm 1,9 UV-I 192 W/m² 7,5 °C 13,7 °C 16,1 km/h (3 Bft)
10.05.2019 16:55 13,7 °C 65 % 1011,1 hPa 0,0 mm 9,2 km/h (2 Bft) NW 322 ° 0 min 0,000 mm 1,9 UV-I 197 W/m² 7,2 °C 13,7 °C 14,5 km/h (3 Bft)
10.05.2019 16:56 13,8 °C 64 % 1011,0 hPa 0,0 mm 6,4 km/h (2 Bft) NW 309 ° 0 min 0,000 mm 1,8 UV-I 206 W/m² 7,1 °C 13,8 °C 12,9 km/h (3 Bft)
10.05.2019 16:57 13,8 °C 63 % 1011,0 hPa 0,0 mm 9,5 km/h (2 Bft) W 266 ° 0 min 0,000 mm 1,7 UV-I 172 W/m² 6,9 °C 13,8 °C 19,3 km/h (3 Bft)
10.05.2019 16:58 13,9 °C 64 % 1010,9 hPa 0,0 mm 7,8 km/h (2 Bft) W 266 ° 0 min 0,000 mm 1,7 UV-I 146 W/m² 7,2 °C 13,9 °C 16,1 km/h (3 Bft)
10.05.2019 16:59 13,9 °C 63 % 1011,0 hPa 0,0 mm 9,4 km/h (2 Bft) W 260 ° 0 min 0,000 mm 1,7 UV-I 169 W/m² 7,0 °C 13,9 °C 14,5 km/h (3 Bft)
10.05.2019 17:00 13,8 °C 64 % 1011,1 hPa 0,0 mm 5,7 km/h (1 Bft) W 271 ° 0 min 0,000 mm 1,8 UV-I 185 W/m² 7,1 °C 13,8 °C 9,7 km/h (2 Bft)
10.05.2019 17:01 13,6 °C 64 % 1011,0 hPa 0,0 mm 6,3 km/h (2 Bft) S 173 ° 0 min 0,178 mm 1,8 UV-I 193 W/m² 6,9 °C 13,6 °C 9,7 km/h (2 Bft)
10.05.2019 17:02 13,6 °C 63 % 1011,0 hPa 0,0 mm 8,4 km/h (2 Bft) S 186 ° 0 min 0,000 mm 1,6 UV-I 174 W/m² 6,7 °C 13,6 °C 11,3 km/h (2 Bft)
10.05.2019 17:03 13,4 °C 62 % 1011,0 hPa 0,0 mm 7,5 km/h (2 Bft) S-SW 209 ° 0 min 0,000 mm 1,5 UV-I 153 W/m² 6,3 °C 13,4 °C 9,7 km/h (2 Bft)
10.05.2019 17:04 13,3 °C 65 % 1011,0 hPa 0,0 mm 3,5 km/h (1 Bft) W-NW 286 ° 0 min 0,000 mm 1,4 UV-I 156 W/m² 6,9 °C 13,3 °C 4,8 km/h (1 Bft)
10.05.2019 17:05 13,3 °C 66 % 1011,0 hPa 0,0 mm 5,2 km/h (1 Bft) W-SW 256 ° 0 min 0,000 mm 1,4 UV-I 171 W/m² 7,1 °C 13,3 °C 11,3 km/h (2 Bft)
10.05.2019 17:06 13,3 °C 65 % 1011,0 hPa 0,0 mm 4,2 km/h (1 Bft) W 263 ° 0 min 0,000 mm 1,4 UV-I 176 W/m² 6,9 °C 13,3 °C 6,4 km/h (2 Bft)
10.05.2019 17:07 13,2 °C 66 % 1011,1 hPa 0,0 mm 3,7 km/h (1 Bft) W 278 ° 0 min 0,000 mm 1,3 UV-I 156 W/m² 7,0 °C 13,2 °C 6,4 km/h (2 Bft)
10.05.2019 17:08 13,2 °C 65 % 1011,1 hPa 0,0 mm 3,7 km/h (1 Bft) W-NW 291 ° 0 min 0,000 mm 1,3 UV-I 153 W/m² 6,8 °C 13,2 °C 4,8 km/h (1 Bft)
10.05.2019 17:09 13,2 °C 64 % 1011,0 hPa 0,0 mm 4,4 km/h (1 Bft) W-NW 299 ° 0 min 0,000 mm 1,3 UV-I 160 W/m² 6,5 °C 13,2 °C 6,4 km/h (2 Bft)
10.05.2019 17:10 13,2 °C 66 % 1011,0 hPa 0,0 mm 4,9 km/h (1 Bft) W 280 ° 0 min 0,000 mm 1,4 UV-I 186 W/m² 7,0 °C 13,2 °C 6,4 km/h (2 Bft)
10.05.2019 17:11 13,3 °C 65 % 1011,0 hPa 0,0 mm 3,6 km/h (1 Bft) W-NW 296 ° 0 min 0,000 mm 1,5 UV-I 206 W/m² 6,9 °C 13,3 °C 6,4 km/h (2 Bft)
10.05.2019 17:12 13,3 °C 65 % 1011,1 hPa 0,0 mm 4,2 km/h (1 Bft) N-NW 341 ° 0 min 0,000 mm 1,7 UV-I 221 W/m² 6,9 °C 13,3 °C 8,0 km/h (2 Bft)
10.05.2019 17:13 13,3 °C 65 % 1011,0 hPa 0,0 mm 7,1 km/h (2 Bft) W-NW 288 ° 0 min 0,000 mm 1,7 UV-I 197 W/m² 6,9 °C 13,3 °C 12,9 km/h (3 Bft)
10.05.2019 17:14 13,4 °C 65 % 1011,0 hPa 0,0 mm 8,0 km/h (2 Bft) NW 325 ° 0 min 0,000 mm 2,1 UV-I 207 W/m² 7,0 °C 13,4 °C 12,9 km/h (3 Bft)
10.05.2019 17:15 13,4 °C 65 % 1011,0 hPa 0,0 mm 9,1 km/h (2 Bft) W-NW 285 ° 0 min 0,000 mm 1,9 UV-I 202 W/m² 7,0 °C 13,4 °C 14,5 km/h (3 Bft)
10.05.2019 17:16 13,6 °C 65 % 1011,0 hPa 0,0 mm 10,0 km/h (2 Bft) NW 318 ° 0 min 0,000 mm 1,8 UV-I 244 W/m² 7,1 °C 13,6 °C 16,1 km/h (3 Bft)
10.05.2019 17:17 13,7 °C 67 % 1011,0 hPa 0,0 mm 11,0 km/h (2 Bft) W-NW 288 ° 0 min 0,000 mm 1,8 UV-I 295 W/m² 7,7 °C 13,7 °C 14,5 km/h (3 Bft)
10.05.2019 17:18 13,8 °C 64 % 1011,0 hPa 0,0 mm 6,2 km/h (2 Bft) NW 311 ° 0 min 0,000 mm 1,6 UV-I 295 W/m² 7,1 °C 13,8 °C 11,3 km/h (2 Bft)
10.05.2019 17:19 13,8 °C 66 % 1011,0 hPa 0,0 mm 3,8 km/h (1 Bft) N-NW 346 ° 0 min 0,000 mm 1,6 UV-I 156 W/m² 7,6 °C 13,8 °C 6,4 km/h (2 Bft)
10.05.2019 17:20 13,8 °C 66 % 1011,1 hPa 0,0 mm 2,8 km/h (1 Bft) NW 311 ° 0 min 0,000 mm 1,5 UV-I 137 W/m² 7,6 °C 13,8 °C 6,4 km/h (2 Bft)
10.05.2019 17:21 13,8 °C 67 % 1011,1 hPa 0,0 mm 5,1 km/h (1 Bft) W-NW 297 ° 0 min 0,000 mm 1,4 UV-I 120 W/m² 7,8 °C 13,8 °C 9,7 km/h (2 Bft)
10.05.2019 17:22 13,8 °C 64 % 1011,1 hPa 0,0 mm 4,1 km/h (1 Bft) N-NW 329 ° 0 min 0,000 mm 1,4 UV-I 118 W/m² 7,1 °C 13,8 °C 6,4 km/h (2 Bft)
10.05.2019 17:23 13,7 °C 65 % 1011,1 hPa 0,0 mm 4,3 km/h (1 Bft) W 259 ° 0 min 0,000 mm 1,4 UV-I 128 W/m² 7,2 °C 13,7 °C 9,7 km/h (2 Bft)
10.05.2019 17:24 13,6 °C 63 % 1011,1 hPa 0,0 mm 6,4 km/h (2 Bft) SW 220 ° 0 min 0,000 mm 1,4 UV-I 148 W/m² 6,7 °C 13,6 °C 9,7 km/h (2 Bft)
10.05.2019 17:25 13,5 °C 66 % 1011,1 hPa 0,0 mm 4,6 km/h (1 Bft) W 271 ° 0 min 0,000 mm 1,4 UV-I 146 W/m² 7,3 °C 13,5 °C 6,4 km/h (2 Bft)
10.05.2019 17:26 13,4 °C 64 % 1011,1 hPa 0,0 mm 0,9 km/h (0 Bft) W 270 ° 0 min 0,000 mm 1,4 UV-I 146 W/m² 6,7 °C 13,4 °C 1,6 km/h (1 Bft)
10.05.2019 17:27 13,4 °C 63 % 1011,1 hPa 0,0 mm 2,8 km/h (1 Bft) SW 232 ° 0 min 0,000 mm 1,4 UV-I 144 W/m² 6,5 °C 13,4 °C 4,8 km/h (1 Bft)
10.05.2019 17:28 13,4 °C 66 % 1011,1 hPa 0,0 mm 8,8 km/h (2 Bft) W-SW 246 ° 0 min 0,000 mm 1,3 UV-I 125 W/m² 7,2 °C 13,4 °C 14,5 km/h (3 Bft)
10.05.2019 17:29 13,3 °C 65 % 1011,1 hPa 0,0 mm 3,5 km/h (1 Bft) W-SW 257 ° 0 min 0,000 mm 1,3 UV-I 109 W/m² 6,9 °C 13,3 °C 9,7 km/h (2 Bft)
10.05.2019 17:30 13,3 °C 65 % 1011,1 hPa 0,0 mm 2,2 km/h (1 Bft) S-SW 208 ° 0 min 0,000 mm 1,2 UV-I 107 W/m² 6,9 °C 13,3 °C 6,4 km/h (2 Bft)
10.05.2019 17:31 13,2 °C 65 % 1011,1 hPa 0,0 mm 0,6 km/h (0 Bft) W 263 ° 0 min 0,000 mm 1,2 UV-I 128 W/m² 6,8 °C 13,2 °C 3,2 km/h (1 Bft)
10.05.2019 17:32 13,2 °C 65 % 1011,1 hPa 0,0 mm 5,5 km/h (1 Bft) W-SW 239 ° 0 min 0,000 mm 1,4 UV-I 128 W/m² 6,8 °C 13,2 °C 9,7 km/h (2 Bft)
10.05.2019 17:33 13,2 °C 65 % 1011,1 hPa 0,0 mm 4,1 km/h (1 Bft) W 275 ° 0 min 0,000 mm 1,3 UV-I 227 W/m² 6,8 °C 13,2 °C 6,4 km/h (2 Bft)
10.05.2019 17:34 13,3 °C 67 % 1011,1 hPa 0,0 mm 5,0 km/h (1 Bft) W 259 ° 0 min 0,000 mm 1,3 UV-I 227 W/m² 7,3 °C 13,3 °C 8,0 km/h (2 Bft)
10.05.2019 17:35 13,4 °C 66 % 1011,1 hPa 0,0 mm 5,3 km/h (1 Bft) W-SW 258 ° 0 min 0,000 mm 1,3 UV-I 165 W/m² 7,2 °C 13,4 °C 6,4 km/h (2 Bft)
10.05.2019 17:36 13,4 °C 65 % 1011,1 hPa 0,0 mm 6,1 km/h (2 Bft) S-SW 211 ° 0 min 0,000 mm 1,3 UV-I 144 W/m² 7,0 °C 13,4 °C 9,7 km/h (2 Bft)
10.05.2019 17:37 13,4 °C 66 % 1011,1 hPa 0,0 mm 4,6 km/h (1 Bft) W 264 ° 0 min 0,000 mm 1,3 UV-I 174 W/m² 7,2 °C 13,4 °C 6,4 km/h (2 Bft)
10.05.2019 17:38 13,5 °C 67 % 1011,0 hPa 0,0 mm 3,2 km/h (1 Bft) S-SW 195 ° 0 min 0,000 mm 1,3 UV-I 163 W/m² 7,5 °C 13,5 °C 8,0 km/h (2 Bft)
10.05.2019 17:39 13,5 °C 66 % 1011,1 hPa 0,0 mm 11,3 km/h (2 Bft) W 269 ° 0 min 0,000 mm 1,3 UV-I 185 W/m² 7,3 °C 13,5 °C 16,1 km/h (3 Bft)
10.05.2019 17:40 13,5 °C 66 % 1011,0 hPa 0,0 mm 5,9 km/h (2 Bft) W-SW 237 ° 0 min 0,000 mm 1,3 UV-I 185 W/m² 7,3 °C 13,5 °C 6,4 km/h (2 Bft)
10.05.2019 17:41 13,5 °C 63 % 1011,1 hPa 0,0 mm 6,2 km/h (2 Bft) W 271 ° 0 min 0,000 mm 1,4 UV-I 202 W/m² 6,6 °C 13,5 °C 11,3 km/h (2 Bft)
10.05.2019 17:42 13,5 °C 64 % 1011,1 hPa 0,0 mm 4,0 km/h (1 Bft) W 269 ° 0 min 0,000 mm 1,4 UV-I 185 W/m² 6,8 °C 13,5 °C 6,4 km/h (2 Bft)
10.05.2019 17:43 13,6 °C 65 % 1011,1 hPa 0,0 mm 3,2 km/h (1 Bft) W 259 ° 0 min 0,000 mm 1,3 UV-I 171 W/m² 7,1 °C 13,6 °C 6,4 km/h (2 Bft)
10.05.2019 17:44 13,6 °C 65 % 1011,0 hPa 0,0 mm 5,2 km/h (1 Bft) S 178 ° 0 min 0,000 mm 1,3 UV-I 158 W/m² 7,1 °C 13,6 °C 11,3 km/h (2 Bft)
10.05.2019 17:45 13,6 °C 65 % 1011,1 hPa 0,0 mm 9,6 km/h (2 Bft) W-NW 283 ° 0 min 0,000 mm 1,3 UV-I 163 W/m² 7,1 °C 13,6 °C 14,5 km/h (3 Bft)
10.05.2019 17:46 13,6 °C 66 % 1011,0 hPa 0,0 mm 4,0 km/h (1 Bft) NW 317 ° 0 min 0,000 mm 1,3 UV-I 151 W/m² 7,4 °C 13,6 °C 6,4 km/h (2 Bft)
10.05.2019 17:47 13,7 °C 65 % 1010,9 hPa 0,0 mm 6,0 km/h (2 Bft) O-NO 71 ° 0 min 0,000 mm 1,3 UV-I 156 W/m² 7,2 °C 13,7 °C 12,9 km/h (3 Bft)
10.05.2019 17:48 13,7 °C 65 % 1010,9 hPa 0,0 mm 9,1 km/h (2 Bft) S-SW 209 ° 0 min 0,000 mm 1,4 UV-I 174 W/m² 7,2 °C 13,7 °C 14,5 km/h (3 Bft)
10.05.2019 17:49 13,7 °C 66 % 1011,0 hPa 0,0 mm 3,7 km/h (1 Bft) W-SW 250 ° 0 min 0,000 mm 1,2 UV-I 104 W/m² 7,5 °C 13,7 °C 6,4 km/h (2 Bft)
10.05.2019 17:50 13,8 °C 65 % 1011,0 hPa 0,0 mm 6,4 km/h (2 Bft) W-SW 257 ° 0 min 0,000 mm 1,2 UV-I 98 W/m² 7,3 °C 13,8 °C 11,3 km/h (2 Bft)
10.05.2019 17:51 13,7 °C 64 % 1011,0 hPa 0,0 mm 7,8 km/h (2 Bft) W 263 ° 0 min 0,000 mm 1,3 UV-I 132 W/m² 7,0 °C 13,7 °C 12,9 km/h (3 Bft)
10.05.2019 17:52 13,7 °C 66 % 1011,0 hPa 0,0 mm 6,6 km/h (2 Bft) W-NW 294 ° 0 min 0,000 mm 1,3 UV-I 146 W/m² 7,5 °C 13,7 °C 9,7 km/h (2 Bft)
10.05.2019 17:53 13,7 °C 66 % 1011,0 hPa 0,0 mm 5,6 km/h (1 Bft) W-NW 294 ° 0 min 0,000 mm 1,4 UV-I 236 W/m² 7,5 °C 13,7 °C 12,9 km/h (3 Bft)
10.05.2019 17:54 13,8 °C 66 % 1011,0 hPa 0,0 mm 4,2 km/h (1 Bft) W-SW 257 ° 0 min 0,000 mm 1,4 UV-I 188 W/m² 7,6 °C 13,8 °C 6,4 km/h (2 Bft)
10.05.2019 17:55 13,8 °C 65 % 1010,9 hPa 0,0 mm 5,9 km/h (2 Bft) W-SW 252 ° 0 min 0,000 mm 1,5 UV-I 216 W/m² 7,3 °C 13,8 °C 8,0 km/h (2 Bft)
10.05.2019 17:56 13,9 °C 67 % 1010,9 hPa 0,0 mm 9,0 km/h (2 Bft) W-SW 254 ° 0 min 0,000 mm 1,7 UV-I 225 W/m² 7,9 °C 13,9 °C 14,5 km/h (3 Bft)
10.05.2019 17:57 14,0 °C 65 % 1010,9 hPa 0,0 mm 4,4 km/h (1 Bft) W-SW 258 ° 0 min 0,000 mm 1,5 UV-I 223 W/m² 7,5 °C 14,0 °C 9,7 km/h (2 Bft)
10.05.2019 17:58 14,1 °C 63 % 1010,9 hPa 0,0 mm 8,0 km/h (2 Bft) W 269 ° 0 min 0,000 mm 1,5 UV-I 241 W/m² 7,2 °C 14,1 °C 12,9 km/h (3 Bft)
10.05.2019 17:59 14,1 °C 62 % 1010,9 hPa 0,0 mm 6,5 km/h (2 Bft) W-SW 247 ° 0 min 0,000 mm 1,6 UV-I 302 W/m² 6,9 °C 14,1 °C 14,5 km/h (3 Bft)
10.05.2019 18:00 14,1 °C 63 % 1011,0 hPa 0,0 mm 13,9 km/h (3 Bft) W 269 ° 0 min 0,000 mm 1,4 UV-I 221 W/m² 7,2 °C 14,1 °C 19,3 km/h (3 Bft)
10.05.2019 18:01 14,0 °C 62 % 1011,0 hPa 0,0 mm 6,3 km/h (2 Bft) W 268 ° 0 min 0,127 mm 1,1 UV-I 221 W/m² 6,8 °C 14,0 °C 11,3 km/h (2 Bft)
10.05.2019 18:02 14,0 °C 63 % 1011,0 hPa 0,0 mm 11,5 km/h (2 Bft) N 360 ° 0 min 0,000 mm 1,2 UV-I 116 W/m² 7,1 °C 14,0 °C 16,1 km/h (3 Bft)
10.05.2019 18:03 13,9 °C 62 % 1011,0 hPa 0,0 mm 4,9 km/h (1 Bft) NW 304 ° 0 min 0,000 mm 1,3 UV-I 195 W/m² 6,7 °C 13,9 °C 6,4 km/h (2 Bft)
10.05.2019 18:04 13,9 °C 64 % 1011,0 hPa 0,0 mm 7,2 km/h (2 Bft) W 277 ° 0 min 0,000 mm 1,3 UV-I 227 W/m² 7,2 °C 13,9 °C 11,3 km/h (2 Bft)
10.05.2019 18:05 13,9 °C 63 % 1010,9 hPa 0,0 mm 10,9 km/h (2 Bft) W 281 ° 0 min 0,000 mm 1,1 UV-I 134 W/m² 7,0 °C 13,9 °C 14,5 km/h (3 Bft)
10.05.2019 18:06 13,9 °C 64 % 1010,9 hPa 0,0 mm 8,6 km/h (2 Bft) W 274 ° 0 min 0,000 mm 1,1 UV-I 134 W/m² 7,2 °C 13,9 °C 12,9 km/h (3 Bft)
10.05.2019 18:07 13,8 °C 63 % 1010,9 hPa 0,0 mm 1,2 km/h (1 Bft) W 271 ° 0 min 0,000 mm 1,1 UV-I 139 W/m² 6,9 °C 13,8 °C 3,2 km/h (1 Bft)
10.05.2019 18:08 13,8 °C 63 % 1010,9 hPa 0,0 mm 2,7 km/h (1 Bft) W-NW 296 ° 0 min 0,000 mm 1,2 UV-I 181 W/m² 6,9 °C 13,8 °C 3,2 km/h (1 Bft)
10.05.2019 18:09 13,8 °C 63 % 1010,9 hPa 0,0 mm 4,3 km/h (1 Bft) W 261 ° 0 min 0,000 mm 1,1 UV-I 176 W/m² 6,9 °C 13,8 °C 9,7 km/h (2 Bft)
10.05.2019 18:10 13,8 °C 64 % 1010,9 hPa 0,0 mm 3,4 km/h (1 Bft) W-NW 288 ° 0 min 0,000 mm 1,1 UV-I 142 W/m² 7,1 °C 13,8 °C 6,4 km/h (2 Bft)
10.05.2019 18:11 13,8 °C 64 % 1010,9 hPa 0,0 mm 4,4 km/h (1 Bft) W-NW 290 ° 0 min 0,000 mm 1,1 UV-I 118 W/m² 7,1 °C 13,8 °C 4,8 km/h (1 Bft)
10.05.2019 18:12 13,8 °C 64 % 1010,9 hPa 0,0 mm 4,4 km/h (1 Bft) W 279 ° 0 min 0,000 mm 1,0 UV-I 111 W/m² 7,1 °C 13,8 °C 6,4 km/h (2 Bft)
10.05.2019 18:13 13,7 °C 64 % 1010,9 hPa 0,0 mm 7,4 km/h (2 Bft) W 261 ° 0 min 0,000 mm 1,0 UV-I 104 W/m² 7,0 °C 13,7 °C 9,7 km/h (2 Bft)
10.05.2019 18:14 13,7 °C 64 % 1011,0 hPa 0,0 mm 7,9 km/h (2 Bft) W-SW 254 ° 0 min 0,000 mm 1,0 UV-I 95 W/m² 7,0 °C 13,7 °C 11,3 km/h (2 Bft)
10.05.2019 18:15 13,7 °C 64 % 1011,0 hPa 0,0 mm 9,7 km/h (2 Bft) W-SW 238 ° 0 min 0,000 mm 1,0 UV-I 83 W/m² 7,0 °C 13,7 °C 14,5 km/h (3 Bft)
10.05.2019 18:16 13,6 °C 65 % 1010,9 hPa 0,0 mm 9,5 km/h (2 Bft) W 273 ° 0 min 0,000 mm 1,0 UV-I 76 W/m² 7,1 °C 13,6 °C 12,9 km/h (3 Bft)
10.05.2019 18:17 13,6 °C 65 % 1011,0 hPa 0,0 mm 6,0 km/h (2 Bft) S-SW 212 ° 0 min 0,000 mm 0,9 UV-I 81 W/m² 7,1 °C 13,6 °C 11,3 km/h (2 Bft)
10.05.2019 18:18 13,4 °C 65 % 1011,0 hPa 0,0 mm 3,8 km/h (1 Bft) S-SW 200 ° 0 min 0,000 mm 0,9 UV-I 84 W/m² 7,0 °C 13,4 °C 8,0 km/h (2 Bft)
10.05.2019 18:19 13,4 °C 65 % 1011,0 hPa 0,0 mm 3,2 km/h (1 Bft) S-SW 197 ° 0 min 0,000 mm 0,9 UV-I 86 W/m² 7,0 °C 13,4 °C 6,4 km/h (2 Bft)
10.05.2019 18:20 13,3 °C 65 % 1011,1 hPa 0,0 mm 2,4 km/h (1 Bft) W-NW 282 ° 0 min 0,000 mm 0,9 UV-I 104 W/m² 6,9 °C 13,3 °C 6,4 km/h (2 Bft)
10.05.2019 18:21 13,2 °C 67 % 1011,1 hPa 0,0 mm 4,5 km/h (1 Bft) W 259 ° 0 min 0,000 mm 0,9 UV-I 114 W/m² 7,2 °C 13,2 °C 6,4 km/h (2 Bft)
10.05.2019 18:22 13,2 °C 67 % 1011,1 hPa 0,0 mm 2,9 km/h (1 Bft) W 279 ° 0 min 0,000 mm 0,9 UV-I 127 W/m² 7,2 °C 13,2 °C 4,8 km/h (1 Bft)
10.05.2019 18:23 13,3 °C 69 % 1011,0 hPa 0,0 mm 3,7 km/h (1 Bft) W-SW 251 ° 0 min 0,000 mm 0,9 UV-I 141 W/m² 7,7 °C 13,3 °C 6,4 km/h (2 Bft)
10.05.2019 18:24 13,4 °C 68 % 1011,0 hPa 0,0 mm 3,5 km/h (1 Bft) W 264 ° 0 min 0,000 mm 0,9 UV-I 172 W/m² 7,6 °C 13,4 °C 6,4 km/h (2 Bft)
10.05.2019 18:25 13,5 °C 68 % 1011,0 hPa 0,0 mm 4,7 km/h (1 Bft) W 277 ° 0 min 0,000 mm 0,9 UV-I 213 W/m² 7,7 °C 13,5 °C 6,4 km/h (2 Bft)
10.05.2019 18:26 13,6 °C 66 % 1011,1 hPa 0,0 mm 6,8 km/h (2 Bft) W-NW 300 ° 0 min 0,000 mm 0,9 UV-I 218 W/m² 7,4 °C 13,6 °C 11,3 km/h (2 Bft)
10.05.2019 18:27 13,7 °C 63 % 1011,1 hPa 0,0 mm 7,4 km/h (2 Bft) N-NW 327 ° 0 min 0,000 mm 0,9 UV-I 192 W/m² 6,8 °C 13,7 °C 11,3 km/h (2 Bft)
10.05.2019 18:28 13,8 °C 64 % 1011,1 hPa 0,0 mm 7,8 km/h (2 Bft) N-NW 345 ° 0 min 0,000 mm 1,0 UV-I 209 W/m² 7,1 °C 13,8 °C 12,9 km/h (3 Bft)
10.05.2019 18:29 13,9 °C 64 % 1011,0 hPa 0,0 mm 10,5 km/h (2 Bft) NW 309 ° 0 min 0,000 mm 1,0 UV-I 127 W/m² 7,2 °C 13,9 °C 17,7 km/h (3 Bft)
10.05.2019 18:30 13,9 °C 62 % 1011,0 hPa 0,0 mm 6,7 km/h (2 Bft) W-NW 300 ° 0 min 0,000 mm 0,9 UV-I 113 W/m² 6,7 °C 13,9 °C 11,3 km/h (2 Bft)
10.05.2019 18:31 13,8 °C 63 % 1011,1 hPa 0,0 mm 13,7 km/h (3 Bft) N-NW 348 ° 0 min 0,000 mm 0,9 UV-I 105 W/m² 6,9 °C 13,8 °C 20,9 km/h (4 Bft)
10.05.2019 18:32 13,8 °C 63 % 1011,0 hPa 0,0 mm 15,2 km/h (3 Bft) W-NW 296 ° 0 min 0,000 mm 0,9 UV-I 98 W/m² 6,9 °C 13,8 °C 22,5 km/h (4 Bft)
10.05.2019 18:33 13,8 °C 65 % 1011,0 hPa 0,0 mm 10,8 km/h (2 Bft) W 259 ° 0 min 0,000 mm 0,9 UV-I 93 W/m² 7,3 °C 13,8 °C 16,1 km/h (3 Bft)
10.05.2019 18:34 13,7 °C 64 % 1011,0 hPa 0,0 mm 10,5 km/h (2 Bft) W-NW 297 ° 0 min 0,000 mm 0,9 UV-I 107 W/m² 7,0 °C 13,7 °C 16,1 km/h (3 Bft)
10.05.2019 18:35 13,6 °C 64 % 1011,0 hPa 0,0 mm 9,1 km/h (2 Bft) W-NW 284 ° 0 min 0,000 mm 0,9 UV-I 107 W/m² 6,9 °C 13,6 °C 12,9 km/h (3 Bft)
10.05.2019 18:36 13,6 °C 63 % 1011,0 hPa 0,0 mm 11,4 km/h (2 Bft) W 269 ° 0 min 0,000 mm 0,9 UV-I 93 W/m² 6,7 °C 13,6 °C 19,3 km/h (3 Bft)
10.05.2019 18:37 13,4 °C 63 % 1011,0 hPa 0,0 mm 9,0 km/h (2 Bft) W 279 ° 0 min 0,000 mm 0,8 UV-I 79 W/m² 6,5 °C 13,4 °C 16,1 km/h (3 Bft)
10.05.2019 18:38 13,4 °C 64 % 1011,1 hPa 0,0 mm 8,5 km/h (2 Bft) W-NW 302 ° 0 min 0,000 mm 0,8 UV-I 70 W/m² 6,7 °C 13,4 °C 14,5 km/h (3 Bft)
10.05.2019 18:39 13,4 °C 63 % 1011,1 hPa 0,0 mm 14,1 km/h (3 Bft) W-NW 292 ° 0 min 0,000 mm 0,8 UV-I 65 W/m² 6,5 °C 13,4 °C 22,5 km/h (4 Bft)
10.05.2019 18:40 13,3 °C 63 % 1011,1 hPa 0,0 mm 7,3 km/h (2 Bft) W-NW 299 ° 0 min 0,000 mm 0,8 UV-I 63 W/m² 6,4 °C 13,3 °C 11,3 km/h (2 Bft)
10.05.2019 18:41 13,3 °C 63 % 1011,1 hPa 0,0 mm 7,2 km/h (2 Bft) W 275 ° 0 min 0,000 mm 0,8 UV-I 148 W/m² 6,4 °C 13,3 °C 12,9 km/h (3 Bft)
10.05.2019 18:42 13,2 °C 64 % 1011,1 hPa 0,0 mm 11,9 km/h (2 Bft) NW 306 ° 0 min 0,000 mm 0,9 UV-I 163 W/m² 6,5 °C 13,2 °C 17,7 km/h (3 Bft)
10.05.2019 18:43 13,2 °C 64 % 1011,1 hPa 0,0 mm 8,3 km/h (2 Bft) W-NW 290 ° 0 min 0,000 mm 0,9 UV-I 176 W/m² 6,5 °C 13,2 °C 12,9 km/h (3 Bft)
10.05.2019 18:44 13,2 °C 64 % 1011,1 hPa 0,0 mm 8,4 km/h (2 Bft) W 275 ° 0 min 0,000 mm 0,8 UV-I 181 W/m² 6,5 °C 13,2 °C 12,9 km/h (3 Bft)
10.05.2019 18:45 13,3 °C 63 % 1011,1 hPa 0,0 mm 12,1 km/h (2 Bft) W-NW 290 ° 0 min 0,000 mm 0,8 UV-I 142 W/m² 6,4 °C 13,3 °C 16,1 km/h (3 Bft)
10.05.2019 18:46 13,3 °C 63 % 1011,1 hPa 0,0 mm 10,8 km/h (2 Bft) W 273 ° 0 min 0,000 mm 0,9 UV-I 146 W/m² 6,4 °C 13,3 °C 14,5 km/h (3 Bft)
10.05.2019 18:47 13,3 °C 64 % 1011,1 hPa 0,0 mm 12,9 km/h (3 Bft) W 269 ° 0 min 0,000 mm 0,8 UV-I 172 W/m² 6,6 °C 13,3 °C 19,3 km/h (3 Bft)
10.05.2019 18:48 13,3 °C 63 % 1011,1 hPa 0,0 mm 6,8 km/h (2 Bft) N-NW 331 ° 0 min 0,000 mm 0,8 UV-I 104 W/m² 6,4 °C 13,3 °C 11,3 km/h (2 Bft)
10.05.2019 18:49 13,4 °C 63 % 1011,1 hPa 0,0 mm 7,9 km/h (2 Bft) W-NW 296 ° 0 min 0,000 mm 0,8 UV-I 104 W/m² 6,5 °C 13,4 °C 12,9 km/h (3 Bft)
10.05.2019 18:50 13,4 °C 64 % 1011,1 hPa 0,0 mm 6,6 km/h (2 Bft) W-NW 292 ° 0 min 0,000 mm 0,7 UV-I 104 W/m² 6,7 °C 13,4 °C 12,9 km/h (3 Bft)
10.05.2019 18:51 13,3 °C 65 % 1011,1 hPa 0,0 mm 7,8 km/h (2 Bft) NW 306 ° 0 min 0,000 mm 0,8 UV-I 200 W/m² 6,9 °C 13,3 °C 11,3 km/h (2 Bft)
10.05.2019 18:52 13,4 °C 64 % 1011,1 hPa 0,0 mm 8,7 km/h (2 Bft) W-NW 296 ° 0 min 0,000 mm 0,8 UV-I 216 W/m² 6,7 °C 13,4 °C 16,1 km/h (3 Bft)
10.05.2019 18:53 13,4 °C 64 % 1011,1 hPa 0,0 mm 7,8 km/h (2 Bft) W 267 ° 0 min 0,000 mm 0,7 UV-I 123 W/m² 6,7 °C 13,4 °C 12,9 km/h (3 Bft)
10.05.2019 18:54 13,3 °C 64 % 1011,2 hPa 0,0 mm 5,8 km/h (2 Bft) W-NW 303 ° 0 min 0,000 mm 0,7 UV-I 86 W/m² 6,6 °C 13,3 °C 9,7 km/h (2 Bft)
10.05.2019 18:55 13,3 °C 64 % 1011,1 hPa 0,0 mm 7,2 km/h (2 Bft) W-NW 299 ° 0 min 0,000 mm 0,7 UV-I 79 W/m² 6,6 °C 13,3 °C 12,9 km/h (3 Bft)
10.05.2019 18:56 13,3 °C 64 % 1011,2 hPa 0,0 mm 8,4 km/h (2 Bft) W 261 ° 0 min 0,000 mm 0,7 UV-I 77 W/m² 6,6 °C 13,3 °C 14,5 km/h (3 Bft)
10.05.2019 18:57 13,2 °C 64 % 1011,2 hPa 0,0 mm 9,8 km/h (2 Bft) W-SW 244 ° 0 min 0,000 mm 0,7 UV-I 90 W/m² 6,5 °C 13,2 °C 14,5 km/h (3 Bft)
10.05.2019 18:58 13,2 °C 64 % 1011,2 hPa 0,0 mm 6,6 km/h (2 Bft) W 274 ° 0 min 0,000 mm 0,7 UV-I 225 W/m² 6,5 °C 13,2 °C 9,7 km/h (2 Bft)
10.05.2019 18:59 13,2 °C 65 % 1011,1 hPa 0,0 mm 6,1 km/h (2 Bft) W-NW 293 ° 0 min 0,000 mm 0,7 UV-I 202 W/m² 6,8 °C 13,2 °C 9,7 km/h (2 Bft)
10.05.2019 19:00 13,2 °C 65 % 1011,2 hPa 0,0 mm 5,5 km/h (1 Bft) NW 320 ° 0 min 0,000 mm 0,7 UV-I 158 W/m² 6,8 °C 13,2 °C 9,7 km/h (2 Bft)
10.05.2019 19:01 13,2 °C 65 % 1011,2 hPa 0,0 mm 8,6 km/h (2 Bft) NW 304 ° 0 min 0,101 mm 0,7 UV-I 98 W/m² 6,8 °C 13,2 °C 12,9 km/h (3 Bft)
10.05.2019 19:02 13,2 °C 65 % 1011,2 hPa 0,0 mm 8,6 km/h (2 Bft) W-NW 290 ° 0 min 0,000 mm 0,6 UV-I 90 W/m² 6,8 °C 13,2 °C 12,9 km/h (3 Bft)
10.05.2019 19:03 13,1 °C 65 % 1011,2 hPa 0,0 mm 1,9 km/h (1 Bft) W-NW 289 ° 0 min 0,000 mm 0,6 UV-I 76 W/m² 6,7 °C 13,1 °C 6,4 km/h (2 Bft)
10.05.2019 19:04 13,1 °C 66 % 1011,2 hPa 0,0 mm 2,1 km/h (1 Bft) NW 306 ° 0 min 0,000 mm 0,6 UV-I 62 W/m² 6,9 °C 13,1 °C 8,0 km/h (2 Bft)
10.05.2019 19:05 13,1 °C 65 % 1011,2 hPa 0,0 mm 5,0 km/h (1 Bft) W-NW 285 ° 0 min 0,000 mm 0,6 UV-I 60 W/m² 6,7 °C 13,1 °C 11,3 km/h (2 Bft)
10.05.2019 19:06 13,0 °C 66 % 1011,2 hPa 0,0 mm 9,3 km/h (2 Bft) NW 316 ° 0 min 0,000 mm 0,6 UV-I 58 W/m² 6,8 °C 13,0 °C 12,9 km/h (3 Bft)
10.05.2019 19:07 12,9 °C 66 % 1011,2 hPa 0,0 mm 5,8 km/h (2 Bft) W 264 ° 0 min 0,000 mm 0,6 UV-I 60 W/m² 6,7 °C 12,9 °C 11,3 km/h (2 Bft)
10.05.2019 19:08 12,9 °C 66 % 1011,3 hPa 0,0 mm 6,6 km/h (2 Bft) W-NW 285 ° 0 min 0,000 mm 0,6 UV-I 62 W/m² 6,7 °C 12,9 °C 14,5 km/h (3 Bft)
10.05.2019 19:09 12,8 °C 66 % 1011,2 hPa 0,0 mm 4,0 km/h (1 Bft) W-NW 290 ° 0 min 0,000 mm 0,5 UV-I 62 W/m² 6,6 °C 12,8 °C 6,4 km/h (2 Bft)
10.05.2019 19:10 12,8 °C 66 % 1011,3 hPa 0,0 mm 4,6 km/h (1 Bft) W-NW 283 ° 0 min 0,000 mm 0,5 UV-I 69 W/m² 6,6 °C 12,8 °C 6,4 km/h (2 Bft)
10.05.2019 19:11 12,7 °C 67 % 1011,3 hPa 0,0 mm 4,2 km/h (1 Bft) W-NW 290 ° 0 min 0,000 mm 0,5 UV-I 72 W/m² 6,7 °C 12,7 °C 4,8 km/h (1 Bft)
10.05.2019 19:12 12,7 °C 67 % 1011,3 hPa 0,0 mm 2,5 km/h (1 Bft) W-NW 288 ° 0 min 0,000 mm 0,5 UV-I 74 W/m² 6,7 °C 12,7 °C 4,8 km/h (1 Bft)
10.05.2019 19:13 12,7 °C 66 % 1011,3 hPa 0,0 mm 5,2 km/h (1 Bft) W 264 ° 0 min 0,000 mm 0,5 UV-I 76 W/m² 6,5 °C 12,7 °C 8,0 km/h (2 Bft)
10.05.2019 19:14 12,6 °C 68 % 1011,3 hPa 0,0 mm 5,5 km/h (1 Bft) W 265 ° 0 min 0,000 mm 0,5 UV-I 74 W/m² 6,9 °C 12,6 °C 11,3 km/h (2 Bft)
10.05.2019 19:15 12,6 °C 66 % 1011,3 hPa 0,0 mm 1,5 km/h (1 Bft) W 260 ° 0 min 0,000 mm 0,5 UV-I 69 W/m² 6,4 °C 12,6 °C 3,2 km/h (1 Bft)
10.05.2019 19:16 12,6 °C 67 % 1011,3 hPa 0,0 mm 4,2 km/h (1 Bft) W-NW 288 ° 0 min 0,000 mm 0,0 UV-I 63 W/m² 6,6 °C 12,6 °C 6,4 km/h (2 Bft)
10.05.2019 19:17 12,6 °C 67 % 1011,3 hPa 0,0 mm 6,6 km/h (2 Bft) W 259 ° 0 min 0,000 mm 0,0 UV-I 65 W/m² 6,6 °C 12,6 °C 11,3 km/h (2 Bft)
10.05.2019 19:18 12,6 °C 68 % 1011,3 hPa 0,0 mm 5,7 km/h (1 Bft) W-NW 291 ° 0 min 0,000 mm 0,0 UV-I 69 W/m² 6,9 °C 12,6 °C 6,4 km/h (2 Bft)
10.05.2019 19:19 12,6 °C 68 % 1011,3 hPa 0,0 mm 5,5 km/h (1 Bft) W 273 ° 0 min 0,000 mm 0,0 UV-I 70 W/m² 6,9 °C 12,6 °C 6,4 km/h (2 Bft)
10.05.2019 19:20 12,6 °C 68 % 1011,3 hPa 0,0 mm 3,3 km/h (1 Bft) W 269 ° 0 min 0,000 mm 0,0 UV-I 72 W/m² 6,9 °C 12,6 °C 4,8 km/h (1 Bft)
10.05.2019 19:21 12,6 °C 67 % 1011,3 hPa 0,0 mm 3,8 km/h (1 Bft) W-NW 285 ° 0 min 0,000 mm 0,0 UV-I 76 W/m² 6,6 °C 12,6 °C 6,4 km/h (2 Bft)
10.05.2019 19:22 12,6 °C 67 % 1011,3 hPa 0,0 mm 4,6 km/h (1 Bft) W-NW 301 ° 0 min 0,000 mm 0,0 UV-I 88 W/m² 6,6 °C 12,6 °C 6,4 km/h (2 Bft)
10.05.2019 19:23 12,6 °C 66 % 1011,3 hPa 0,0 mm 5,7 km/h (1 Bft) W-SW 256 ° 0 min 0,000 mm 0,0 UV-I 88 W/m² 6,4 °C 12,6 °C 9,7 km/h (2 Bft)
10.05.2019 19:24 12,7 °C 66 % 1011,3 hPa 0,0 mm 1,7 km/h (1 Bft) W 266 ° 0 min 0,000 mm 0,0 UV-I 111 W/m² 6,5 °C 12,7 °C 4,8 km/h (1 Bft)
10.05.2019 19:25 12,7 °C 67 % 1011,3 hPa 0,0 mm 0,0 km/h (0 Bft) W 265 ° 0 min 0,000 mm 0,0 UV-I 141 W/m² 6,7 °C 12,7 °C 0,0 km/h (0 Bft)
10.05.2019 19:26 12,7 °C 68 % 1011,3 hPa 0,0 mm 2,4 km/h (1 Bft) W 266 ° 0 min 0,000 mm 0,0 UV-I 151 W/m² 6,9 °C 12,7 °C 3,2 km/h (1 Bft)
10.05.2019 19:27 12,8 °C 67 % 1011,3 hPa 0,0 mm 1,9 km/h (1 Bft) W 266 ° 0 min 0,000 mm 0,0 UV-I 176 W/m² 6,8 °C 12,8 °C 3,2 km/h (1 Bft)
10.05.2019 19:28 12,9 °C 68 % 1011,3 hPa 0,0 mm 0,8 km/h (0 Bft) W 266 ° 0 min 0,000 mm 0,0 UV-I 178 W/m² 7,1 °C 12,9 °C 3,2 km/h (1 Bft)
10.05.2019 19:29 12,9 °C 67 % 1011,2 hPa 0,0 mm 3,9 km/h (1 Bft) W 275 ° 0 min 0,000 mm 0,0 UV-I 178 W/m² 6,9 °C 12,9 °C 9,7 km/h (2 Bft)
10.05.2019 19:30 13,0 °C 67 % 1011,2 hPa 0,0 mm 6,6 km/h (2 Bft) W-NW 296 ° 0 min 0,000 mm 0,0 UV-I 155 W/m² 7,0 °C 13,0 °C 9,7 km/h (2 Bft)
10.05.2019 19:31 13,1 °C 66 % 1011,2 hPa 0,0 mm 8,4 km/h (2 Bft) W-NW 288 ° 0 min 0,000 mm 0,0 UV-I 156 W/m² 6,9 °C 13,1 °C 11,3 km/h (2 Bft)
10.05.2019 19:32 13,1 °C 66 % 1011,2 hPa 0,0 mm 6,1 km/h (2 Bft) W-NW 293 ° 0 min 0,000 mm 0,0 UV-I 167 W/m² 6,9 °C 13,1 °C 9,7 km/h (2 Bft)
10.05.2019 19:33 13,2 °C 66 % 1011,1 hPa 0,0 mm 4,9 km/h (1 Bft) W 273 ° 0 min 0,000 mm 0,0 UV-I 165 W/m² 7,0 °C 13,2 °C 6,4 km/h (2 Bft)
10.05.2019 19:34 13,2 °C 67 % 1011,2 hPa 0,0 mm 3,7 km/h (1 Bft) W 273 ° 0 min 0,000 mm 0,0 UV-I 162 W/m² 7,2 °C 13,2 °C 4,8 km/h (1 Bft)
10.05.2019 19:35 13,2 °C 64 % 1011,1 hPa 0,0 mm 5,0 km/h (1 Bft) W 259 ° 0 min 0,000 mm 0,0 UV-I 148 W/m² 6,5 °C 13,2 °C 9,7 km/h (2 Bft)
10.05.2019 19:36 13,3 °C 65 % 1011,1 hPa 0,0 mm 4,0 km/h (1 Bft) W 272 ° 0 min 0,000 mm 0,0 UV-I 141 W/m² 6,9 °C 13,3 °C 6,4 km/h (2 Bft)
10.05.2019 19:37 13,3 °C 66 % 1011,1 hPa 0,0 mm 5,5 km/h (1 Bft) W-NW 288 ° 0 min 0,000 mm 0,0 UV-I 149 W/m² 7,1 °C 13,3 °C 9,7 km/h (2 Bft)
10.05.2019 19:38 13,3 °C 67 % 1011,0 hPa 0,0 mm 4,9 km/h (1 Bft) W 273 ° 0 min 0,000 mm 0,0 UV-I 153 W/m² 7,3 °C 13,3 °C 6,4 km/h (2 Bft)
10.05.2019 19:39 13,3 °C 65 % 1011,0 hPa 0,0 mm 3,5 km/h (1 Bft) W-NW 288 ° 0 min 0,000 mm 0,0 UV-I 144 W/m² 6,9 °C 13,3 °C 6,4 km/h (2 Bft)
10.05.2019 19:40 13,4 °C 65 % 1011,0 hPa 0,0 mm 7,0 km/h (2 Bft) W-NW 289 ° 0 min 0,000 mm 0,0 UV-I 139 W/m² 7,0 °C 13,4 °C 12,9 km/h (3 Bft)
10.05.2019 19:41 13,4 °C 64 % 1011,0 hPa 0,0 mm 8,0 km/h (2 Bft) W-NW 296 ° 0 min 0,000 mm 0,0 UV-I 135 W/m² 6,7 °C 13,4 °C 12,9 km/h (3 Bft)
10.05.2019 19:42 13,3 °C 64 % 1011,0 hPa 0,0 mm 2,0 km/h (1 Bft) W 277 ° 0 min 0,000 mm 0,0 UV-I 128 W/m² 6,6 °C 13,3 °C 3,2 km/h (1 Bft)
10.05.2019 19:43 13,4 °C 64 % 1011,0 hPa 0,0 mm 5,1 km/h (1 Bft) W-NW 299 ° 0 min 0,000 mm 0,0 UV-I 123 W/m² 6,7 °C 13,4 °C 9,7 km/h (2 Bft)
10.05.2019 19:44 13,4 °C 65 % 1011,0 hPa 0,0 mm 6,2 km/h (2 Bft) W-NW 296 ° 0 min 0,000 mm 0,0 UV-I 118 W/m² 7,0 °C 13,4 °C 8,0 km/h (2 Bft)
10.05.2019 19:45 13,4 °C 66 % 1011,0 hPa 0,0 mm 5,0 km/h (1 Bft) W-NW 293 ° 0 min 0,000 mm 0,0 UV-I 105 W/m² 7,2 °C 13,4 °C 6,4 km/h (2 Bft)
10.05.2019 19:46 13,4 °C 66 % 1011,0 hPa 0,0 mm 2,2 km/h (1 Bft) W-NW 293 ° 0 min 0,000 mm 0,0 UV-I 70 W/m² 7,2 °C 13,4 °C 4,8 km/h (1 Bft)
10.05.2019 19:47 13,3 °C 65 % 1011,0 hPa 0,0 mm 1,7 km/h (1 Bft) W-NW 293 ° 0 min 0,000 mm 0,0 UV-I 54 W/m² 6,9 °C 13,3 °C 3,2 km/h (1 Bft)
10.05.2019 19:48 13,3 °C 65 % 1011,0 hPa 0,0 mm 2,7 km/h (1 Bft) NW 310 ° 0 min 0,000 mm 0,0 UV-I 49 W/m² 6,9 °C 13,3 °C 6,4 km/h (2 Bft)
10.05.2019 19:49 13,3 °C 64 % 1011,0 hPa 0,0 mm 5,9 km/h (2 Bft) W-NW 300 ° 0 min 0,000 mm 0,0 UV-I 44 W/m² 6,6 °C 13,3 °C 9,7 km/h (2 Bft)
10.05.2019 19:50 13,2 °C 64 % 1010,9 hPa 0,0 mm 3,9 km/h (1 Bft) NW 306 ° 0 min 0,000 mm 0,0 UV-I 40 W/m² 6,5 °C 13,2 °C 6,4 km/h (2 Bft)
10.05.2019 19:51 13,2 °C 65 % 1010,9 hPa 0,0 mm 3,9 km/h (1 Bft) W-NW 302 ° 0 min 0,000 mm 0,0 UV-I 33 W/m² 6,8 °C 13,2 °C 4,8 km/h (1 Bft)
10.05.2019 19:52 13,1 °C 66 % 1010,9 hPa 0,0 mm 2,9 km/h (1 Bft) W-NW 300 ° 0 min 0,000 mm 0,0 UV-I 32 W/m² 6,9 °C 13,1 °C 4,8 km/h (1 Bft)
10.05.2019 19:53 12,9 °C 66 % 1010,9 hPa 0,0 mm 4,1 km/h (1 Bft) W-NW 295 ° 0 min 0,000 mm 0,0 UV-I 30 W/m² 6,7 °C 12,9 °C 6,4 km/h (2 Bft)
10.05.2019 19:54 12,9 °C 66 % 1010,9 hPa 0,0 mm 3,4 km/h (1 Bft) W-NW 294 ° 0 min 0,000 mm 0,0 UV-I 28 W/m² 6,7 °C 12,9 °C 4,8 km/h (1 Bft)
10.05.2019 19:55 12,8 °C 65 % 1011,0 hPa 0,0 mm 3,4 km/h (1 Bft) W-NW 295 ° 0 min 0,000 mm 0,0 UV-I 28 W/m² 6,4 °C 12,8 °C 4,8 km/h (1 Bft)
10.05.2019 19:56 12,8 °C 66 % 1011,0 hPa 0,0 mm 1,6 km/h (1 Bft) W-NW 294 ° 0 min 0,000 mm 0,0 UV-I 28 W/m² 6,6 °C 12,8 °C 3,2 km/h (1 Bft)
10.05.2019 19:57 12,6 °C 67 % 1011,0 hPa 0,0 mm 2,3 km/h (1 Bft) W-NW 294 ° 0 min 0,000 mm 0,0 UV-I 26 W/m² 6,6 °C 12,6 °C 4,8 km/h (1 Bft)
10.05.2019 19:58 12,5 °C 67 % 1011,0 hPa 0,0 mm 0,1 km/h (0 Bft) W-NW 294 ° 0 min 0,000 mm 0,0 UV-I 26 W/m² 6,5 °C 12,5 °C 1,6 km/h (1 Bft)
10.05.2019 19:59 12,4 °C 67 % 1011,1 hPa 0,0 mm 0,8 km/h (0 Bft) W-NW 294 ° 0 min 0,000 mm 0,0 UV-I 25 W/m² 6,4 °C 12,4 °C 3,2 km/h (1 Bft)
10.05.2019 20:00 12,3 °C 69 % 1011,1 hPa 0,0 mm 3,4 km/h (1 Bft) W-NW 285 ° 0 min 0,077 mm 0,0 UV-I 26 W/m² 6,8 °C 12,3 °C 6,4 km/h (2 Bft)
10.05.2019 20:01 12,2 °C 69 % 1011,1 hPa 0,0 mm 1,4 km/h (1 Bft) W-NW 284 ° 0 min 0,000 mm 0,0 UV-I 30 W/m² 6,7 °C 12,2 °C 3,2 km/h (1 Bft)
10.05.2019 20:02 12,1 °C 69 % 1011,1 hPa 0,0 mm 2,9 km/h (1 Bft) W-NW 284 ° 0 min 0,000 mm 0,0 UV-I 32 W/m² 6,6 °C 12,1 °C 4,8 km/h (1 Bft)
10.05.2019 20:03 12,0 °C 69 % 1011,2 hPa 0,0 mm 2,2 km/h (1 Bft) W-NW 284 ° 0 min 0,000 mm 0,0 UV-I 33 W/m² 6,5 °C 12,0 °C 3,2 km/h (1 Bft)
10.05.2019 20:04 11,9 °C 69 % 1011,2 hPa 0,0 mm 0,9 km/h (0 Bft) W-NW 284 ° 0 min 0,000 mm 0,0 UV-I 32 W/m² 6,4 °C 11,9 °C 3,2 km/h (1 Bft)
10.05.2019 20:05 11,9 °C 69 % 1011,1 hPa 0,0 mm 0,0 km/h (0 Bft) W-NW 284 ° 0 min 0,000 mm 0,0 UV-I 32 W/m² 6,4 °C 11,9 °C 0,0 km/h (0 Bft)
10.05.2019 20:06 11,9 °C 69 % 1011,1 hPa 0,0 mm 0,0 km/h (0 Bft) W-NW 284 ° 0 min 0,000 mm 0,0 UV-I 30 W/m² 6,4 °C 11,9 °C 0,0 km/h (0 Bft)
10.05.2019 20:07 11,9 °C 69 % 1011,1 hPa 0,0 mm 0,0 km/h (0 Bft) W-NW 284 ° 0 min 0,000 mm 0,0 UV-I 30 W/m² 6,4 °C 11,9 °C 0,0 km/h (0 Bft)
10.05.2019 20:08 11,9 °C 69 % 1011,1 hPa 0,0 mm 0,0 km/h (0 Bft) W-NW 284 ° 0 min 0,000 mm 0,0 UV-I 30 W/m² 6,4 °C 11,9 °C 0,0 km/h (0 Bft)
10.05.2019 20:09 11,9 °C 69 % 1011,1 hPa 0,0 mm 0,1 km/h (0 Bft) W-NW 284 ° 0 min 0,000 mm 0,0 UV-I 28 W/m² 6,4 °C 11,9 °C 1,6 km/h (1 Bft)
10.05.2019 20:10 11,9 °C 70 % 1011,1 hPa 0,0 mm 0,0 km/h (0 Bft) W-NW 284 ° 0 min 0,000 mm 0,0 UV-I 28 W/m² 6,6 °C 11,9 °C 0,0 km/h (0 Bft)
10.05.2019 20:11 11,8 °C 70 % 1011,1 hPa 0,0 mm 0,0 km/h (0 Bft) W-NW 284 ° 0 min 0,000 mm 0,0 UV-I 28 W/m² 6,5 °C 11,8 °C 0,0 km/h (0 Bft)
10.05.2019 20:12 11,8 °C 70 % 1011,1 hPa 0,0 mm 0,0 km/h (0 Bft) W-NW 284 ° 0 min 0,000 mm 0,0 UV-I 26 W/m² 6,5 °C 11,8 °C 0,0 km/h (0 Bft)
10.05.2019 20:13 11,8 °C 70 % 1011,2 hPa 0,0 mm 0,0 km/h (0 Bft) W-NW 284 ° 0 min 0,000 mm 0,0 UV-I 25 W/m² 6,5 °C 11,8 °C 0,0 km/h (0 Bft)
10.05.2019 20:14 11,7 °C 71 % 1011,2 hPa 0,0 mm 0,4 km/h (0 Bft) W-NW 284 ° 0 min 0,000 mm 0,0 UV-I 23 W/m² 6,6 °C 11,7 °C 1,6 km/h (1 Bft)
10.05.2019 20:15 11,7 °C 71 % 1011,1 hPa 0,0 mm 0,3 km/h (0 Bft) W-NW 284 ° 0 min 0,000 mm 0,0 UV-I 21 W/m² 6,6 °C 11,7 °C 1,6 km/h (1 Bft)
10.05.2019 20:16 11,6 °C 72 % 1011,2 hPa 0,0 mm 0,0 km/h (0 Bft) W-NW 284 ° 0 min 0,000 mm 0,0 UV-I 19 W/m² 6,7 °C 11,6 °C 0,0 km/h (0 Bft)
10.05.2019 20:17 11,6 °C 71 % 1011,1 hPa 0,0 mm 0,0 km/h (0 Bft) W-NW 284 ° 0 min 0,000 mm 0,0 UV-I 18 W/m² 6,5 °C 11,6 °C 0,0 km/h (0 Bft)
10.05.2019 20:18 11,6 °C 70 % 1011,2 hPa 0,0 mm 0,1 km/h (0 Bft) W-NW 284 ° 0 min 0,000 mm 0,0 UV-I 16 W/m² 6,3 °C 11,6 °C 1,6 km/h (1 Bft)
10.05.2019 20:19 11,6 °C 71 % 1011,2 hPa 0,0 mm 0,2 km/h (0 Bft) W-NW 284 ° 0 min 0,000 mm 0,0 UV-I 16 W/m² 6,5 °C 11,6 °C 1,6 km/h (1 Bft)
10.05.2019 20:20 11,5 °C 71 % 1011,3 hPa 0,0 mm 0,0 km/h (0 Bft) W-NW 284 ° 0 min 0,000 mm 0,0 UV-I 12 W/m² 6,4 °C 11,5 °C 0,0 km/h (0 Bft)
10.05.2019 20:21 11,4 °C 72 % 1011,3 hPa 0,0 mm 0,7 km/h (0 Bft) W-NW 284 ° 0 min 0,000 mm 0,0 UV-I 12 W/m² 6,5 °C 11,4 °C 3,2 km/h (1 Bft)
10.05.2019 20:22 11,4 °C 71 % 1011,3 hPa 0,0 mm 0,1 km/h (0 Bft) W-NW 284 ° 0 min 0,000 mm 0,0 UV-I 11 W/m² 6,3 °C 11,4 °C 1,6 km/h (1 Bft)
10.05.2019 20:23 11,4 °C 71 % 1011,4 hPa 0,0 mm 0,1 km/h (0 Bft) W-NW 284 ° 0 min 0,000 mm 0,0 UV-I 11 W/m² 6,3 °C 11,4 °C 1,6 km/h (1 Bft)
10.05.2019 20:24 11,4 °C 73 % 1011,3 hPa 0,0 mm 0,0 km/h (0 Bft) W-NW 284 ° 0 min 0,000 mm 0,0 UV-I 9 W/m² 6,7 °C 11,4 °C 0,0 km/h (0 Bft)
10.05.2019 20:25 11,3 °C 72 % 1011,4 hPa 0,0 mm 0,0 km/h (0 Bft) W-NW 284 ° 0 min 0,000 mm 0,0 UV-I 7 W/m² 6,4 °C 11,3 °C 0,0 km/h (0 Bft)
10.05.2019 20:26 11,3 °C 75 % 1011,4 hPa 0,0 mm 0,0 km/h (0 Bft) W-NW 284 ° 0 min 0,000 mm 0,0 UV-I 7 W/m² 7,0 °C 11,3 °C 0,0 km/h (0 Bft)
10.05.2019 20:27 11,2 °C 75 % 1011,4 hPa 0,0 mm 0,0 km/h (0 Bft) W-NW 284 ° 0 min 0,000 mm 0,0 UV-I 7 W/m² 6,9 °C 11,2 °C 0,0 km/h (0 Bft)
10.05.2019 20:28 11,1 °C 76 % 1011,5 hPa 0,0 mm 0,0 km/h (0 Bft) W-NW 284 ° 0 min 0,000 mm 0,0 UV-I 5 W/m² 7,0 °C 11,1 °C 0,0 km/h (0 Bft)
10.05.2019 20:29 10,9 °C 76 % 1011,5 hPa 0,0 mm 0,0 km/h (0 Bft) W-NW 284 ° 0 min 0,000 mm 0,0 UV-I 5 W/m² 6,8 °C 10,9 °C 0,0 km/h (0 Bft)
10.05.2019 20:30 10,8 °C 78 % 1011,5 hPa 0,0 mm 0,0 km/h (0 Bft) W-NW 284 ° 0 min 0,000 mm 0,0 UV-I 5 W/m² 7,1 °C 10,8 °C 0,0 km/h (0 Bft)
10.05.2019 20:31 10,7 °C 78 % 1011,5 hPa 0,0 mm 0,0 km/h (0 Bft) W-NW 284 ° 0 min 0,000 mm 0,0 UV-I 5 W/m² 7,0 °C 10,7 °C 0,0 km/h (0 Bft)
10.05.2019 20:32 10,6 °C 78 % 1011,6 hPa 0,0 mm 0,0 km/h (0 Bft) W-NW 284 ° 0 min 0,000 mm 0,0 UV-I 0 W/m² 6,9 °C 10,6 °C 0,0 km/h (0 Bft)
10.05.2019 20:33 10,6 °C 77 % 1011,6 hPa 0,0 mm 0,0 km/h (0 Bft) W-NW 284 ° 0 min 0,000 mm 0,0 UV-I 0 W/m² 6,7 °C 10,6 °C 0,0 km/h (0 Bft)
10.05.2019 20:34 10,6 °C 77 % 1011,7 hPa 0,0 mm 0,0 km/h (0 Bft) W-NW 284 ° 0 min 0,000 mm 0,0 UV-I 0 W/m² 6,7 °C 10,6 °C 0,0 km/h (0 Bft)
10.05.2019 20:35 10,7 °C 76 % 1011,7 hPa 0,0 mm 0,0 km/h (0 Bft) W-NW 284 ° 0 min 0,000 mm 0,0 UV-I 0 W/m² 6,6 °C 10,7 °C 0,0 km/h (0 Bft)
10.05.2019 20:36 10,7 °C 75 % 1011,7 hPa 0,0 mm 0,0 km/h (0 Bft) W-NW 284 ° 0 min 0,000 mm 0,0 UV-I 0 W/m² 6,5 °C 10,7 °C 0,0 km/h (0 Bft)
10.05.2019 20:37 10,7 °C 75 % 1011,6 hPa 0,0 mm 0,0 km/h (0 Bft) W-NW 284 ° 0 min 0,000 mm 0,0 UV-I 0 W/m² 6,5 °C 10,7 °C 0,0 km/h (0 Bft)
10.05.2019 20:38 10,7 °C 76 % 1011,6 hPa 0,0 mm 0,0 km/h (0 Bft) W-NW 284 ° 0 min 0,000 mm 0,0 UV-I 0 W/m² 6,6 °C 10,7 °C 0,0 km/h (0 Bft)
10.05.2019 20:39 10,6 °C 78 % 1011,6 hPa 0,0 mm 0,0 km/h (0 Bft) W-NW 284 ° 0 min 0,000 mm 0,0 UV-I 0 W/m² 6,9 °C 10,6 °C 0,0 km/h (0 Bft)
10.05.2019 20:40 10,5 °C 79 % 1011,6 hPa 0,0 mm 0,0 km/h (0 Bft) W-NW 284 ° 0 min 0,000 mm 0,0 UV-I 0 W/m² 7,0 °C 10,5 °C 0,0 km/h (0 Bft)
10.05.2019 20:41 10,4 °C 79 % 1011,7 hPa 0,0 mm 0,0 km/h (0 Bft) W-NW 284 ° 0 min 0,000 mm 0,0 UV-I 0 W/m² 6,9 °C 10,4 °C 0,0 km/h (0 Bft)
10.05.2019 20:42 10,3 °C 79 % 1011,8 hPa 0,0 mm 0,0 km/h (0 Bft) W-NW 284 ° 0 min 0,000 mm 0,0 UV-I 0 W/m² 6,8 °C 10,3 °C 0,0 km/h (0 Bft)
10.05.2019 20:43 10,3 °C 78 % 1011,9 hPa 0,0 mm 0,0 km/h (0 Bft) W-NW 284 ° 0 min 0,000 mm 0,0 UV-I 0 W/m² 6,6 °C 10,3 °C 0,0 km/h (0 Bft)
10.05.2019 20:44 10,3 °C 78 % 1011,8 hPa 0,0 mm 0,0 km/h (0 Bft) W-NW 284 ° 0 min 0,000 mm 0,0 UV-I 0 W/m² 6,6 °C 10,3 °C 0,0 km/h (0 Bft)
10.05.2019 20:45 10,4 °C 77 % 1011,9 hPa 0,0 mm 0,3 km/h (0 Bft) W-NW 284 ° 0 min 0,000 mm 0,0 UV-I 0 W/m² 6,5 °C 10,4 °C 1,6 km/h (1 Bft)
10.05.2019 20:46 10,4 °C 77 % 1011,8 hPa 0,0 mm 0,1 km/h (0 Bft) W-NW 284 ° 0 min 0,000 mm 0,0 UV-I 0 W/m² 6,5 °C 10,4 °C 1,6 km/h (1 Bft)
10.05.2019 20:47 10,4 °C 78 % 1011,8 hPa 0,0 mm 1,7 km/h (1 Bft) W-NW 284 ° 0 min 0,000 mm 0,0 UV-I 0 W/m² 6,7 °C 10,4 °C 4,8 km/h (1 Bft)
10.05.2019 20:48 10,4 °C 78 % 1011,9 hPa 0,0 mm 2,4 km/h (1 Bft) W-NW 284 ° 0 min 0,000 mm 0,0 UV-I 0 W/m² 6,7 °C 10,4 °C 4,8 km/h (1 Bft)
10.05.2019 20:49 10,4 °C 77 % 1011,9 hPa 0,0 mm 3,0 km/h (1 Bft) W-NW 283 ° 0 min 0,000 mm 0,0 UV-I 0 W/m² 6,5 °C 10,4 °C 4,8 km/h (1 Bft)
10.05.2019 20:50 10,4 °C 77 % 1012,0 hPa 0,0 mm 3,4 km/h (1 Bft) W-NW 283 ° 0 min 0,000 mm 0,0 UV-I 0 W/m² 6,5 °C 10,4 °C 4,8 km/h (1 Bft)
10.05.2019 20:51 10,5 °C 77 % 1012,0 hPa 0,0 mm 3,2 km/h (1 Bft) W-NW 283 ° 0 min 0,000 mm 0,0 UV-I 0 W/m² 6,6 °C 10,5 °C 3,2 km/h (1 Bft)
10.05.2019 20:52 10,6 °C 76 % 1012,0 hPa 0,0 mm 2,4 km/h (1 Bft) W-NW 283 ° 0 min 0,000 mm 0,0 UV-I 0 W/m² 6,5 °C 10,6 °C 3,2 km/h (1 Bft)
10.05.2019 20:53 10,6 °C 76 % 1012,0 hPa 0,0 mm 1,0 km/h (0 Bft) W-NW 283 ° 0 min 0,000 mm 0,0 UV-I 0 W/m² 6,5 °C 10,6 °C 1,6 km/h (1 Bft)
10.05.2019 20:54 10,6 °C 77 % 1012,0 hPa 0,0 mm 0,0 km/h (0 Bft) W-NW 283 ° 0 min 0,000 mm 0,0 UV-I 0 W/m² 6,7 °C 10,6 °C 0,0 km/h (0 Bft)
10.05.2019 20:55 10,6 °C 76 % 1011,9 hPa 0,0 mm 3,0 km/h (1 Bft) S-SW 192 ° 0 min 0,000 mm 0,0 UV-I 0 W/m² 6,5 °C 10,6 °C 4,8 km/h (1 Bft)
10.05.2019 20:56 10,6 °C 76 % 1011,9 hPa 0,0 mm 0,1 km/h (0 Bft) S 188 ° 0 min 0,000 mm 0,0 UV-I 0 W/m² 6,5 °C 10,6 °C 1,6 km/h (1 Bft)
10.05.2019 20:57 10,7 °C 77 % 1011,9 hPa 0,0 mm 0,0 km/h (0 Bft) S 182 ° 0 min 0,000 mm 0,0 UV-I 0 W/m² 6,8 °C 10,7 °C 0,0 km/h (0 Bft)
10.05.2019 20:58 10,6 °C 76 % 1011,9 hPa 0,0 mm 0,5 km/h (0 Bft) S 182 ° 0 min 0,000 mm 0,0 UV-I 0 W/m² 6,5 °C 10,6 °C 3,2 km/h (1 Bft)
10.05.2019 20:59 10,6 °C 76 % 1011,9 hPa 0,0 mm 3,5 km/h (1 Bft) S 182 ° 0 min 0,000 mm 0,0 UV-I 0 W/m² 6,5 °C 10,6 °C 4,8 km/h (1 Bft)
10.05.2019 21:00 10,6 °C 76 % 1012,0 hPa 0,0 mm 1,5 km/h (1 Bft) S 182 ° 0 min 0,000 mm 0,0 UV-I 0 W/m² 6,5 °C 10,6 °C 3,2 km/h (1 Bft)
10.05.2019 21:01 10,6 °C 76 % 1012,0 hPa 0,0 mm 2,5 km/h (1 Bft) S 182 ° 0 min 0,000 mm 0,0 UV-I 0 W/m² 6,5 °C 10,6 °C 3,2 km/h (1 Bft)
10.05.2019 21:02 10,7 °C 76 % 1012,0 hPa 0,0 mm 1,7 km/h (1 Bft) S 182 ° 0 min 0,000 mm 0,0 UV-I 0 W/m² 6,6 °C 10,7 °C 3,2 km/h (1 Bft)
10.05.2019 21:03 10,6 °C 76 % 1012,0 hPa 0,0 mm 1,2 km/h (1 Bft) S 182 ° 0 min 0,000 mm 0,0 UV-I 0 W/m² 6,5 °C 10,6 °C 3,2 km/h (1 Bft)
10.05.2019 21:04 10,6 °C 77 % 1012,0 hPa 0,0 mm 2,6 km/h (1 Bft) S 182 ° 0 min 0,000 mm 0,0 UV-I 0 W/m² 6,7 °C 10,6 °C 4,8 km/h (1 Bft)
10.05.2019 21:05 10,6 °C 77 % 1012,0 hPa 0,0 mm 0,1 km/h (0 Bft) S 182 ° 0 min 0,000 mm 0,0 UV-I 0 W/m² 6,7 °C 10,6 °C 1,6 km/h (1 Bft)
10.05.2019 21:06 10,6 °C 77 % 1012,0 hPa 0,0 mm 1,7 km/h (1 Bft) S 182 ° 0 min 0,000 mm 0,0 UV-I 0 W/m² 6,7 °C 10,6 °C 3,2 km/h (1 Bft)
10.05.2019 21:07 10,5 °C 77 % 1012,0 hPa 0,0 mm 0,9 km/h (0 Bft) S 182 ° 0 min 0,000 mm 0,0 UV-I 0 W/m² 6,6 °C 10,5 °C 1,6 km/h (1 Bft)
10.05.2019 21:08 10,6 °C 76 % 1012,0 hPa 0,0 mm 0,0 km/h (0 Bft) S 182 ° 0 min 0,000 mm 0,0 UV-I 0 W/m² 6,5 °C 10,6 °C 0,0 km/h (0 Bft)
10.05.2019 21:09 10,6 °C 76 % 1012,0 hPa 0,0 mm 0,4 km/h (0 Bft) S 182 ° 0 min 0,000 mm 0,0 UV-I 0 W/m² 6,5 °C 10,6 °C 1,6 km/h (1 Bft)
10.05.2019 21:10 10,6 °C 76 % 1012,0 hPa 0,0 mm 0,0 km/h (0 Bft) S 182 ° 0 min 0,000 mm 0,0 UV-I 0 W/m² 6,5 °C 10,6 °C 0,0 km/h (0 Bft)
10.05.2019 21:11 10,6 °C 76 % 1012,0 hPa 0,0 mm 0,0 km/h (0 Bft) S 182 ° 0 min 0,000 mm 0,0 UV-I 0 W/m² 6,5 °C 10,6 °C 0,0 km/h (0 Bft)
10.05.2019 21:12 10,6 °C 76 % 1012,0 hPa 0,0 mm 0,0 km/h (0 Bft) S 182 ° 0 min 0,000 mm 0,0 UV-I 0 W/m² 6,5 °C 10,6 °C 0,0 km/h (0 Bft)
10.05.2019 21:13 10,5 °C 77 % 1012,0 hPa 0,0 mm 0,0 km/h (0 Bft) S 182 ° 0 min 0,000 mm 0,0 UV-I 0 W/m² 6,6 °C 10,5 °C 0,0 km/h (0 Bft)
10.05.2019 21:14 10,5 °C 77 % 1012,0 hPa 0,0 mm 0,0 km/h (0 Bft) S 182 ° 0 min 0,000 mm 0,0 UV-I 0 W/m² 6,6 °C 10,5 °C 0,0 km/h (0 Bft)
10.05.2019 21:15 10,4 °C 77 % 1012,0 hPa 0,0 mm 0,0 km/h (0 Bft) S 182 ° 0 min 0,000 mm 0,0 UV-I 0 W/m² 6,5 °C 10,4 °C 0,0 km/h (0 Bft)
10.05.2019 21:16 10,4 °C 77 % 1012,1 hPa 0,0 mm 0,9 km/h (0 Bft) S 182 ° 0 min 0,000 mm 0,0 UV-I 0 W/m² 6,5 °C 10,4 °C 3,2 km/h (1 Bft)
10.05.2019 21:17 10,4 °C 78 % 1012,1 hPa 0,0 mm 0,4 km/h (0 Bft) S 182 ° 0 min 0,000 mm 0,0 UV-I 0 W/m² 6,7 °C 10,4 °C 1,6 km/h (1 Bft)
10.05.2019 21:18 10,3 °C 78 % 1012,1 hPa 0,0 mm 0,8 km/h (0 Bft) S 182 ° 0 min 0,000 mm 0,0 UV-I 0 W/m² 6,6 °C 10,3 °C 3,2 km/h (1 Bft)
10.05.2019 21:19 10,3 °C 78 % 1012,1 hPa 0,0 mm 1,4 km/h (1 Bft) S 182 ° 0 min 0,000 mm 0,0 UV-I 0 W/m² 6,6 °C 10,3 °C 3,2 km/h (1 Bft)
10.05.2019 21:20 10,3 °C 77 % 1012,1 hPa 0,0 mm 1,9 km/h (1 Bft) S 182 ° 0 min 0,000 mm 0,0 UV-I 0 W/m² 6,4 °C 10,3 °C 3,2 km/h (1 Bft)
10.05.2019 21:21 10,3 °C 79 % 1012,1 hPa 0,0 mm 3,0 km/h (1 Bft) S 182 ° 0 min 0,000 mm 0,0 UV-I 0 W/m² 6,8 °C 10,3 °C 4,8 km/h (1 Bft)
10.05.2019 21:22 10,2 °C 80 % 1012,1 hPa 0,0 mm 2,9 km/h (1 Bft) S 182 ° 0 min 0,000 mm 0,0 UV-I 0 W/m² 6,9 °C 10,2 °C 3,2 km/h (1 Bft)
10.05.2019 21:23 10,1 °C 80 % 1012,2 hPa 0,0 mm 2,3 km/h (1 Bft) S 182 ° 0 min 0,000 mm 0,0 UV-I 0 W/m² 6,8 °C 10,1 °C 3,2 km/h (1 Bft)
10.05.2019 21:24 10,1 °C 79 % 1012,2 hPa 0,0 mm 1,4 km/h (1 Bft) S 182 ° 0 min 0,000 mm 0,0 UV-I 0 W/m² 6,6 °C 10,1 °C 3,2 km/h (1 Bft)
10.05.2019 21:25 10,1 °C 79 % 1012,2 hPa 0,0 mm 0,1 km/h (0 Bft) S 182 ° 0 min 0,000 mm 0,0 UV-I 0 W/m² 6,6 °C 10,1 °C 1,6 km/h (1 Bft)
10.05.2019 21:26 10,1 °C 79 % 1012,1 hPa 0,0 mm 0,0 km/h (0 Bft) S 182 ° 0 min 0,000 mm 0,0 UV-I 0 W/m² 6,6 °C 10,1 °C 0,0 km/h (0 Bft)
10.05.2019 21:27 10,1 °C 80 % 1012,1 hPa 0,0 mm 0,7 km/h (0 Bft) S 182 ° 0 min 0,000 mm 0,0 UV-I 0 W/m² 6,8 °C 10,1 °C 1,6 km/h (1 Bft)
10.05.2019 21:28 9,9 °C 81 % 1012,1 hPa 0,0 mm 0,0 km/h (0 Bft) S 182 ° 0 min 0,000 mm 0,0 UV-I 0 W/m² 6,8 °C 9,9 °C 0,0 km/h (0 Bft)
10.05.2019 21:29 9,8 °C 82 % 1012,1 hPa 0,0 mm 0,0 km/h (0 Bft) S 182 ° 0 min 0,000 mm 0,0 UV-I 0 W/m² 6,9 °C 9,8 °C 0,0 km/h (0 Bft)
10.05.2019 21:30 9,8 °C 82 % 1012,1 hPa 0,0 mm 0,0 km/h (0 Bft) S 182 ° 0 min 0,000 mm 0,0 UV-I 0 W/m² 6,9 °C 9,8 °C 0,0 km/h (0 Bft)
10.05.2019 21:31 9,8 °C 81 % 1012,0 hPa 0,0 mm 0,0 km/h (0 Bft) S 182 ° 0 min 0,000 mm 0,0 UV-I 0 W/m² 6,7 °C 9,8 °C 0,0 km/h (0 Bft)
10.05.2019 21:32 9,8 °C 81 % 1012,1 hPa 0,0 mm 0,0 km/h (0 Bft) S 182 ° 0 min 0,000 mm 0,0 UV-I 0 W/m² 6,7 °C 9,8 °C 0,0 km/h (0 Bft)
10.05.2019 21:33 9,8 °C 81 % 1012,0 hPa 0,0 mm 0,0 km/h (0 Bft) S 182 ° 0 min 0,000 mm 0,0 UV-I 0 W/m² 6,7 °C 9,8 °C 0,0 km/h (0 Bft)
10.05.2019 21:34 9,9 °C 81 % 1012,0 hPa 0,0 mm 0,0 km/h (0 Bft) S 182 ° 0 min 0,000 mm 0,0 UV-I 0 W/m² 6,8 °C 9,9 °C 0,0 km/h (0 Bft)
10.05.2019 21:35 9,9 °C 81 % 1012,0 hPa 0,0 mm 0,0 km/h (0 Bft) S 182 ° 0 min 0,000 mm 0,0 UV-I 0 W/m² 6,8 °C 9,9 °C 0,0 km/h (0 Bft)
10.05.2019 21:36 9,9 °C 81 % 1012,0 hPa 0,0 mm 0,0 km/h (0 Bft) S 182 ° 0 min 0,000 mm 0,0 UV-I 0 W/m² 6,8 °C 9,9 °C 0,0 km/h (0 Bft)
10.05.2019 21:37 9,9 °C 81 % 1012,0 hPa 0,0 mm 0,0 km/h (0 Bft) S 182 ° 0 min 0,000 mm 0,0 UV-I 0 W/m² 6,8 °C 9,9 °C 0,0 km/h (0 Bft)
10.05.2019 21:38 9,9 °C 80 % 1012,0 hPa 0,0 mm 0,0 km/h (0 Bft) S 182 ° 0 min 0,000 mm 0,0 UV-I 0 W/m² 6,6 °C 9,9 °C 0,0 km/h (0 Bft)
10.05.2019 21:39 9,9 °C 80 % 1012,0 hPa 0,0 mm 0,0 km/h (0 Bft) S 182 ° 0 min 0,000 mm 0,0 UV-I 0 W/m² 6,6 °C 9,9 °C 0,0 km/h (0 Bft)
10.05.2019 21:40 10,0 °C 80 % 1012,0 hPa 0,0 mm 0,0 km/h (0 Bft) S 182 ° 0 min 0,000 mm 0,0 UV-I 0 W/m² 6,7 °C 10,0 °C 0,0 km/h (0 Bft)
10.05.2019 21:41 10,0 °C 80 % 1012,0 hPa 0,0 mm 0,0 km/h (0 Bft) S 182 ° 0 min 0,000 mm 0,0 UV-I 0 W/m² 6,7 °C 10,0 °C 0,0 km/h (0 Bft)
10.05.2019 21:42 9,9 °C 81 % 1012,1 hPa 0,0 mm 0,0 km/h (0 Bft) S 182 ° 0 min 0,000 mm 0,0 UV-I 0 W/m² 6,8 °C 9,9 °C 0,0 km/h (0 Bft)
10.05.2019 21:43 9,9 °C 81 % 1012,1 hPa 0,0 mm 0,0 km/h (0 Bft) S 182 ° 0 min 0,000 mm 0,0 UV-I 0 W/m² 6,8 °C 9,9 °C 0,0 km/h (0 Bft)
10.05.2019 21:44 9,8 °C 81 % 1012,2 hPa 0,0 mm 0,0 km/h (0 Bft) S 182 ° 0 min 0,000 mm 0,0 UV-I 0 W/m² 6,7 °C 9,8 °C 0,0 km/h (0 Bft)
10.05.2019 21:45 9,8 °C 82 % 1012,2 hPa 0,0 mm 0,0 km/h (0 Bft) S 182 ° 0 min 0,000 mm 0,0 UV-I 0 W/m² 6,9 °C 9,8 °C 0,0 km/h (0 Bft)
10.05.2019 21:46 9,7 °C 82 % 1012,2 hPa 0,0 mm 0,0 km/h (0 Bft) S 182 ° 0 min 0,000 mm 0,0 UV-I 0 W/m² 6,8 °C 9,7 °C 0,0 km/h (0 Bft)
10.05.2019 21:47 9,7 °C 82 % 1012,2 hPa 0,0 mm 0,0 km/h (0 Bft) S 182 ° 0 min 0,000 mm 0,0 UV-I 0 W/m² 6,8 °C 9,7 °C 0,0 km/h (0 Bft)
10.05.2019 21:48 9,7 °C 82 % 1012,2 hPa 0,0 mm 0,0 km/h (0 Bft) S 182 ° 0 min 0,000 mm 0,0 UV-I 0 W/m² 6,8 °C 9,7 °C 0,0 km/h (0 Bft)
10.05.2019 21:49 9,7 °C 82 % 1012,2 hPa 0,0 mm 0,0 km/h (0 Bft) S 182 ° 0 min 0,000 mm 0,0 UV-I 0 W/m² 6,8 °C 9,7 °C 0,0 km/h (0 Bft)
10.05.2019 21:50 9,7 °C 82 % 1012,2 hPa 0,0 mm 0,0 km/h (0 Bft) S 182 ° 0 min 0,000 mm 0,0 UV-I 0 W/m² 6,8 °C 9,7 °C 0,0 km/h (0 Bft)
10.05.2019 21:51 9,7 °C 82 % 1012,2 hPa 0,0 mm 0,0 km/h (0 Bft) S 182 ° 0 min 0,000 mm 0,0 UV-I 0 W/m² 6,8 °C 9,7 °C 0,0 km/h (0 Bft)
10.05.2019 21:52 9,7 °C 82 % 1012,3 hPa 0,0 mm 0,0 km/h (0 Bft) S 182 ° 0 min 0,000 mm 0,0 UV-I 0 W/m² 6,8 °C 9,7 °C 0,0 km/h (0 Bft)
10.05.2019 21:53 9,8 °C 82 % 1012,2 hPa 0,0 mm 0,0 km/h (0 Bft) S 182 ° 0 min 0,000 mm 0,0 UV-I 0 W/m² 6,9 °C 9,8 °C 0,0 km/h (0 Bft)
10.05.2019 21:54 9,8 °C 82 % 1012,3 hPa 0,0 mm 0,0 km/h (0 Bft) S 182 ° 0 min 0,000 mm 0,0 UV-I 0 W/m² 6,9 °C 9,8 °C 0,0 km/h (0 Bft)
10.05.2019 21:55 9,8 °C 82 % 1012,2 hPa 0,0 mm 0,0 km/h (0 Bft) S 182 ° 0 min 0,000 mm 0,0 UV-I 0 W/m² 6,9 °C 9,8 °C 0,0 km/h (0 Bft)
10.05.2019 21:56 9,8 °C 82 % 1012,2 hPa 0,0 mm 0,0 km/h (0 Bft) S 182 ° 0 min 0,000 mm 0,0 UV-I 0 W/m² 6,9 °C 9,8 °C 0,0 km/h (0 Bft)
10.05.2019 21:57 9,8 °C 83 % 1012,3 hPa 0,0 mm 0,0 km/h (0 Bft) S 182 ° 0 min 0,000 mm 0,0 UV-I 0 W/m² 7,1 °C 9,8 °C 0,0 km/h (0 Bft)
10.05.2019 21:58 9,7 °C 83 % 1012,3 hPa 0,0 mm 0,0 km/h (0 Bft) S 182 ° 0 min 0,000 mm 0,0 UV-I 0 W/m² 7,0 °C 9,7 °C 0,0 km/h (0 Bft)
10.05.2019 21:59 9,7 °C 82 % 1012,3 hPa 0,0 mm 0,0 km/h (0 Bft) S 182 ° 0 min 0,000 mm 0,0 UV-I 0 W/m² 6,8 °C 9,7 °C 0,0 km/h (0 Bft)
10.05.2019 22:00 9,7 °C 82 % 1012,3 hPa 0,0 mm 0,0 km/h (0 Bft) S 182 ° 0 min 0,000 mm 0,0 UV-I 0 W/m² 6,8 °C 9,7 °C 0,0 km/h (0 Bft)
10.05.2019 22:01 9,7 °C 83 % 1012,4 hPa 0,0 mm 0,0 km/h (0 Bft) S 182 ° 0 min 0,025 mm 0,0 UV-I 0 W/m² 7,0 °C 9,7 °C 0,0 km/h (0 Bft)
10.05.2019 22:02 9,7 °C 83 % 1012,4 hPa 0,0 mm 0,0 km/h (0 Bft) S 182 ° 0 min 0,000 mm 0,0 UV-I 0 W/m² 7,0 °C 9,7 °C 0,0 km/h (0 Bft)
10.05.2019 22:03 9,6 °C 84 % 1012,4 hPa 0,0 mm 0,0 km/h (0 Bft) S 182 ° 0 min 0,000 mm 0,0 UV-I 0 W/m² 7,0 °C 9,6 °C 0,0 km/h (0 Bft)
10.05.2019 22:04 9,6 °C 84 % 1012,4 hPa 0,0 mm 0,0 km/h (0 Bft) S 182 ° 0 min 0,000 mm 0,0 UV-I 0 W/m² 7,0 °C 9,6 °C 0,0 km/h (0 Bft)
10.05.2019 22:05 9,6 °C 83 % 1012,4 hPa 0,0 mm 0,3 km/h (0 Bft) S 182 ° 0 min 0,000 mm 0,0 UV-I 0 W/m² 6,9 °C 9,6 °C 1,6 km/h (1 Bft)
10.05.2019 22:06 9,6 °C 83 % 1012,4 hPa 0,0 mm 0,0 km/h (0 Bft) S 182 ° 0 min 0,000 mm 0,0 UV-I 0 W/m² 6,9 °C 9,6 °C 0,0 km/h (0 Bft)
10.05.2019 22:07 9,7 °C 83 % 1012,4 hPa 0,0 mm 0,0 km/h (0 Bft) S 182 ° 0 min 0,000 mm 0,0 UV-I 0 W/m² 7,0 °C 9,7 °C 0,0 km/h (0 Bft)
10.05.2019 22:08 9,7 °C 83 % 1012,4 hPa 0,0 mm 0,0 km/h (0 Bft) S 182 ° 0 min 0,000 mm 0,0 UV-I 0 W/m² 7,0 °C 9,7 °C 0,0 km/h (0 Bft)
10.05.2019 22:09 9,7 °C 83 % 1012,4 hPa 0,0 mm 0,0 km/h (0 Bft) S 182 ° 0 min 0,000 mm 0,0 UV-I 0 W/m² 7,0 °C 9,7 °C 0,0 km/h (0 Bft)
10.05.2019 22:10 9,7 °C 83 % 1012,3 hPa 0,0 mm 0,0 km/h (0 Bft) S 182 ° 0 min 0,000 mm 0,0 UV-I 0 W/m² 7,0 °C 9,7 °C 0,0 km/h (0 Bft)
10.05.2019 22:11 9,7 °C 83 % 1012,3 hPa 0,0 mm 0,0 km/h (0 Bft) S 182 ° 0 min 0,000 mm 0,0 UV-I 0 W/m² 7,0 °C 9,7 °C 0,0 km/h (0 Bft)
10.05.2019 22:12 9,8 °C 83 % 1012,2 hPa 0,0 mm 0,0 km/h (0 Bft) S 182 ° 0 min 0,000 mm 0,0 UV-I 0 W/m² 7,1 °C 9,8 °C 0,0 km/h (0 Bft)
10.05.2019 22:13 9,8 °C 83 % 1012,2 hPa 0,0 mm 0,0 km/h (0 Bft) S 182 ° 0 min 0,000 mm 0,0 UV-I 0 W/m² 7,1 °C 9,8 °C 0,0 km/h (0 Bft)
10.05.2019 22:14 9,8 °C 83 % 1012,2 hPa 0,0 mm 0,0 km/h (0 Bft) S 182 ° 0 min 0,000 mm 0,0 UV-I 0 W/m² 7,1 °C 9,8 °C 0,0 km/h (0 Bft)
10.05.2019 22:15 9,8 °C 83 % 1012,1 hPa 0,0 mm 0,0 km/h (0 Bft) S 182 ° 0 min 0,000 mm 0,0 UV-I 0 W/m² 7,1 °C 9,8 °C 0,0 km/h (0 Bft)
10.05.2019 22:16 9,7 °C 82 % 1012,1 hPa 0,0 mm 0,0 km/h (0 Bft) S 182 ° 0 min 0,000 mm 0,0 UV-I 0 W/m² 6,8 °C 9,7 °C 0,0 km/h (0 Bft)
10.05.2019 22:17 9,8 °C 82 % 1012,1 hPa 0,0 mm 0,0 km/h (0 Bft) S 182 ° 0 min 0,000 mm 0,0 UV-I 0 W/m² 6,9 °C 9,8 °C 0,0 km/h (0 Bft)
10.05.2019 22:18 9,8 °C 82 % 1012,1 hPa 0,0 mm 0,0 km/h (0 Bft) S 182 ° 0 min 0,000 mm 0,0 UV-I 0 W/m² 6,9 °C 9,8 °C 0,0 km/h (0 Bft)
10.05.2019 22:19 9,8 °C 82 % 1012,1 hPa 0,0 mm 0,0 km/h (0 Bft) S 182 ° 0 min 0,000 mm 0,0 UV-I 0 W/m² 6,9 °C 9,8 °C 0,0 km/h (0 Bft)
10.05.2019 22:20 9,8 °C 83 % 1012,1 hPa 0,0 mm 0,0 km/h (0 Bft) S 182 ° 0 min 0,000 mm 0,0 UV-I 0 W/m² 7,1 °C 9,8 °C 0,0 km/h (0 Bft)
10.05.2019 22:21 9,8 °C 83 % 1012,1 hPa 0,0 mm 0,0 km/h (0 Bft) S 182 ° 0 min 0,000 mm 0,0 UV-I 0 W/m² 7,1 °C 9,8 °C 0,0 km/h (0 Bft)
10.05.2019 22:22 9,8 °C 83 % 1012,1 hPa 0,0 mm 0,0 km/h (0 Bft) S 182 ° 0 min 0,000 mm 0,0 UV-I 0 W/m² 7,1 °C 9,8 °C 0,0 km/h (0 Bft)
10.05.2019 22:23 9,8 °C 83 % 1012,1 hPa 0,0 mm 0,0 km/h (0 Bft) S 182 ° 0 min 0,000 mm 0,0 UV-I 0 W/m² 7,1 °C 9,8 °C 0,0 km/h (0 Bft)
10.05.2019 22:24 9,8 °C 83 % 1012,1 hPa 0,0 mm 0,0 km/h (0 Bft) S 182 ° 0 min 0,000 mm 0,0 UV-I 0 W/m² 7,1 °C 9,8 °C 0,0 km/h (0 Bft)
10.05.2019 22:25 9,8 °C 83 % 1012,0 hPa 0,0 mm 0,0 km/h (0 Bft) S 182 ° 0 min 0,000 mm 0,0 UV-I 0 W/m² 7,1 °C 9,8 °C 0,0 km/h (0 Bft)
10.05.2019 22:26 9,8 °C 83 % 1012,0 hPa 0,0 mm 0,0 km/h (0 Bft) S 182 ° 0 min 0,000 mm 0,0 UV-I 0 W/m² 7,1 °C 9,8 °C 0,0 km/h (0 Bft)
10.05.2019 22:27 9,8 °C 83 % 1012,0 hPa 0,0 mm 0,0 km/h (0 Bft) S 182 ° 0 min 0,000 mm 0,0 UV-I 0 W/m² 7,1 °C 9,8 °C 0,0 km/h (0 Bft)
10.05.2019 22:28 9,7 °C 83 % 1012,0 hPa 0,0 mm 0,0 km/h (0 Bft) S 182 ° 0 min 0,000 mm 0,0 UV-I 0 W/m² 7,0 °C 9,7 °C 0,0 km/h (0 Bft)
10.05.2019 22:29 9,7 °C 83 % 1011,9 hPa 0,0 mm 0,0 km/h (0 Bft) S 182 ° 0 min 0,000 mm 0,0 UV-I 0 W/m² 7,0 °C 9,7 °C 0,0 km/h (0 Bft)
10.05.2019 22:30 9,7 °C 83 % 1011,9 hPa 0,0 mm 0,0 km/h (0 Bft) S 182 ° 0 min 0,000 mm 0,0 UV-I 0 W/m² 7,0 °C 9,7 °C 0,0 km/h (0 Bft)
10.05.2019 22:31 9,7 °C 83 % 1011,9 hPa 0,0 mm 0,0 km/h (0 Bft) S 182 ° 0 min 0,000 mm 0,0 UV-I 0 W/m² 7,0 °C 9,7 °C 0,0 km/h (0 Bft)
10.05.2019 22:32 9,7 °C 83 % 1011,8 hPa 0,0 mm 0,0 km/h (0 Bft) S 182 ° 0 min 0,000 mm 0,0 UV-I 0 W/m² 7,0 °C 9,7 °C 0,0 km/h (0 Bft)
10.05.2019 22:33 9,7 °C 83 % 1011,8 hPa 0,0 mm 0,0 km/h (0 Bft) S 182 ° 0 min 0,000 mm 0,0 UV-I 0 W/m² 7,0 °C 9,7 °C 0,0 km/h (0 Bft)
10.05.2019 22:34 9,7 °C 83 % 1011,8 hPa 0,0 mm 0,0 km/h (0 Bft) S 182 ° 0 min 0,000 mm 0,0 UV-I 0 W/m² 7,0 °C 9,7 °C 0,0 km/h (0 Bft)
10.05.2019 22:35 9,7 °C 83 % 1011,8 hPa 0,0 mm 0,0 km/h (0 Bft) S 182 ° 0 min 0,000 mm 0,0 UV-I 0 W/m² 7,0 °C 9,7 °C 0,0 km/h (0 Bft)
10.05.2019 22:36 9,6 °C 83 % 1011,8 hPa 0,0 mm 0,0 km/h (0 Bft) S 182 ° 0 min 0,000 mm 0,0 UV-I 0 W/m² 6,9 °C 9,6 °C 0,0 km/h (0 Bft)
10.05.2019 22:37 9,6 °C 84 % 1011,8 hPa 0,0 mm 0,0 km/h (0 Bft) S 182 ° 0 min 0,000 mm 0,0 UV-I 0 W/m² 7,0 °C 9,6 °C 0,0 km/h (0 Bft)
10.05.2019 22:38 9,5 °C 84 % 1011,7 hPa 0,0 mm 0,0 km/h (0 Bft) S 182 ° 0 min 0,000 mm 0,0 UV-I 0 W/m² 6,9 °C 9,5 °C 0,0 km/h (0 Bft)
10.05.2019 22:39 9,5 °C 84 % 1011,6 hPa 0,0 mm 0,0 km/h (0 Bft) S 182 ° 0 min 0,000 mm 0,0 UV-I 0 W/m² 6,9 °C 9,5 °C 0,0 km/h (0 Bft)
10.05.2019 22:40 9,4 °C 84 % 1011,6 hPa 0,0 mm 0,0 km/h (0 Bft) S 182 ° 0 min 0,000 mm 0,0 UV-I 0 W/m² 6,8 °C 9,4 °C 0,0 km/h (0 Bft)
10.05.2019 22:41 9,4 °C 84 % 1011,6 hPa 0,0 mm 0,0 km/h (0 Bft) S 182 ° 0 min 0,000 mm 0,0 UV-I 0 W/m² 6,8 °C 9,4 °C 0,0 km/h (0 Bft)
10.05.2019 22:42 9,3 °C 84 % 1011,6 hPa 0,0 mm 0,0 km/h (0 Bft) S 182 ° 0 min 0,000 mm 0,0 UV-I 0 W/m² 6,7 °C 9,3 °C 0,0 km/h (0 Bft)
10.05.2019 22:43 9,3 °C 84 % 1011,6 hPa 0,0 mm 0,0 km/h (0 Bft) S 182 ° 0 min 0,000 mm 0,0 UV-I 0 W/m² 6,7 °C 9,3 °C 0,0 km/h (0 Bft)
10.05.2019 22:44 9,3 °C 84 % 1011,5 hPa 0,0 mm 0,0 km/h (0 Bft) S 182 ° 0 min 0,000 mm 0,0 UV-I 0 W/m² 6,7 °C 9,3 °C 0,0 km/h (0 Bft)
10.05.2019 22:45 9,3 °C 84 % 1011,5 hPa 0,0 mm 0,0 km/h (0 Bft) S 182 ° 0 min 0,000 mm 0,0 UV-I 0 W/m² 6,7 °C 9,3 °C 0,0 km/h (0 Bft)
10.05.2019 22:46 9,3 °C 84 % 1011,4 hPa 0,0 mm 0,0 km/h (0 Bft) S 182 ° 0 min 0,000 mm 0,0 UV-I 0 W/m² 6,7 °C 9,3 °C 0,0 km/h (0 Bft)
10.05.2019 22:47 9,2 °C 84 % 1011,4 hPa 0,0 mm 0,0 km/h (0 Bft) S 182 ° 0 min 0,000 mm 0,0 UV-I 0 W/m² 6,6 °C 9,2 °C 0,0 km/h (0 Bft)
10.05.2019 22:48 9,2 °C 84 % 1011,4 hPa 0,0 mm 0,0 km/h (0 Bft) S 182 ° 0 min 0,000 mm 0,0 UV-I 0 W/m² 6,6 °C 9,2 °C 0,0 km/h (0 Bft)
10.05.2019 22:49 9,1 °C 84 % 1011,3 hPa 0,0 mm 0,0 km/h (0 Bft) S 182 ° 0 min 0,000 mm 0,0 UV-I 0 W/m² 6,5 °C 9,1 °C 0,0 km/h (0 Bft)
10.05.2019 22:50 9,0 °C 84 % 1011,3 hPa 0,0 mm 0,0 km/h (0 Bft) S 182 ° 0 min 0,000 mm 0,0 UV-I 0 W/m² 6,4 °C 9,0 °C 0,0 km/h (0 Bft)
10.05.2019 22:51 8,9 °C 84 % 1011,3 hPa 0,0 mm 0,0 km/h (0 Bft) S 182 ° 0 min 0,000 mm 0,0 UV-I 0 W/m² 6,3 °C 8,9 °C 0,0 km/h (0 Bft)
10.05.2019 22:52 8,8 °C 84 % 1011,3 hPa 0,0 mm 0,0 km/h (0 Bft) S 182 ° 0 min 0,000 mm 0,0 UV-I 0 W/m² 6,2 °C 8,8 °C 0,0 km/h (0 Bft)
10.05.2019 22:53 8,8 °C 84 % 1011,3 hPa 0,0 mm 0,0 km/h (0 Bft) S 182 ° 0 min 0,000 mm 0,0 UV-I 0 W/m² 6,2 °C 8,8 °C 0,0 km/h (0 Bft)
10.05.2019 22:54 8,7 °C 84 % 1011,3 hPa 0,0 mm 0,0 km/h (0 Bft) S 182 ° 0 min 0,000 mm 0,0 UV-I 0 W/m² 6,2 °C 8,7 °C 0,0 km/h (0 Bft)
10.05.2019 22:55 8,6 °C 84 % 1011,3 hPa 0,0 mm 0,0 km/h (0 Bft) S 182 ° 0 min 0,000 mm 0,0 UV-I 0 W/m² 6,1 °C 8,6 °C 0,0 km/h (0 Bft)
10.05.2019 22:56 8,6 °C 85 % 1011,2 hPa 0,0 mm 0,0 km/h (0 Bft) S 182 ° 0 min 0,000 mm 0,0 UV-I 0 W/m² 6,2 °C 8,6 °C 0,0 km/h (0 Bft)
10.05.2019 22:57 8,6 °C 85 % 1011,3 hPa 0,0 mm 0,0 km/h (0 Bft) S 182 ° 0 min 0,000 mm 0,0 UV-I 0 W/m² 6,2 °C 8,6 °C 0,0 km/h (0 Bft)
10.05.2019 22:58 8,5 °C 85 % 1011,3 hPa 0,0 mm 0,0 km/h (0 Bft) S 182 ° 0 min 0,000 mm 0,0 UV-I 0 W/m² 6,1 °C 8,5 °C 0,0 km/h (0 Bft)
10.05.2019 22:59 8,6 °C 85 % 1011,3 hPa 0,0 mm 0,0 km/h (0 Bft) S 182 ° 0 min 0,000 mm 0,0 UV-I 0 W/m² 6,2 °C 8,6 °C 0,0 km/h (0 Bft)
10.05.2019 23:00 8,6 °C 85 % 1011,3 hPa 0,0 mm 0,0 km/h (0 Bft) S 182 ° 0 min 0,000 mm 0,0 UV-I 0 W/m² 6,2 °C 8,6 °C 0,0 km/h (0 Bft)
10.05.2019 23:01 8,6 °C 85 % 1011,3 hPa 0,0 mm 1,1 km/h (1 Bft) S-SW 200 ° 0 min 0,000 mm 0,0 UV-I 0 W/m² 6,2 °C 8,6 °C 3,2 km/h (1 Bft)
10.05.2019 23:02 8,5 °C 84 % 1011,3 hPa 0,0 mm 0,0 km/h (0 Bft) S-SW 200 ° 0 min 0,000 mm 0,0 UV-I 0 W/m² 6,0 °C 8,5 °C 0,0 km/h (0 Bft)
10.05.2019 23:03 8,5 °C 85 % 1011,4 hPa 0,0 mm 0,0 km/h (0 Bft) S-SW 200 ° 0 min 0,000 mm 0,0 UV-I 0 W/m² 6,1 °C 8,5 °C 0,0 km/h (0 Bft)
10.05.2019 23:04 8,6 °C 85 % 1011,3 hPa 0,0 mm 0,0 km/h (0 Bft) S-SW 200 ° 0 min 0,000 mm 0,0 UV-I 0 W/m² 6,2 °C 8,6 °C 0,0 km/h (0 Bft)
10.05.2019 23:05 8,6 °C 85 % 1011,3 hPa 0,0 mm 0,0 km/h (0 Bft) S-SW 200 ° 0 min 0,000 mm 0,0 UV-I 0 W/m² 6,2 °C 8,6 °C 0,0 km/h (0 Bft)
10.05.2019 23:06 8,6 °C 85 % 1011,3 hPa 0,0 mm 0,0 km/h (0 Bft) S-SW 200 ° 0 min 0,000 mm 0,0 UV-I 0 W/m² 6,2 °C 8,6 °C 0,0 km/h (0 Bft)
10.05.2019 23:07 8,5 °C 84 % 1011,3 hPa 0,0 mm 0,0 km/h (0 Bft) S-SW 200 ° 0 min 0,000 mm 0,0 UV-I 0 W/m² 6,0 °C 8,5 °C 0,0 km/h (0 Bft)
10.05.2019 23:08 8,4 °C 85 % 1011,3 hPa 0,0 mm 0,0 km/h (0 Bft) S-SW 200 ° 0 min 0,000 mm 0,0 UV-I 0 W/m² 6,0 °C 8,4 °C 0,0 km/h (0 Bft)
10.05.2019 23:09 8,3 °C 85 % 1011,3 hPa 0,0 mm 0,0 km/h (0 Bft) S-SW 200 ° 0 min 0,000 mm 0,0 UV-I 0 W/m² 5,9 °C 8,3 °C 0,0 km/h (0 Bft)
10.05.2019 23:10 8,3 °C 85 % 1011,3 hPa 0,0 mm 0,0 km/h (0 Bft) S-SW 200 ° 0 min 0,000 mm 0,0 UV-I 0 W/m² 5,9 °C 8,3 °C 0,0 km/h (0 Bft)
10.05.2019 23:11 8,2 °C 85 % 1011,3 hPa 0,0 mm 0,0 km/h (0 Bft) S-SW 200 ° 0 min 0,000 mm 0,0 UV-I 0 W/m² 5,8 °C 8,2 °C 0,0 km/h (0 Bft)
10.05.2019 23:12 8,1 °C 85 % 1011,2 hPa 0,0 mm 0,0 km/h (0 Bft) S-SW 200 ° 0 min 0,000 mm 0,0 UV-I 0 W/m² 5,7 °C 8,1 °C 0,0 km/h (0 Bft)
10.05.2019 23:13 8,0 °C 86 % 1011,3 hPa 0,0 mm 0,0 km/h (0 Bft) S-SW 200 ° 0 min 0,000 mm 0,0 UV-I 0 W/m² 5,8 °C 8,0 °C 0,0 km/h (0 Bft)
10.05.2019 23:14 7,9 °C 86 % 1011,3 hPa 0,0 mm 0,0 km/h (0 Bft) S-SW 200 ° 0 min 0,000 mm 0,0 UV-I 0 W/m² 5,7 °C 7,9 °C 0,0 km/h (0 Bft)
10.05.2019 23:15 8,0 °C 87 % 1011,3 hPa 0,0 mm 0,0 km/h (0 Bft) S-SW 200 ° 0 min 0,000 mm 0,0 UV-I 0 W/m² 6,0 °C 8,0 °C 0,0 km/h (0 Bft)
10.05.2019 23:16 8,1 °C 87 % 1011,3 hPa 0,0 mm 0,0 km/h (0 Bft) S-SW 200 ° 0 min 0,000 mm 0,0 UV-I 0 W/m² 6,1 °C 8,1 °C 0,0 km/h (0 Bft)
10.05.2019 23:17 8,1 °C 86 % 1011,3 hPa 0,0 mm 0,0 km/h (0 Bft) S-SW 200 ° 0 min 0,000 mm 0,0 UV-I 0 W/m² 5,9 °C 8,1 °C 0,0 km/h (0 Bft)
10.05.2019 23:18 8,0 °C 86 % 1011,3 hPa 0,0 mm 0,0 km/h (0 Bft) S-SW 200 ° 0 min 0,000 mm 0,0 UV-I 0 W/m² 5,8 °C 8,0 °C 0,0 km/h (0 Bft)
10.05.2019 23:19 8,0 °C 86 % 1011,3 hPa 0,0 mm 0,1 km/h (0 Bft) S-SW 200 ° 0 min 0,000 mm 0,0 UV-I 0 W/m² 5,8 °C 8,0 °C 1,6 km/h (1 Bft)
10.05.2019 23:20 8,0 °C 86 % 1011,2 hPa 0,0 mm 3,0 km/h (1 Bft) S-SW 200 ° 0 min 0,000 mm 0,0 UV-I 0 W/m² 5,8 °C 8,0 °C 4,8 km/h (1 Bft)
10.05.2019 23:21 8,1 °C 86 % 1011,3 hPa 0,0 mm 3,1 km/h (1 Bft) S-SW 200 ° 0 min 0,000 mm 0,0 UV-I 0 W/m² 5,9 °C 8,1 °C 4,8 km/h (1 Bft)
10.05.2019 23:22 8,2 °C 86 % 1011,3 hPa 0,0 mm 1,4 km/h (1 Bft) S-SW 199 ° 0 min 0,000 mm 0,0 UV-I 0 W/m² 6,0 °C 8,2 °C 3,2 km/h (1 Bft)
10.05.2019 23:23 8,2 °C 86 % 1011,3 hPa 0,0 mm 0,5 km/h (0 Bft) S-SW 192 ° 0 min 0,000 mm 0,0 UV-I 0 W/m² 6,0 °C 8,2 °C 1,6 km/h (1 Bft)
10.05.2019 23:24 8,3 °C 86 % 1011,3 hPa 0,0 mm 0,0 km/h (0 Bft) S-SW 192 ° 0 min 0,000 mm 0,0 UV-I 0 W/m² 6,1 °C 8,3 °C 0,0 km/h (0 Bft)
10.05.2019 23:25 8,3 °C 85 % 1011,2 hPa 0,0 mm 0,0 km/h (0 Bft) S-SW 192 ° 0 min 0,000 mm 0,0 UV-I 0 W/m² 5,9 °C 8,3 °C 0,0 km/h (0 Bft)
10.05.2019 23:26 8,3 °C 85 % 1011,3 hPa 0,0 mm 0,1 km/h (0 Bft) S-SW 192 ° 0 min 0,000 mm 0,0 UV-I 0 W/m² 5,9 °C 8,3 °C 1,6 km/h (1 Bft)
10.05.2019 23:27 8,2 °C 85 % 1011,3 hPa 0,0 mm 1,9 km/h (1 Bft) S-SW 192 ° 0 min 0,000 mm 0,0 UV-I 0 W/m² 5,8 °C 8,2 °C 4,8 km/h (1 Bft)
10.05.2019 23:28 8,2 °C 85 % 1011,3 hPa 0,0 mm 3,0 km/h (1 Bft) S-SW 192 ° 0 min 0,000 mm 0,0 UV-I 0 W/m² 5,8 °C 8,2 °C 4,8 km/h (1 Bft)
10.05.2019 23:29 8,1 °C 85 % 1011,3 hPa 0,0 mm 2,9 km/h (1 Bft) S-SW 192 ° 0 min 0,000 mm 0,0 UV-I 0 W/m² 5,7 °C 8,1 °C 4,8 km/h (1 Bft)
10.05.2019 23:30 8,1 °C 85 % 1011,3 hPa 0,0 mm 1,5 km/h (1 Bft) S-SW 192 ° 0 min 0,000 mm 0,0 UV-I 0 W/m² 5,7 °C 8,1 °C 3,2 km/h (1 Bft)
10.05.2019 23:31 8,1 °C 86 % 1011,3 hPa 0,0 mm 0,0 km/h (0 Bft) S-SW 192 ° 0 min 0,000 mm 0,0 UV-I 0 W/m² 5,9 °C 8,1 °C 0,0 km/h (0 Bft)
10.05.2019 23:32 8,1 °C 86 % 1011,3 hPa 0,0 mm 0,0 km/h (0 Bft) S-SW 192 ° 0 min 0,000 mm 0,0 UV-I 0 W/m² 5,9 °C 8,1 °C 0,0 km/h (0 Bft)
10.05.2019 23:33 8,1 °C 86 % 1011,4 hPa 0,0 mm 0,6 km/h (0 Bft) NW 313 ° 0 min 0,000 mm 0,0 UV-I 0 W/m² 5,9 °C 8,1 °C 3,2 km/h (1 Bft)
10.05.2019 23:34 8,0 °C 86 % 1011,4 hPa 0,0 mm 3,4 km/h (1 Bft) NW 313 ° 0 min 0,000 mm 0,0 UV-I 0 W/m² 5,8 °C 8,0 °C 4,8 km/h (1 Bft)
10.05.2019 23:35 7,8 °C 85 % 1011,4 hPa 0,0 mm 2,3 km/h (1 Bft) NW 313 ° 0 min 0,000 mm 0,0 UV-I 0 W/m² 5,4 °C 7,8 °C 3,2 km/h (1 Bft)
10.05.2019 23:36 7,6 °C 85 % 1011,5 hPa 0,0 mm 0,7 km/h (0 Bft) NW 313 ° 0 min 0,000 mm 0,0 UV-I 0 W/m² 5,2 °C 7,6 °C 1,6 km/h (1 Bft)
10.05.2019 23:37 7,4 °C 86 % 1011,4 hPa 0,0 mm 0,0 km/h (0 Bft) NW 313 ° 0 min 0,000 mm 0,0 UV-I 0 W/m² 5,2 °C 7,4 °C 0,0 km/h (0 Bft)
10.05.2019 23:38 7,3 °C 86 % 1011,4 hPa 0,0 mm 0,0 km/h (0 Bft) NW 313 ° 0 min 0,000 mm 0,0 UV-I 0 W/m² 5,1 °C 7,3 °C 0,0 km/h (0 Bft)
10.05.2019 23:39 7,3 °C 87 % 1011,4 hPa 0,0 mm 0,0 km/h (0 Bft) NW 313 ° 0 min 0,000 mm 0,0 UV-I 0 W/m² 5,3 °C 7,3 °C 0,0 km/h (0 Bft)
10.05.2019 23:40 7,2 °C 87 % 1011,4 hPa 0,0 mm 0,7 km/h (0 Bft) W-NW 296 ° 0 min 0,000 mm 0,0 UV-I 0 W/m² 5,2 °C 7,2 °C 3,2 km/h (1 Bft)
10.05.2019 23:41 7,3 °C 88 % 1011,4 hPa 0,0 mm 2,1 km/h (1 Bft) W-NW 296 ° 0 min 0,000 mm 0,0 UV-I 0 W/m² 5,4 °C 7,3 °C 3,2 km/h (1 Bft)
10.05.2019 23:42 7,3 °C 88 % 1011,4 hPa 0,0 mm 2,7 km/h (1 Bft) W-NW 296 ° 0 min 0,000 mm 0,0 UV-I 0 W/m² 5,4 °C 7,3 °C 3,2 km/h (1 Bft)
10.05.2019 23:43 7,4 °C 89 % 1011,4 hPa 0,0 mm 0,7 km/h (0 Bft) W-NW 296 ° 0 min 0,000 mm 0,0 UV-I 0 W/m² 5,7 °C 7,4 °C 1,6 km/h (1 Bft)
10.05.2019 23:44 7,6 °C 89 % 1011,4 hPa 0,0 mm 1,8 km/h (1 Bft) W-NW 296 ° 0 min 0,000 mm 0,0 UV-I 0 W/m² 5,9 °C 7,6 °C 3,2 km/h (1 Bft)
10.05.2019 23:45 7,7 °C 89 % 1011,4 hPa 0,0 mm 0,5 km/h (0 Bft) W-NW 296 ° 0 min 0,000 mm 0,0 UV-I 0 W/m² 6,0 °C 7,7 °C 1,6 km/h (1 Bft)
10.05.2019 23:46 7,7 °C 88 % 1011,4 hPa 0,0 mm 0,0 km/h (0 Bft) W-NW 296 ° 0 min 0,000 mm 0,0 UV-I 0 W/m² 5,8 °C 7,7 °C 0,0 km/h (0 Bft)
10.05.2019 23:47 7,8 °C 88 % 1011,4 hPa 0,0 mm 0,0 km/h (0 Bft) W-NW 296 ° 0 min 0,000 mm 0,0 UV-I 0 W/m² 5,9 °C 7,8 °C 0,0 km/h (0 Bft)
10.05.2019 23:48 7,8 °C 88 % 1011,4 hPa 0,0 mm 0,0 km/h (0 Bft) W-NW 296 ° 0 min 0,000 mm 0,0 UV-I 0 W/m² 5,9 °C 7,8 °C 0,0 km/h (0 Bft)
10.05.2019 23:49 7,9 °C 88 % 1011,4 hPa 0,0 mm 0,0 km/h (0 Bft) W-NW 296 ° 0 min 0,000 mm 0,0 UV-I 0 W/m² 6,0 °C 7,9 °C 0,0 km/h (0 Bft)
10.05.2019 23:50 7,8 °C 88 % 1011,4 hPa 0,0 mm 0,0 km/h (0 Bft) W-NW 296 ° 0 min 0,000 mm 0,0 UV-I 0 W/m² 5,9 °C 7,8 °C 0,0 km/h (0 Bft)
10.05.2019 23:51 7,8 °C 88 % 1011,4 hPa 0,0 mm 0,5 km/h (0 Bft) W 268 ° 0 min 0,000 mm 0,0 UV-I 0 W/m² 5,9 °C 7,8 °C 3,2 km/h (1 Bft)
10.05.2019 23:52 7,8 °C 88 % 1011,4 hPa 0,0 mm 2,5 km/h (1 Bft) W 268 ° 0 min 0,000 mm 0,0 UV-I 0 W/m² 5,9 °C 7,8 °C 3,2 km/h (1 Bft)
10.05.2019 23:53 7,8 °C 88 % 1011,4 hPa 0,0 mm 2,1 km/h (1 Bft) W 268 ° 0 min 0,000 mm 0,0 UV-I 0 W/m² 5,9 °C 7,8 °C 3,2 km/h (1 Bft)
10.05.2019 23:54 7,8 °C 88 % 1011,4 hPa 0,0 mm 1,3 km/h (1 Bft) W 268 ° 0 min 0,000 mm 0,0 UV-I 0 W/m² 5,9 °C 7,8 °C 3,2 km/h (1 Bft)
10.05.2019 23:55 7,8 °C 88 % 1011,4 hPa 0,0 mm 2,0 km/h (1 Bft) W 268 ° 0 min 0,000 mm 0,0 UV-I 0 W/m² 5,9 °C 7,8 °C 4,8 km/h (1 Bft)
10.05.2019 23:56 7,9 °C 88 % 1011,4 hPa 0,0 mm 0,5 km/h (0 Bft) W 268 ° 0 min 0,000 mm 0,0 UV-I 0 W/m² 6,0 °C 7,9 °C 3,2 km/h (1 Bft)
10.05.2019 23:57 7,9 °C 88 % 1011,4 hPa 0,0 mm 2,6 km/h (1 Bft) W 268 ° 0 min 0,000 mm 0,0 UV-I 0 W/m² 6,0 °C 7,9 °C 3,2 km/h (1 Bft)
10.05.2019 23:58 7,9 °C 88 % 1011,4 hPa 0,0 mm 1,4 km/h (1 Bft) W 268 ° 0 min 0,000 mm 0,0 UV-I 0 W/m² 6,0 °C 7,9 °C 3,2 km/h (1 Bft)
10.05.2019 23:59 7,8 °C 88 % 1011,4 hPa 0,0 mm 0,0 km/h (0 Bft) W 268 ° 0 min 0,000 mm 0,0 UV-I 0 W/m² 5,9 °C 7,8 °C 0,0 km/h (0 Bft)
_ Min-Zeit 06:14 16:45 00:02 - 23:59 - - - - - - 05:55 07:46 23:59
Minimum _ 4,9 °C 61 % 1006,9 hPa - 0,0 km/h (0 Bft) - - - - - - 3,2 °C 4,2 °C 0,0 km/h (0 Bft)
_ Max-Zeit 16:22 09:45 22:09 09:14 13:30 - - 15:59 14:01 13:38 13:42 14:52 16:22 13:39
Maximum _ 14,2 °C 91 % 1012,4 hPa 0,2 mm 18,6 km/h
W (3 Bft)
- - 1 min 0,356 mm 7,4 UV-I 1243 W/m² 9,2 °C 14,2 °C 24,1 km/h
W-NW (4 Bft)
Durchschnitt _ 9,7 °C 79 % 1010,1 hPa #2,0 mm 4,5 km/h (1 Bft) W - #1:18 h #2,286 mm 2,5 UV-I 164 W/m² 6,0 °C 9,5 °C 7,7 km/h (2 Bft)